<?xml version="1.0" encoding="UTF-8" standalone="no" ?>
<gpx xmlns="http://www.topografix.com/GPX/1/1" xmlns:xsi="http://www.w3.org/2001/XMLSchema-instance" xsi:schemaLocation="http://www.topografix.com/GPX/1/1 http://www.topografix.com/GPX/1/1/gpx.xsd" version="1.1" creator="VisuGPX - https://www.visugpx.com">
  <metadata>
    <name>TOTAL 4x4 </name>
  </metadata>
  <wpt lat="42.36368" lon="2.84007">
    <ele>181</ele>
  </wpt>
  <wpt lat="42.36397" lon="2.83975">
    <ele>185.2</ele>
  </wpt>
  <wpt lat="42.36387" lon="2.83877">
    <ele>193</ele>
  </wpt>
  <wpt lat="42.36443" lon="2.83943">
    <ele>186.6</ele>
  </wpt>
  <wpt lat="42.2714" lon="2.52859">
    <ele>415.7</ele>
  </wpt>
  <wpt lat="42.27123" lon="2.52776">
    <ele>417.3</ele>
  </wpt>
  <wpt lat="42.27143" lon="2.53029">
    <ele>408.8</ele>
  </wpt>
  <trk>
    <name><![CDATA[J2]]></name>
    <extensions>
      <line xmlns="http://www.topografix.com/GPX/gpx_style/0/2">
        <color>0000FF</color>
        <width>4</width>
      </line>
    </extensions>
    <trkseg>
      <trkpt lat="42.27139" lon="2.52884">
        <ele>414.15</ele>
        <time>2021-07-31T08:16:59Z</time>
      </trkpt>
      <trkpt lat="42.27139" lon="2.52884">
        <ele>414.13</ele>
        <time>2021-07-31T08:17:00Z</time>
      </trkpt>
      <trkpt lat="42.27139" lon="2.5288">
        <ele>414.59</ele>
        <time>2021-07-31T08:17:46Z</time>
      </trkpt>
      <trkpt lat="42.27139" lon="2.52881">
        <ele>415.01</ele>
        <time>2021-07-31T08:18:26Z</time>
      </trkpt>
      <trkpt lat="42.27138" lon="2.52891">
        <ele>415.72</ele>
        <time>2021-07-31T08:19:11Z</time>
      </trkpt>
      <trkpt lat="42.27136" lon="2.52893">
        <ele>415.74</ele>
        <time>2021-07-31T08:19:12Z</time>
      </trkpt>
      <trkpt lat="42.27118" lon="2.52886">
        <ele>415.69</ele>
        <time>2021-07-31T08:19:18Z</time>
      </trkpt>
      <trkpt lat="42.27108" lon="2.5286">
        <ele>415.43</ele>
        <time>2021-07-31T08:19:22Z</time>
      </trkpt>
      <trkpt lat="42.27091" lon="2.52872">
        <ele>413.14</ele>
        <time>2021-07-31T08:19:30Z</time>
      </trkpt>
      <trkpt lat="42.27095" lon="2.52886">
        <ele>412.73</ele>
        <time>2021-07-31T08:19:32Z</time>
      </trkpt>
      <trkpt lat="42.2712" lon="2.52967">
        <ele>412.6</ele>
        <time>2021-07-31T08:19:41Z</time>
      </trkpt>
      <trkpt lat="42.27147" lon="2.53017">
        <ele>413.35</ele>
        <time>2021-07-31T08:19:45Z</time>
      </trkpt>
      <trkpt lat="42.27215" lon="2.53082">
        <ele>416.33</ele>
        <time>2021-07-31T08:19:52Z</time>
      </trkpt>
      <trkpt lat="42.27253" lon="2.53151">
        <ele>420.33</ele>
        <time>2021-07-31T08:19:58Z</time>
      </trkpt>
      <trkpt lat="42.27263" lon="2.53187">
        <ele>421.59</ele>
        <time>2021-07-31T08:20:01Z</time>
      </trkpt>
      <trkpt lat="42.27319" lon="2.53337">
        <ele>421.19</ele>
        <time>2021-07-31T08:20:14Z</time>
      </trkpt>
      <trkpt lat="42.27349" lon="2.53407">
        <ele>418.99</ele>
        <time>2021-07-31T08:20:20Z</time>
      </trkpt>
      <trkpt lat="42.27349" lon="2.53476">
        <ele>416.97</ele>
        <time>2021-07-31T08:20:25Z</time>
      </trkpt>
      <trkpt lat="42.27371" lon="2.53527">
        <ele>416.51</ele>
        <time>2021-07-31T08:20:29Z</time>
      </trkpt>
      <trkpt lat="42.27456" lon="2.53666">
        <ele>417.97</ele>
        <time>2021-07-31T08:20:42Z</time>
      </trkpt>
      <trkpt lat="42.2754" lon="2.53753">
        <ele>421.12</ele>
        <time>2021-07-31T08:20:51Z</time>
      </trkpt>
      <trkpt lat="42.27558" lon="2.53773">
        <ele>422.49</ele>
        <time>2021-07-31T08:20:53Z</time>
      </trkpt>
      <trkpt lat="42.27566" lon="2.53786">
        <ele>423.14</ele>
        <time>2021-07-31T08:20:54Z</time>
      </trkpt>
      <trkpt lat="42.27575" lon="2.53796">
        <ele>423.9</ele>
        <time>2021-07-31T08:20:55Z</time>
      </trkpt>
      <trkpt lat="42.27605" lon="2.53853">
        <ele>427.38</ele>
        <time>2021-07-31T08:20:59Z</time>
      </trkpt>
      <trkpt lat="42.27624" lon="2.53886">
        <ele>430.04</ele>
        <time>2021-07-31T08:21:02Z</time>
      </trkpt>
      <trkpt lat="42.27631" lon="2.53894">
        <ele>430.73</ele>
        <time>2021-07-31T08:21:03Z</time>
      </trkpt>
      <trkpt lat="42.27638" lon="2.53898">
        <ele>431.45</ele>
        <time>2021-07-31T08:21:04Z</time>
      </trkpt>
      <trkpt lat="42.27646" lon="2.53897">
        <ele>432.16</ele>
        <time>2021-07-31T08:21:05Z</time>
      </trkpt>
      <trkpt lat="42.27653" lon="2.53892">
        <ele>432.86</ele>
        <time>2021-07-31T08:21:06Z</time>
      </trkpt>
      <trkpt lat="42.27661" lon="2.53848">
        <ele>435.83</ele>
        <time>2021-07-31T08:21:11Z</time>
      </trkpt>
      <trkpt lat="42.27646" lon="2.53819">
        <ele>437.2</ele>
        <time>2021-07-31T08:21:13Z</time>
      </trkpt>
      <trkpt lat="42.27592" lon="2.53709">
        <ele>441.6</ele>
        <time>2021-07-31T08:21:19Z</time>
      </trkpt>
      <trkpt lat="42.27554" lon="2.53598">
        <ele>444.88</ele>
        <time>2021-07-31T08:21:24Z</time>
      </trkpt>
      <trkpt lat="42.27535" lon="2.53518">
        <ele>448.04</ele>
        <time>2021-07-31T08:21:28Z</time>
      </trkpt>
      <trkpt lat="42.2752" lon="2.53452">
        <ele>451.51</ele>
        <time>2021-07-31T08:21:32Z</time>
      </trkpt>
      <trkpt lat="42.27529" lon="2.53408">
        <ele>455.44</ele>
        <time>2021-07-31T08:21:37Z</time>
      </trkpt>
      <trkpt lat="42.27563" lon="2.53468">
        <ele>460.27</ele>
        <time>2021-07-31T08:21:43Z</time>
      </trkpt>
      <trkpt lat="42.27602" lon="2.53532">
        <ele>463.96</ele>
        <time>2021-07-31T08:21:47Z</time>
      </trkpt>
      <trkpt lat="42.27635" lon="2.53582">
        <ele>467.42</ele>
        <time>2021-07-31T08:21:50Z</time>
      </trkpt>
      <trkpt lat="42.27668" lon="2.53632">
        <ele>471.26</ele>
        <time>2021-07-31T08:21:53Z</time>
      </trkpt>
      <trkpt lat="42.277" lon="2.53678">
        <ele>475.62</ele>
        <time>2021-07-31T08:21:56Z</time>
      </trkpt>
      <trkpt lat="42.27723" lon="2.53703">
        <ele>478.69</ele>
        <time>2021-07-31T08:21:58Z</time>
      </trkpt>
      <trkpt lat="42.27762" lon="2.53719">
        <ele>483.25</ele>
        <time>2021-07-31T08:22:01Z</time>
      </trkpt>
      <trkpt lat="42.2779" lon="2.53714">
        <ele>486.3</ele>
        <time>2021-07-31T08:22:03Z</time>
      </trkpt>
      <trkpt lat="42.2783" lon="2.53705">
        <ele>490.63</ele>
        <time>2021-07-31T08:22:06Z</time>
      </trkpt>
      <trkpt lat="42.27861" lon="2.53727">
        <ele>494.71</ele>
        <time>2021-07-31T08:22:09Z</time>
      </trkpt>
      <trkpt lat="42.2787" lon="2.53767">
        <ele>498.6</ele>
        <time>2021-07-31T08:22:12Z</time>
      </trkpt>
      <trkpt lat="42.2788" lon="2.53836">
        <ele>503.64</ele>
        <time>2021-07-31T08:22:16Z</time>
      </trkpt>
      <trkpt lat="42.27885" lon="2.53883">
        <ele>507.75</ele>
        <time>2021-07-31T08:22:19Z</time>
      </trkpt>
      <trkpt lat="42.279" lon="2.53912">
        <ele>512.36</ele>
        <time>2021-07-31T08:22:22Z</time>
      </trkpt>
      <trkpt lat="42.27922" lon="2.53909">
        <ele>515.92</ele>
        <time>2021-07-31T08:22:25Z</time>
      </trkpt>
      <trkpt lat="42.27925" lon="2.53875">
        <ele>519</ele>
        <time>2021-07-31T08:22:28Z</time>
      </trkpt>
      <trkpt lat="42.27924" lon="2.53861">
        <ele>519.85</ele>
        <time>2021-07-31T08:22:29Z</time>
      </trkpt>
      <trkpt lat="42.2792" lon="2.53798">
        <ele>524.71</ele>
        <time>2021-07-31T08:22:33Z</time>
      </trkpt>
      <trkpt lat="42.27917" lon="2.53741">
        <ele>528.5</ele>
        <time>2021-07-31T08:22:36Z</time>
      </trkpt>
      <trkpt lat="42.27913" lon="2.5368">
        <ele>532.93</ele>
        <time>2021-07-31T08:22:39Z</time>
      </trkpt>
      <trkpt lat="42.27896" lon="2.53628">
        <ele>537.62</ele>
        <time>2021-07-31T08:22:42Z</time>
      </trkpt>
      <trkpt lat="42.27861" lon="2.53595">
        <ele>542</ele>
        <time>2021-07-31T08:22:45Z</time>
      </trkpt>
      <trkpt lat="42.27848" lon="2.53589">
        <ele>543.4</ele>
        <time>2021-07-31T08:22:46Z</time>
      </trkpt>
      <trkpt lat="42.27822" lon="2.53579">
        <ele>545.91</ele>
        <time>2021-07-31T08:22:48Z</time>
      </trkpt>
      <trkpt lat="42.27787" lon="2.53538">
        <ele>551.06</ele>
        <time>2021-07-31T08:22:52Z</time>
      </trkpt>
      <trkpt lat="42.2778" lon="2.53506">
        <ele>555.99</ele>
        <time>2021-07-31T08:22:57Z</time>
      </trkpt>
      <trkpt lat="42.27778" lon="2.53487">
        <ele>559.33</ele>
        <time>2021-07-31T08:23:04Z</time>
      </trkpt>
      <trkpt lat="42.27778" lon="2.53483">
        <ele>559.66</ele>
        <time>2021-07-31T08:23:05Z</time>
      </trkpt>
      <trkpt lat="42.27817" lon="2.53445">
        <ele>563.21</ele>
        <time>2021-07-31T08:23:13Z</time>
      </trkpt>
      <trkpt lat="42.27848" lon="2.53437">
        <ele>565.26</ele>
        <time>2021-07-31T08:23:16Z</time>
      </trkpt>
      <trkpt lat="42.27903" lon="2.53389">
        <ele>569.39</ele>
        <time>2021-07-31T08:23:21Z</time>
      </trkpt>
      <trkpt lat="42.27924" lon="2.53364">
        <ele>571.62</ele>
        <time>2021-07-31T08:23:23Z</time>
      </trkpt>
      <trkpt lat="42.27945" lon="2.53308">
        <ele>576.35</ele>
        <time>2021-07-31T08:23:27Z</time>
      </trkpt>
      <trkpt lat="42.27936" lon="2.5327">
        <ele>579.98</ele>
        <time>2021-07-31T08:23:30Z</time>
      </trkpt>
      <trkpt lat="42.27927" lon="2.53262">
        <ele>581.19</ele>
        <time>2021-07-31T08:23:31Z</time>
      </trkpt>
      <trkpt lat="42.27895" lon="2.53197">
        <ele>586.44</ele>
        <time>2021-07-31T08:23:36Z</time>
      </trkpt>
      <trkpt lat="42.27893" lon="2.5318">
        <ele>587.51</ele>
        <time>2021-07-31T08:23:37Z</time>
      </trkpt>
      <trkpt lat="42.27885" lon="2.53118">
        <ele>591.91</ele>
        <time>2021-07-31T08:23:41Z</time>
      </trkpt>
      <trkpt lat="42.27885" lon="2.53103">
        <ele>593.1</ele>
        <time>2021-07-31T08:23:42Z</time>
      </trkpt>
      <trkpt lat="42.279" lon="2.53043">
        <ele>597.73</ele>
        <time>2021-07-31T08:23:46Z</time>
      </trkpt>
      <trkpt lat="42.27927" lon="2.53009">
        <ele>601.19</ele>
        <time>2021-07-31T08:23:49Z</time>
      </trkpt>
      <trkpt lat="42.27972" lon="2.5296">
        <ele>606.16</ele>
        <time>2021-07-31T08:23:53Z</time>
      </trkpt>
      <trkpt lat="42.28005" lon="2.52918">
        <ele>610.24</ele>
        <time>2021-07-31T08:23:56Z</time>
      </trkpt>
      <trkpt lat="42.28039" lon="2.52879">
        <ele>614.63</ele>
        <time>2021-07-31T08:23:59Z</time>
      </trkpt>
      <trkpt lat="42.28051" lon="2.52866">
        <ele>616.14</ele>
        <time>2021-07-31T08:24:00Z</time>
      </trkpt>
      <trkpt lat="42.28079" lon="2.52826">
        <ele>620.68</ele>
        <time>2021-07-31T08:24:03Z</time>
      </trkpt>
      <trkpt lat="42.28096" lon="2.52765">
        <ele>626.4</ele>
        <time>2021-07-31T08:24:07Z</time>
      </trkpt>
      <trkpt lat="42.28094" lon="2.52732">
        <ele>630.54</ele>
        <time>2021-07-31T08:24:09Z</time>
      </trkpt>
      <trkpt lat="42.28091" lon="2.52715">
        <ele>630.54</ele>
        <time>2021-07-31T08:24:10Z</time>
      </trkpt>
      <trkpt lat="42.2808" lon="2.52686">
        <ele>634.25</ele>
        <time>2021-07-31T08:24:12Z</time>
      </trkpt>
      <trkpt lat="42.28073" lon="2.52672">
        <ele>635.57</ele>
        <time>2021-07-31T08:24:13Z</time>
      </trkpt>
      <trkpt lat="42.28052" lon="2.52632">
        <ele>639.5</ele>
        <time>2021-07-31T08:24:16Z</time>
      </trkpt>
      <trkpt lat="42.28045" lon="2.52572">
        <ele>644.31</ele>
        <time>2021-07-31T08:24:20Z</time>
      </trkpt>
      <trkpt lat="42.28054" lon="2.52523">
        <ele>647.91</ele>
        <time>2021-07-31T08:24:23Z</time>
      </trkpt>
      <trkpt lat="42.28044" lon="2.52473">
        <ele>651.57</ele>
        <time>2021-07-31T08:24:26Z</time>
      </trkpt>
      <trkpt lat="42.28037" lon="2.52457">
        <ele>652.87</ele>
        <time>2021-07-31T08:24:27Z</time>
      </trkpt>
      <trkpt lat="42.28007" lon="2.52393">
        <ele>657.9</ele>
        <time>2021-07-31T08:24:31Z</time>
      </trkpt>
      <trkpt lat="42.27986" lon="2.52355">
        <ele>661.65</ele>
        <time>2021-07-31T08:24:34Z</time>
      </trkpt>
      <trkpt lat="42.2798" lon="2.52343">
        <ele>662.93</ele>
        <time>2021-07-31T08:24:35Z</time>
      </trkpt>
      <trkpt lat="42.2797" lon="2.52285">
        <ele>667.55</ele>
        <time>2021-07-31T08:24:39Z</time>
      </trkpt>
      <trkpt lat="42.27986" lon="2.52258">
        <ele>669.75</ele>
        <time>2021-07-31T08:24:41Z</time>
      </trkpt>
      <trkpt lat="42.28023" lon="2.522">
        <ele>674.64</ele>
        <time>2021-07-31T08:24:45Z</time>
      </trkpt>
      <trkpt lat="42.2804" lon="2.5217">
        <ele>677.32</ele>
        <time>2021-07-31T08:24:47Z</time>
      </trkpt>
      <trkpt lat="42.28061" lon="2.52096">
        <ele>682.94</ele>
        <time>2021-07-31T08:24:51Z</time>
      </trkpt>
      <trkpt lat="42.28071" lon="2.52037">
        <ele>687.01</ele>
        <time>2021-07-31T08:24:54Z</time>
      </trkpt>
      <trkpt lat="42.28076" lon="2.52018">
        <ele>688.39</ele>
        <time>2021-07-31T08:24:55Z</time>
      </trkpt>
      <trkpt lat="42.28112" lon="2.51957">
        <ele>694.08</ele>
        <time>2021-07-31T08:24:59Z</time>
      </trkpt>
      <trkpt lat="42.28146" lon="2.51915">
        <ele>698.32</ele>
        <time>2021-07-31T08:25:02Z</time>
      </trkpt>
      <trkpt lat="42.28178" lon="2.51878">
        <ele>702.65</ele>
        <time>2021-07-31T08:25:05Z</time>
      </trkpt>
      <trkpt lat="42.28212" lon="2.51845">
        <ele>706.71</ele>
        <time>2021-07-31T08:25:08Z</time>
      </trkpt>
      <trkpt lat="42.28224" lon="2.51835">
        <ele>708.12</ele>
        <time>2021-07-31T08:25:09Z</time>
      </trkpt>
      <trkpt lat="42.2828" lon="2.51815">
        <ele>713.7</ele>
        <time>2021-07-31T08:25:13Z</time>
      </trkpt>
      <trkpt lat="42.28322" lon="2.51804">
        <ele>718</ele>
        <time>2021-07-31T08:25:16Z</time>
      </trkpt>
      <trkpt lat="42.28353" lon="2.5179">
        <ele>722.37</ele>
        <time>2021-07-31T08:25:19Z</time>
      </trkpt>
      <trkpt lat="42.28367" lon="2.51781">
        <ele>724.99</ele>
        <time>2021-07-31T08:25:21Z</time>
      </trkpt>
      <trkpt lat="42.28378" lon="2.51764">
        <ele>729.23</ele>
        <time>2021-07-31T08:25:25Z</time>
      </trkpt>
      <trkpt lat="42.28379" lon="2.5176">
        <ele>730.14</ele>
        <time>2021-07-31T08:25:26Z</time>
      </trkpt>
      <trkpt lat="42.28392" lon="2.51712">
        <ele>734.75</ele>
        <time>2021-07-31T08:25:34Z</time>
      </trkpt>
      <trkpt lat="42.28395" lon="2.51701">
        <ele>735.26</ele>
        <time>2021-07-31T08:25:35Z</time>
      </trkpt>
      <trkpt lat="42.28425" lon="2.51665">
        <ele>737.31</ele>
        <time>2021-07-31T08:25:39Z</time>
      </trkpt>
      <trkpt lat="42.28444" lon="2.51653">
        <ele>738.77</ele>
        <time>2021-07-31T08:25:41Z</time>
      </trkpt>
      <trkpt lat="42.28471" lon="2.51601">
        <ele>743.19</ele>
        <time>2021-07-31T08:25:46Z</time>
      </trkpt>
      <trkpt lat="42.2846" lon="2.51563">
        <ele>747.23</ele>
        <time>2021-07-31T08:25:50Z</time>
      </trkpt>
      <trkpt lat="42.28438" lon="2.51527">
        <ele>751.27</ele>
        <time>2021-07-31T08:25:56Z</time>
      </trkpt>
      <trkpt lat="42.28407" lon="2.51473">
        <ele>754.67</ele>
        <time>2021-07-31T08:26:01Z</time>
      </trkpt>
      <trkpt lat="42.28394" lon="2.51449">
        <ele>756.2</ele>
        <time>2021-07-31T08:26:03Z</time>
      </trkpt>
      <trkpt lat="42.28386" lon="2.51393">
        <ele>760.58</ele>
        <time>2021-07-31T08:26:08Z</time>
      </trkpt>
      <trkpt lat="42.28443" lon="2.51405">
        <ele>764.09</ele>
        <time>2021-07-31T08:26:13Z</time>
      </trkpt>
      <trkpt lat="42.28516" lon="2.51373">
        <ele>766.87</ele>
        <time>2021-07-31T08:26:18Z</time>
      </trkpt>
      <trkpt lat="42.28606" lon="2.51287">
        <ele>769.25</ele>
        <time>2021-07-31T08:26:24Z</time>
      </trkpt>
      <trkpt lat="42.28662" lon="2.51189">
        <ele>770.68</ele>
        <time>2021-07-31T08:26:30Z</time>
      </trkpt>
      <trkpt lat="42.28663" lon="2.51072">
        <ele>771.59</ele>
        <time>2021-07-31T08:26:36Z</time>
      </trkpt>
      <trkpt lat="42.2863" lon="2.50995">
        <ele>772.34</ele>
        <time>2021-07-31T08:26:40Z</time>
      </trkpt>
      <trkpt lat="42.28532" lon="2.50871">
        <ele>774.29</ele>
        <time>2021-07-31T08:26:48Z</time>
      </trkpt>
      <trkpt lat="42.28469" lon="2.5085">
        <ele>774.64</ele>
        <time>2021-07-31T08:26:52Z</time>
      </trkpt>
      <trkpt lat="42.28319" lon="2.50831">
        <ele>775.46</ele>
        <time>2021-07-31T08:27:01Z</time>
      </trkpt>
      <trkpt lat="42.28291" lon="2.50774">
        <ele>775.3</ele>
        <time>2021-07-31T08:27:06Z</time>
      </trkpt>
      <trkpt lat="42.28328" lon="2.50718">
        <ele>774.97</ele>
        <time>2021-07-31T08:27:10Z</time>
      </trkpt>
      <trkpt lat="42.28339" lon="2.50706">
        <ele>774.96</ele>
        <time>2021-07-31T08:27:11Z</time>
      </trkpt>
      <trkpt lat="42.28383" lon="2.5066">
        <ele>775.34</ele>
        <time>2021-07-31T08:27:15Z</time>
      </trkpt>
      <trkpt lat="42.28427" lon="2.50647">
        <ele>775.67</ele>
        <time>2021-07-31T08:27:19Z</time>
      </trkpt>
      <trkpt lat="42.28451" lon="2.50644">
        <ele>775.87</ele>
        <time>2021-07-31T08:27:21Z</time>
      </trkpt>
      <trkpt lat="42.28526" lon="2.50612">
        <ele>776.9</ele>
        <time>2021-07-31T08:27:27Z</time>
      </trkpt>
      <trkpt lat="42.28571" lon="2.50537">
        <ele>777.92</ele>
        <time>2021-07-31T08:27:33Z</time>
      </trkpt>
      <trkpt lat="42.28572" lon="2.5052">
        <ele>778.04</ele>
        <time>2021-07-31T08:27:34Z</time>
      </trkpt>
      <trkpt lat="42.28576" lon="2.50353">
        <ele>779.57</ele>
        <time>2021-07-31T08:27:42Z</time>
      </trkpt>
      <trkpt lat="42.28531" lon="2.50213">
        <ele>780.62</ele>
        <time>2021-07-31T08:27:49Z</time>
      </trkpt>
      <trkpt lat="42.28492" lon="2.50155">
        <ele>780.67</ele>
        <time>2021-07-31T08:27:53Z</time>
      </trkpt>
      <trkpt lat="42.285" lon="2.50095">
        <ele>780.39</ele>
        <time>2021-07-31T08:27:58Z</time>
      </trkpt>
      <trkpt lat="42.28508" lon="2.50084">
        <ele>780.34</ele>
        <time>2021-07-31T08:27:59Z</time>
      </trkpt>
      <trkpt lat="42.28547" lon="2.50022">
        <ele>780.24</ele>
        <time>2021-07-31T08:28:04Z</time>
      </trkpt>
      <trkpt lat="42.28563" lon="2.49931">
        <ele>780.3</ele>
        <time>2021-07-31T08:28:10Z</time>
      </trkpt>
      <trkpt lat="42.28594" lon="2.49873">
        <ele>780.43</ele>
        <time>2021-07-31T08:28:14Z</time>
      </trkpt>
      <trkpt lat="42.28729" lon="2.49741">
        <ele>782.66</ele>
        <time>2021-07-31T08:28:24Z</time>
      </trkpt>
      <trkpt lat="42.28782" lon="2.49696">
        <ele>783.54</ele>
        <time>2021-07-31T08:28:28Z</time>
      </trkpt>
      <trkpt lat="42.2879" lon="2.49633">
        <ele>784.07</ele>
        <time>2021-07-31T08:28:33Z</time>
      </trkpt>
      <trkpt lat="42.28729" lon="2.49594">
        <ele>784.95</ele>
        <time>2021-07-31T08:28:38Z</time>
      </trkpt>
      <trkpt lat="42.28714" lon="2.49592">
        <ele>785.14</ele>
        <time>2021-07-31T08:28:39Z</time>
      </trkpt>
      <trkpt lat="42.28659" lon="2.49585">
        <ele>786.18</ele>
        <time>2021-07-31T08:28:43Z</time>
      </trkpt>
      <trkpt lat="42.28627" lon="2.49547">
        <ele>786.74</ele>
        <time>2021-07-31T08:28:48Z</time>
      </trkpt>
      <trkpt lat="42.28645" lon="2.49489">
        <ele>787.35</ele>
        <time>2021-07-31T08:28:53Z</time>
      </trkpt>
      <trkpt lat="42.28638" lon="2.49453">
        <ele>787.89</ele>
        <time>2021-07-31T08:28:56Z</time>
      </trkpt>
      <trkpt lat="42.28613" lon="2.49395">
        <ele>788.77</ele>
        <time>2021-07-31T08:29:01Z</time>
      </trkpt>
      <trkpt lat="42.28622" lon="2.49314">
        <ele>790.38</ele>
        <time>2021-07-31T08:29:08Z</time>
      </trkpt>
      <trkpt lat="42.28656" lon="2.4927">
        <ele>791.06</ele>
        <time>2021-07-31T08:29:12Z</time>
      </trkpt>
      <trkpt lat="42.28706" lon="2.49231">
        <ele>791.37</ele>
        <time>2021-07-31T08:29:16Z</time>
      </trkpt>
      <trkpt lat="42.28765" lon="2.49245">
        <ele>790.64</ele>
        <time>2021-07-31T08:29:22Z</time>
      </trkpt>
      <trkpt lat="42.2876" lon="2.4931">
        <ele>789.6</ele>
        <time>2021-07-31T08:29:26Z</time>
      </trkpt>
      <trkpt lat="42.28784" lon="2.49352">
        <ele>788.89</ele>
        <time>2021-07-31T08:29:30Z</time>
      </trkpt>
      <trkpt lat="42.28837" lon="2.49328">
        <ele>787.45</ele>
        <time>2021-07-31T08:29:35Z</time>
      </trkpt>
      <trkpt lat="42.28869" lon="2.49284">
        <ele>786.57</ele>
        <time>2021-07-31T08:29:38Z</time>
      </trkpt>
      <trkpt lat="42.28917" lon="2.49177">
        <ele>784.7</ele>
        <time>2021-07-31T08:29:44Z</time>
      </trkpt>
      <trkpt lat="42.29002" lon="2.49051">
        <ele>782.12</ele>
        <time>2021-07-31T08:29:52Z</time>
      </trkpt>
      <trkpt lat="42.29034" lon="2.4899">
        <ele>781.41</ele>
        <time>2021-07-31T08:29:56Z</time>
      </trkpt>
      <trkpt lat="42.29073" lon="2.48824">
        <ele>780.02</ele>
        <time>2021-07-31T08:30:04Z</time>
      </trkpt>
      <trkpt lat="42.29083" lon="2.48768">
        <ele>779.18</ele>
        <time>2021-07-31T08:30:07Z</time>
      </trkpt>
      <trkpt lat="42.29055" lon="2.48683">
        <ele>776.26</ele>
        <time>2021-07-31T08:30:13Z</time>
      </trkpt>
      <trkpt lat="42.29042" lon="2.4868">
        <ele>775.52</ele>
        <time>2021-07-31T08:30:14Z</time>
      </trkpt>
      <trkpt lat="42.29007" lon="2.48628">
        <ele>770.42</ele>
        <time>2021-07-31T08:30:20Z</time>
      </trkpt>
      <trkpt lat="42.29016" lon="2.48601">
        <ele>768.94</ele>
        <time>2021-07-31T08:30:22Z</time>
      </trkpt>
      <trkpt lat="42.29028" lon="2.48574">
        <ele>767.75</ele>
        <time>2021-07-31T08:30:24Z</time>
      </trkpt>
      <trkpt lat="42.29074" lon="2.48504">
        <ele>764.68</ele>
        <time>2021-07-31T08:30:31Z</time>
      </trkpt>
      <trkpt lat="42.29067" lon="2.48466">
        <ele>762.93</ele>
        <time>2021-07-31T08:30:36Z</time>
      </trkpt>
      <trkpt lat="42.29052" lon="2.48446">
        <ele>762.16</ele>
        <time>2021-07-31T08:30:38Z</time>
      </trkpt>
      <trkpt lat="42.29028" lon="2.48383">
        <ele>760.46</ele>
        <time>2021-07-31T08:30:42Z</time>
      </trkpt>
      <trkpt lat="42.28996" lon="2.48265">
        <ele>756.79</ele>
        <time>2021-07-31T08:30:48Z</time>
      </trkpt>
      <trkpt lat="42.2898" lon="2.48211">
        <ele>753.28</ele>
        <time>2021-07-31T08:30:51Z</time>
      </trkpt>
      <trkpt lat="42.28946" lon="2.48173">
        <ele>749.21</ele>
        <time>2021-07-31T08:30:55Z</time>
      </trkpt>
      <trkpt lat="42.28909" lon="2.48177">
        <ele>746.51</ele>
        <time>2021-07-31T08:30:58Z</time>
      </trkpt>
      <trkpt lat="42.28849" lon="2.48148">
        <ele>741.25</ele>
        <time>2021-07-31T08:31:04Z</time>
      </trkpt>
      <trkpt lat="42.28835" lon="2.48068">
        <ele>738.48</ele>
        <time>2021-07-31T08:31:10Z</time>
      </trkpt>
      <trkpt lat="42.28853" lon="2.48027">
        <ele>738.27</ele>
        <time>2021-07-31T08:31:13Z</time>
      </trkpt>
      <trkpt lat="42.28867" lon="2.47999">
        <ele>738.46</ele>
        <time>2021-07-31T08:31:15Z</time>
      </trkpt>
      <trkpt lat="42.28926" lon="2.47922">
        <ele>740.93</ele>
        <time>2021-07-31T08:31:23Z</time>
      </trkpt>
      <trkpt lat="42.28926" lon="2.47906">
        <ele>741.39</ele>
        <time>2021-07-31T08:31:24Z</time>
      </trkpt>
      <trkpt lat="42.28923" lon="2.47794">
        <ele>745.37</ele>
        <time>2021-07-31T08:31:31Z</time>
      </trkpt>
      <trkpt lat="42.28923" lon="2.47756">
        <ele>746.92</ele>
        <time>2021-07-31T08:31:34Z</time>
      </trkpt>
      <trkpt lat="42.28962" lon="2.47683">
        <ele>749.86</ele>
        <time>2021-07-31T08:31:42Z</time>
      </trkpt>
      <trkpt lat="42.28942" lon="2.47649">
        <ele>751.12</ele>
        <time>2021-07-31T08:31:47Z</time>
      </trkpt>
      <trkpt lat="42.28931" lon="2.47649">
        <ele>751.33</ele>
        <time>2021-07-31T08:31:48Z</time>
      </trkpt>
      <trkpt lat="42.2887" lon="2.47631">
        <ele>751.29</ele>
        <time>2021-07-31T08:31:53Z</time>
      </trkpt>
      <trkpt lat="42.28783" lon="2.47625">
        <ele>747.63</ele>
        <time>2021-07-31T08:32:00Z</time>
      </trkpt>
      <trkpt lat="42.28745" lon="2.4759">
        <ele>743.97</ele>
        <time>2021-07-31T08:32:04Z</time>
      </trkpt>
      <trkpt lat="42.28721" lon="2.47572">
        <ele>742.38</ele>
        <time>2021-07-31T08:32:06Z</time>
      </trkpt>
      <trkpt lat="42.28672" lon="2.47536">
        <ele>737.57</ele>
        <time>2021-07-31T08:32:11Z</time>
      </trkpt>
      <trkpt lat="42.28698" lon="2.47482">
        <ele>732.69</ele>
        <time>2021-07-31T08:32:16Z</time>
      </trkpt>
      <trkpt lat="42.28721" lon="2.47477">
        <ele>731.08</ele>
        <time>2021-07-31T08:32:18Z</time>
      </trkpt>
      <trkpt lat="42.28744" lon="2.47477">
        <ele>729.79</ele>
        <time>2021-07-31T08:32:20Z</time>
      </trkpt>
      <trkpt lat="42.2879" lon="2.47456">
        <ele>727.58</ele>
        <time>2021-07-31T08:32:24Z</time>
      </trkpt>
      <trkpt lat="42.28835" lon="2.47417">
        <ele>725.22</ele>
        <time>2021-07-31T08:32:28Z</time>
      </trkpt>
      <trkpt lat="42.28845" lon="2.47393">
        <ele>722.36</ele>
        <time>2021-07-31T08:32:33Z</time>
      </trkpt>
      <trkpt lat="42.28849" lon="2.47355">
        <ele>720.3</ele>
        <time>2021-07-31T08:32:46Z</time>
      </trkpt>
      <trkpt lat="42.28866" lon="2.47321">
        <ele>723.66</ele>
        <time>2021-07-31T08:32:56Z</time>
      </trkpt>
      <trkpt lat="42.28869" lon="2.47293">
        <ele>726.87</ele>
        <time>2021-07-31T08:33:03Z</time>
      </trkpt>
      <trkpt lat="42.28869" lon="2.47267">
        <ele>730.17</ele>
        <time>2021-07-31T08:33:11Z</time>
      </trkpt>
      <trkpt lat="42.28867" lon="2.47248">
        <ele>733.18</ele>
        <time>2021-07-31T08:33:19Z</time>
      </trkpt>
      <trkpt lat="42.28858" lon="2.47217">
        <ele>736.34</ele>
        <time>2021-07-31T08:33:29Z</time>
      </trkpt>
      <trkpt lat="42.2886" lon="2.47189">
        <ele>739.68</ele>
        <time>2021-07-31T08:33:38Z</time>
      </trkpt>
      <trkpt lat="42.28854" lon="2.47171">
        <ele>742.77</ele>
        <time>2021-07-31T08:33:46Z</time>
      </trkpt>
      <trkpt lat="42.28843" lon="2.47163">
        <ele>744.49</ele>
        <time>2021-07-31T08:33:51Z</time>
      </trkpt>
      <trkpt lat="42.2884" lon="2.47175">
        <ele>746.71</ele>
        <time>2021-07-31T08:33:58Z</time>
      </trkpt>
      <trkpt lat="42.28839" lon="2.47203">
        <ele>749.73</ele>
        <time>2021-07-31T08:34:09Z</time>
      </trkpt>
      <trkpt lat="42.28835" lon="2.47214">
        <ele>751.26</ele>
        <time>2021-07-31T08:34:13Z</time>
      </trkpt>
      <trkpt lat="42.28824" lon="2.47207">
        <ele>753.41</ele>
        <time>2021-07-31T08:34:19Z</time>
      </trkpt>
      <trkpt lat="42.28807" lon="2.47186">
        <ele>756.78</ele>
        <time>2021-07-31T08:34:28Z</time>
      </trkpt>
      <trkpt lat="42.28792" lon="2.47183">
        <ele>758.94</ele>
        <time>2021-07-31T08:34:33Z</time>
      </trkpt>
      <trkpt lat="42.28767" lon="2.47169">
        <ele>762.84</ele>
        <time>2021-07-31T08:34:42Z</time>
      </trkpt>
      <trkpt lat="42.28748" lon="2.47156">
        <ele>766.03</ele>
        <time>2021-07-31T08:34:48Z</time>
      </trkpt>
      <trkpt lat="42.2873" lon="2.4714">
        <ele>769.25</ele>
        <time>2021-07-31T08:34:54Z</time>
      </trkpt>
      <trkpt lat="42.28707" lon="2.47119">
        <ele>772.71</ele>
        <time>2021-07-31T08:35:00Z</time>
      </trkpt>
      <trkpt lat="42.28691" lon="2.47112">
        <ele>775.85</ele>
        <time>2021-07-31T08:35:05Z</time>
      </trkpt>
      <trkpt lat="42.28674" lon="2.47111">
        <ele>779.12</ele>
        <time>2021-07-31T08:35:11Z</time>
      </trkpt>
      <trkpt lat="42.28658" lon="2.47115">
        <ele>782.38</ele>
        <time>2021-07-31T08:35:18Z</time>
      </trkpt>
      <trkpt lat="42.28653" lon="2.47115">
        <ele>783.17</ele>
        <time>2021-07-31T08:35:20Z</time>
      </trkpt>
      <trkpt lat="42.28646" lon="2.47105">
        <ele>784.35</ele>
        <time>2021-07-31T08:35:24Z</time>
      </trkpt>
      <trkpt lat="42.28633" lon="2.47063">
        <ele>787.58</ele>
        <time>2021-07-31T08:35:36Z</time>
      </trkpt>
      <trkpt lat="42.28616" lon="2.47025">
        <ele>790.6</ele>
        <time>2021-07-31T08:35:46Z</time>
      </trkpt>
      <trkpt lat="42.28599" lon="2.46979">
        <ele>793.65</ele>
        <time>2021-07-31T08:35:57Z</time>
      </trkpt>
      <trkpt lat="42.28589" lon="2.46923">
        <ele>796.79</ele>
        <time>2021-07-31T08:36:07Z</time>
      </trkpt>
      <trkpt lat="42.28596" lon="2.46886">
        <ele>799.63</ele>
        <time>2021-07-31T08:36:18Z</time>
      </trkpt>
      <trkpt lat="42.28605" lon="2.46858">
        <ele>802.34</ele>
        <time>2021-07-31T08:36:31Z</time>
      </trkpt>
      <trkpt lat="42.2862" lon="2.46828">
        <ele>805.47</ele>
        <time>2021-07-31T08:36:42Z</time>
      </trkpt>
      <trkpt lat="42.28622" lon="2.46819">
        <ele>808.49</ele>
        <time>2021-07-31T08:36:56Z</time>
      </trkpt>
      <trkpt lat="42.28624" lon="2.46793">
        <ele>811.22</ele>
        <time>2021-07-31T08:37:20Z</time>
      </trkpt>
      <trkpt lat="42.28626" lon="2.46771">
        <ele>814.28</ele>
        <time>2021-07-31T08:37:32Z</time>
      </trkpt>
      <trkpt lat="42.28624" lon="2.46748">
        <ele>817.34</ele>
        <time>2021-07-31T08:37:45Z</time>
      </trkpt>
      <trkpt lat="42.28623" lon="2.46725">
        <ele>820.44</ele>
        <time>2021-07-31T08:37:59Z</time>
      </trkpt>
      <trkpt lat="42.28614" lon="2.467">
        <ele>823.56</ele>
        <time>2021-07-31T08:38:13Z</time>
      </trkpt>
      <trkpt lat="42.28596" lon="2.46679">
        <ele>826.72</ele>
        <time>2021-07-31T08:38:27Z</time>
      </trkpt>
      <trkpt lat="42.28575" lon="2.46652">
        <ele>829.97</ele>
        <time>2021-07-31T08:38:37Z</time>
      </trkpt>
      <trkpt lat="42.28555" lon="2.46623">
        <ele>833.19</ele>
        <time>2021-07-31T08:38:46Z</time>
      </trkpt>
      <trkpt lat="42.28543" lon="2.46596">
        <ele>835.58</ele>
        <time>2021-07-31T08:38:51Z</time>
      </trkpt>
      <trkpt lat="42.28534" lon="2.46561">
        <ele>839.11</ele>
        <time>2021-07-31T08:38:57Z</time>
      </trkpt>
      <trkpt lat="42.28527" lon="2.46528">
        <ele>843.06</ele>
        <time>2021-07-31T08:39:03Z</time>
      </trkpt>
      <trkpt lat="42.28523" lon="2.46502">
        <ele>846.35</ele>
        <time>2021-07-31T08:39:08Z</time>
      </trkpt>
      <trkpt lat="42.28534" lon="2.46474">
        <ele>849.84</ele>
        <time>2021-07-31T08:39:14Z</time>
      </trkpt>
      <trkpt lat="42.28548" lon="2.46443">
        <ele>853</ele>
        <time>2021-07-31T08:39:20Z</time>
      </trkpt>
      <trkpt lat="42.28556" lon="2.46414">
        <ele>856.3</ele>
        <time>2021-07-31T08:39:27Z</time>
      </trkpt>
      <trkpt lat="42.28561" lon="2.46381">
        <ele>859.37</ele>
        <time>2021-07-31T08:39:36Z</time>
      </trkpt>
      <trkpt lat="42.28563" lon="2.46339">
        <ele>862.51</ele>
        <time>2021-07-31T08:39:47Z</time>
      </trkpt>
      <trkpt lat="42.28566" lon="2.463">
        <ele>865.61</ele>
        <time>2021-07-31T08:39:56Z</time>
      </trkpt>
      <trkpt lat="42.28571" lon="2.46267">
        <ele>868.79</ele>
        <time>2021-07-31T08:40:04Z</time>
      </trkpt>
      <trkpt lat="42.28575" lon="2.46242">
        <ele>871.8</ele>
        <time>2021-07-31T08:40:11Z</time>
      </trkpt>
      <trkpt lat="42.2858" lon="2.46214">
        <ele>875.01</ele>
        <time>2021-07-31T08:40:18Z</time>
      </trkpt>
      <trkpt lat="42.28589" lon="2.4618">
        <ele>878.27</ele>
        <time>2021-07-31T08:40:26Z</time>
      </trkpt>
      <trkpt lat="42.28597" lon="2.4617">
        <ele>879.54</ele>
        <time>2021-07-31T08:40:29Z</time>
      </trkpt>
      <trkpt lat="42.28615" lon="2.46178">
        <ele>881.68</ele>
        <time>2021-07-31T08:40:34Z</time>
      </trkpt>
      <trkpt lat="42.28639" lon="2.46187">
        <ele>885</ele>
        <time>2021-07-31T08:40:45Z</time>
      </trkpt>
      <trkpt lat="42.28655" lon="2.46196">
        <ele>888.07</ele>
        <time>2021-07-31T08:41:03Z</time>
      </trkpt>
      <trkpt lat="42.28679" lon="2.46219">
        <ele>891.06</ele>
        <time>2021-07-31T08:41:20Z</time>
      </trkpt>
      <trkpt lat="42.2869" lon="2.46229">
        <ele>893.78</ele>
        <time>2021-07-31T08:41:35Z</time>
      </trkpt>
      <trkpt lat="42.28704" lon="2.46239">
        <ele>895.44</ele>
        <time>2021-07-31T08:41:57Z</time>
      </trkpt>
      <trkpt lat="42.28719" lon="2.46251">
        <ele>897.89</ele>
        <time>2021-07-31T08:42:10Z</time>
      </trkpt>
      <trkpt lat="42.28739" lon="2.46245">
        <ele>900.85</ele>
        <time>2021-07-31T08:42:27Z</time>
      </trkpt>
      <trkpt lat="42.28753" lon="2.46216">
        <ele>903.33</ele>
        <time>2021-07-31T08:42:41Z</time>
      </trkpt>
      <trkpt lat="42.28765" lon="2.4619">
        <ele>906.36</ele>
        <time>2021-07-31T08:42:54Z</time>
      </trkpt>
      <trkpt lat="42.28766" lon="2.46157">
        <ele>909.47</ele>
        <time>2021-07-31T08:43:09Z</time>
      </trkpt>
      <trkpt lat="42.28766" lon="2.46132">
        <ele>912</ele>
        <time>2021-07-31T08:43:23Z</time>
      </trkpt>
      <trkpt lat="42.28757" lon="2.46097">
        <ele>914.66</ele>
        <time>2021-07-31T08:43:40Z</time>
      </trkpt>
      <trkpt lat="42.28746" lon="2.4606">
        <ele>917.57</ele>
        <time>2021-07-31T08:43:54Z</time>
      </trkpt>
      <trkpt lat="42.28752" lon="2.46024">
        <ele>920.58</ele>
        <time>2021-07-31T08:44:07Z</time>
      </trkpt>
      <trkpt lat="42.2876" lon="2.45984">
        <ele>923.34</ele>
        <time>2021-07-31T08:44:20Z</time>
      </trkpt>
      <trkpt lat="42.28752" lon="2.45956">
        <ele>923.46</ele>
        <time>2021-07-31T08:44:36Z</time>
      </trkpt>
      <trkpt lat="42.28741" lon="2.45937">
        <ele>922.19</ele>
        <time>2021-07-31T08:44:49Z</time>
      </trkpt>
      <trkpt lat="42.2872" lon="2.45905">
        <ele>920.78</ele>
        <time>2021-07-31T08:45:04Z</time>
      </trkpt>
      <trkpt lat="42.28693" lon="2.4586">
        <ele>920.25</ele>
        <time>2021-07-31T08:45:17Z</time>
      </trkpt>
      <trkpt lat="42.28669" lon="2.45812">
        <ele>919.96</ele>
        <time>2021-07-31T08:45:29Z</time>
      </trkpt>
      <trkpt lat="42.28662" lon="2.45779">
        <ele>920.15</ele>
        <time>2021-07-31T08:45:39Z</time>
      </trkpt>
      <trkpt lat="42.28652" lon="2.45753">
        <ele>920.79</ele>
        <time>2021-07-31T08:45:50Z</time>
      </trkpt>
      <trkpt lat="42.28652" lon="2.45753">
        <ele>920.93</ele>
        <time>2021-07-31T08:46:11Z</time>
      </trkpt>
      <trkpt lat="42.28645" lon="2.45733">
        <ele>921.18</ele>
        <time>2021-07-31T08:46:54Z</time>
      </trkpt>
      <trkpt lat="42.28643" lon="2.45731">
        <ele>921.23</ele>
        <time>2021-07-31T08:47:12Z</time>
      </trkpt>
      <trkpt lat="42.28634" lon="2.45701">
        <ele>921.5</ele>
        <time>2021-07-31T08:47:30Z</time>
      </trkpt>
      <trkpt lat="42.28621" lon="2.45658">
        <ele>923.32</ele>
        <time>2021-07-31T08:47:45Z</time>
      </trkpt>
      <trkpt lat="42.28605" lon="2.45612">
        <ele>926.17</ele>
        <time>2021-07-31T08:47:59Z</time>
      </trkpt>
      <trkpt lat="42.28592" lon="2.4557">
        <ele>929.11</ele>
        <time>2021-07-31T08:48:11Z</time>
      </trkpt>
      <trkpt lat="42.28578" lon="2.45517">
        <ele>932.36</ele>
        <time>2021-07-31T08:48:23Z</time>
      </trkpt>
      <trkpt lat="42.28574" lon="2.45471">
        <ele>935.47</ele>
        <time>2021-07-31T08:48:32Z</time>
      </trkpt>
      <trkpt lat="42.28579" lon="2.45435">
        <ele>938.66</ele>
        <time>2021-07-31T08:48:40Z</time>
      </trkpt>
      <trkpt lat="42.28593" lon="2.45402">
        <ele>941.9</ele>
        <time>2021-07-31T08:48:49Z</time>
      </trkpt>
      <trkpt lat="42.28618" lon="2.45373">
        <ele>945.18</ele>
        <time>2021-07-31T08:48:58Z</time>
      </trkpt>
      <trkpt lat="42.28648" lon="2.45309">
        <ele>948.07</ele>
        <time>2021-07-31T08:49:08Z</time>
      </trkpt>
      <trkpt lat="42.28657" lon="2.45289">
        <ele>947.78</ele>
        <time>2021-07-31T08:49:16Z</time>
      </trkpt>
      <trkpt lat="42.28667" lon="2.45281">
        <ele>947.23</ele>
        <time>2021-07-31T08:50:10Z</time>
      </trkpt>
      <trkpt lat="42.28668" lon="2.45281">
        <ele>947.19</ele>
        <time>2021-07-31T08:50:11Z</time>
      </trkpt>
      <trkpt lat="42.28673" lon="2.45283">
        <ele>947.1</ele>
        <time>2021-07-31T08:50:16Z</time>
      </trkpt>
      <trkpt lat="42.28676" lon="2.45286">
        <ele>947.31</ele>
        <time>2021-07-31T08:50:23Z</time>
      </trkpt>
      <trkpt lat="42.28679" lon="2.45298">
        <ele>947.44</ele>
        <time>2021-07-31T08:50:27Z</time>
      </trkpt>
      <trkpt lat="42.28692" lon="2.45332">
        <ele>948.81</ele>
        <time>2021-07-31T08:50:38Z</time>
      </trkpt>
      <trkpt lat="42.28698" lon="2.45327">
        <ele>950.29</ele>
        <time>2021-07-31T08:50:58Z</time>
      </trkpt>
      <trkpt lat="42.28692" lon="2.45276">
        <ele>953.6</ele>
        <time>2021-07-31T08:51:13Z</time>
      </trkpt>
      <trkpt lat="42.2868" lon="2.45234">
        <ele>956.64</ele>
        <time>2021-07-31T08:51:24Z</time>
      </trkpt>
      <trkpt lat="42.28691" lon="2.45236">
        <ele>958.9</ele>
        <time>2021-07-31T08:51:32Z</time>
      </trkpt>
      <trkpt lat="42.28709" lon="2.45287">
        <ele>962.3</ele>
        <time>2021-07-31T08:51:46Z</time>
      </trkpt>
      <trkpt lat="42.28722" lon="2.45337">
        <ele>965.4</ele>
        <time>2021-07-31T08:51:58Z</time>
      </trkpt>
      <trkpt lat="42.28726" lon="2.45374">
        <ele>968.47</ele>
        <time>2021-07-31T08:52:11Z</time>
      </trkpt>
      <trkpt lat="42.28732" lon="2.45397">
        <ele>970.23</ele>
        <time>2021-07-31T08:52:26Z</time>
      </trkpt>
      <trkpt lat="42.28733" lon="2.45407">
        <ele>971.2</ele>
        <time>2021-07-31T08:52:40Z</time>
      </trkpt>
      <trkpt lat="42.28732" lon="2.45413">
        <ele>971.4</ele>
        <time>2021-07-31T08:52:44Z</time>
      </trkpt>
      <trkpt lat="42.28736" lon="2.45416">
        <ele>971.65</ele>
        <time>2021-07-31T08:52:47Z</time>
      </trkpt>
      <trkpt lat="42.28747" lon="2.4544">
        <ele>973.74</ele>
        <time>2021-07-31T08:53:02Z</time>
      </trkpt>
      <trkpt lat="42.28771" lon="2.45458">
        <ele>975.53</ele>
        <time>2021-07-31T08:53:14Z</time>
      </trkpt>
      <trkpt lat="42.28793" lon="2.45497">
        <ele>977.79</ele>
        <time>2021-07-31T08:53:26Z</time>
      </trkpt>
      <trkpt lat="42.28825" lon="2.45517">
        <ele>979.08</ele>
        <time>2021-07-31T08:53:38Z</time>
      </trkpt>
      <trkpt lat="42.28845" lon="2.45533">
        <ele>979.55</ele>
        <time>2021-07-31T08:53:48Z</time>
      </trkpt>
      <trkpt lat="42.2887" lon="2.45542">
        <ele>980.14</ele>
        <time>2021-07-31T08:53:53Z</time>
      </trkpt>
      <trkpt lat="42.2892" lon="2.45536">
        <ele>981.55</ele>
        <time>2021-07-31T08:54:08Z</time>
      </trkpt>
      <trkpt lat="42.28961" lon="2.45519">
        <ele>983.54</ele>
        <time>2021-07-31T08:54:22Z</time>
      </trkpt>
      <trkpt lat="42.28987" lon="2.45491">
        <ele>985.67</ele>
        <time>2021-07-31T08:54:33Z</time>
      </trkpt>
      <trkpt lat="42.29021" lon="2.45459">
        <ele>988.75</ele>
        <time>2021-07-31T08:54:48Z</time>
      </trkpt>
      <trkpt lat="42.29051" lon="2.45426">
        <ele>991.33</ele>
        <time>2021-07-31T08:55:00Z</time>
      </trkpt>
      <trkpt lat="42.29086" lon="2.45392">
        <ele>994.45</ele>
        <time>2021-07-31T08:55:12Z</time>
      </trkpt>
      <trkpt lat="42.29122" lon="2.4537">
        <ele>996.35</ele>
        <time>2021-07-31T08:55:20Z</time>
      </trkpt>
      <trkpt lat="42.29166" lon="2.45325">
        <ele>999.62</ele>
        <time>2021-07-31T08:55:30Z</time>
      </trkpt>
      <trkpt lat="42.29189" lon="2.45282">
        <ele>1002.43</ele>
        <time>2021-07-31T08:55:42Z</time>
      </trkpt>
      <trkpt lat="42.29216" lon="2.45245">
        <ele>1005.02</ele>
        <time>2021-07-31T08:55:53Z</time>
      </trkpt>
      <trkpt lat="42.29222" lon="2.45206">
        <ele>1007.5</ele>
        <time>2021-07-31T08:56:05Z</time>
      </trkpt>
      <trkpt lat="42.29251" lon="2.45179">
        <ele>1009.78</ele>
        <time>2021-07-31T08:56:16Z</time>
      </trkpt>
      <trkpt lat="42.29276" lon="2.45125">
        <ele>1012.73</ele>
        <time>2021-07-31T08:56:28Z</time>
      </trkpt>
      <trkpt lat="42.29295" lon="2.45068">
        <ele>1015.42</ele>
        <time>2021-07-31T08:56:39Z</time>
      </trkpt>
      <trkpt lat="42.29296" lon="2.44998">
        <ele>1018.73</ele>
        <time>2021-07-31T08:56:52Z</time>
      </trkpt>
      <trkpt lat="42.29275" lon="2.44945">
        <ele>1021.46</ele>
        <time>2021-07-31T08:57:04Z</time>
      </trkpt>
      <trkpt lat="42.29246" lon="2.44901">
        <ele>1024.64</ele>
        <time>2021-07-31T08:57:16Z</time>
      </trkpt>
      <trkpt lat="42.29206" lon="2.44885">
        <ele>1027.71</ele>
        <time>2021-07-31T08:57:27Z</time>
      </trkpt>
      <trkpt lat="42.29167" lon="2.44873">
        <ele>1030.72</ele>
        <time>2021-07-31T08:57:38Z</time>
      </trkpt>
      <trkpt lat="42.29109" lon="2.44872">
        <ele>1033.57</ele>
        <time>2021-07-31T08:57:51Z</time>
      </trkpt>
      <trkpt lat="42.29059" lon="2.44876">
        <ele>1036.71</ele>
        <time>2021-07-31T08:58:03Z</time>
      </trkpt>
      <trkpt lat="42.29018" lon="2.44895">
        <ele>1039.8</ele>
        <time>2021-07-31T08:58:14Z</time>
      </trkpt>
      <trkpt lat="42.2897" lon="2.4491">
        <ele>1042.99</ele>
        <time>2021-07-31T08:58:26Z</time>
      </trkpt>
      <trkpt lat="42.28916" lon="2.44917">
        <ele>1046.1</ele>
        <time>2021-07-31T08:58:37Z</time>
      </trkpt>
      <trkpt lat="42.28898" lon="2.44917">
        <ele>1046.64</ele>
        <time>2021-07-31T08:58:39Z</time>
      </trkpt>
      <trkpt lat="42.28853" lon="2.44903">
        <ele>1048.9</ele>
        <time>2021-07-31T08:58:45Z</time>
      </trkpt>
      <trkpt lat="42.2881" lon="2.44893">
        <ele>1051.16</ele>
        <time>2021-07-31T08:58:51Z</time>
      </trkpt>
      <trkpt lat="42.2877" lon="2.44899">
        <ele>1053.78</ele>
        <time>2021-07-31T08:58:58Z</time>
      </trkpt>
      <trkpt lat="42.28749" lon="2.4489">
        <ele>1055.63</ele>
        <time>2021-07-31T08:59:02Z</time>
      </trkpt>
      <trkpt lat="42.28726" lon="2.4488">
        <ele>1059.5</ele>
        <time>2021-07-31T08:59:09Z</time>
      </trkpt>
      <trkpt lat="42.28698" lon="2.44874">
        <ele>1062.76</ele>
        <time>2021-07-31T08:59:16Z</time>
      </trkpt>
      <trkpt lat="42.28676" lon="2.44873">
        <ele>1066.09</ele>
        <time>2021-07-31T08:59:23Z</time>
      </trkpt>
      <trkpt lat="42.28666" lon="2.44872">
        <ele>1069.15</ele>
        <time>2021-07-31T08:59:32Z</time>
      </trkpt>
      <trkpt lat="42.2866" lon="2.44869">
        <ele>1071.51</ele>
        <time>2021-07-31T08:59:54Z</time>
      </trkpt>
      <trkpt lat="42.28656" lon="2.44866">
        <ele>1071.81</ele>
        <time>2021-07-31T09:00:03Z</time>
      </trkpt>
      <trkpt lat="42.28632" lon="2.44836">
        <ele>1074.77</ele>
        <time>2021-07-31T09:00:19Z</time>
      </trkpt>
      <trkpt lat="42.28605" lon="2.44808">
        <ele>1077.97</ele>
        <time>2021-07-31T09:00:30Z</time>
      </trkpt>
      <trkpt lat="42.28585" lon="2.44788">
        <ele>1081.06</ele>
        <time>2021-07-31T09:00:39Z</time>
      </trkpt>
      <trkpt lat="42.28569" lon="2.44775">
        <ele>1084.08</ele>
        <time>2021-07-31T09:00:47Z</time>
      </trkpt>
      <trkpt lat="42.28565" lon="2.44768">
        <ele>1085.5</ele>
        <time>2021-07-31T09:00:50Z</time>
      </trkpt>
      <trkpt lat="42.28543" lon="2.44733">
        <ele>1088.73</ele>
        <time>2021-07-31T09:01:03Z</time>
      </trkpt>
      <trkpt lat="42.28515" lon="2.44718">
        <ele>1090.83</ele>
        <time>2021-07-31T09:01:14Z</time>
      </trkpt>
      <trkpt lat="42.28495" lon="2.44712">
        <ele>1092.39</ele>
        <time>2021-07-31T09:01:49Z</time>
      </trkpt>
      <trkpt lat="42.28457" lon="2.44696">
        <ele>1093.71</ele>
        <time>2021-07-31T09:02:02Z</time>
      </trkpt>
      <trkpt lat="42.28444" lon="2.44692">
        <ele>1095.45</ele>
        <time>2021-07-31T09:02:14Z</time>
      </trkpt>
      <trkpt lat="42.28441" lon="2.44686">
        <ele>1095.75</ele>
        <time>2021-07-31T09:02:20Z</time>
      </trkpt>
      <trkpt lat="42.28447" lon="2.44644">
        <ele>1098.03</ele>
        <time>2021-07-31T09:02:34Z</time>
      </trkpt>
      <trkpt lat="42.28441" lon="2.44592">
        <ele>1100.78</ele>
        <time>2021-07-31T09:02:47Z</time>
      </trkpt>
      <trkpt lat="42.28437" lon="2.44571">
        <ele>1101.3</ele>
        <time>2021-07-31T09:02:50Z</time>
      </trkpt>
      <trkpt lat="42.28425" lon="2.44554">
        <ele>1101.66</ele>
        <time>2021-07-31T09:02:54Z</time>
      </trkpt>
      <trkpt lat="42.28395" lon="2.44516">
        <ele>1101.14</ele>
        <time>2021-07-31T09:03:05Z</time>
      </trkpt>
      <trkpt lat="42.28376" lon="2.44475">
        <ele>1101.43</ele>
        <time>2021-07-31T09:03:18Z</time>
      </trkpt>
      <trkpt lat="42.28361" lon="2.44413">
        <ele>1103.02</ele>
        <time>2021-07-31T09:03:30Z</time>
      </trkpt>
      <trkpt lat="42.28348" lon="2.44362">
        <ele>1104.65</ele>
        <time>2021-07-31T09:03:40Z</time>
      </trkpt>
      <trkpt lat="42.28335" lon="2.44314">
        <ele>1106.32</ele>
        <time>2021-07-31T09:03:49Z</time>
      </trkpt>
      <trkpt lat="42.2834" lon="2.44264">
        <ele>1107.27</ele>
        <time>2021-07-31T09:03:58Z</time>
      </trkpt>
      <trkpt lat="42.28345" lon="2.44241">
        <ele>1107.51</ele>
        <time>2021-07-31T09:04:02Z</time>
      </trkpt>
      <trkpt lat="42.28342" lon="2.44187">
        <ele>1106.88</ele>
        <time>2021-07-31T09:04:13Z</time>
      </trkpt>
      <trkpt lat="42.28341" lon="2.44138">
        <ele>1104.62</ele>
        <time>2021-07-31T09:04:23Z</time>
      </trkpt>
      <trkpt lat="42.28343" lon="2.44086">
        <ele>1101.43</ele>
        <time>2021-07-31T09:04:35Z</time>
      </trkpt>
      <trkpt lat="42.28347" lon="2.44033">
        <ele>1098.28</ele>
        <time>2021-07-31T09:04:46Z</time>
      </trkpt>
      <trkpt lat="42.28347" lon="2.43987">
        <ele>1095.77</ele>
        <time>2021-07-31T09:04:59Z</time>
      </trkpt>
      <trkpt lat="42.28359" lon="2.4395">
        <ele>1093.65</ele>
        <time>2021-07-31T09:05:09Z</time>
      </trkpt>
      <trkpt lat="42.28377" lon="2.43881">
        <ele>1091.14</ele>
        <time>2021-07-31T09:05:21Z</time>
      </trkpt>
      <trkpt lat="42.2838" lon="2.43874">
        <ele>1090.96</ele>
        <time>2021-07-31T09:05:22Z</time>
      </trkpt>
      <trkpt lat="42.28393" lon="2.43857">
        <ele>1090.54</ele>
        <time>2021-07-31T09:05:26Z</time>
      </trkpt>
      <trkpt lat="42.2841" lon="2.43801">
        <ele>1089.11</ele>
        <time>2021-07-31T09:05:39Z</time>
      </trkpt>
      <trkpt lat="42.28412" lon="2.43795">
        <ele>1089.08</ele>
        <time>2021-07-31T09:05:40Z</time>
      </trkpt>
      <trkpt lat="42.28422" lon="2.43776">
        <ele>1089.05</ele>
        <time>2021-07-31T09:05:43Z</time>
      </trkpt>
      <trkpt lat="42.28456" lon="2.43711">
        <ele>1091.06</ele>
        <time>2021-07-31T09:05:57Z</time>
      </trkpt>
      <trkpt lat="42.28464" lon="2.43692">
        <ele>1092.08</ele>
        <time>2021-07-31T09:06:01Z</time>
      </trkpt>
      <trkpt lat="42.28472" lon="2.43639">
        <ele>1095.63</ele>
        <time>2021-07-31T09:06:11Z</time>
      </trkpt>
      <trkpt lat="42.28472" lon="2.43597">
        <ele>1098.51</ele>
        <time>2021-07-31T09:06:23Z</time>
      </trkpt>
      <trkpt lat="42.28472" lon="2.43577">
        <ele>1098.62</ele>
        <time>2021-07-31T09:06:39Z</time>
      </trkpt>
      <trkpt lat="42.28471" lon="2.43579">
        <ele>1098.59</ele>
        <time>2021-07-31T09:06:40Z</time>
      </trkpt>
      <trkpt lat="42.2847" lon="2.43582">
        <ele>1098.56</ele>
        <time>2021-07-31T09:06:55Z</time>
      </trkpt>
      <trkpt lat="42.28472" lon="2.43561">
        <ele>1098.65</ele>
        <time>2021-07-31T09:07:01Z</time>
      </trkpt>
      <trkpt lat="42.28487" lon="2.43499">
        <ele>1097.99</ele>
        <time>2021-07-31T09:07:14Z</time>
      </trkpt>
      <trkpt lat="42.28497" lon="2.43465">
        <ele>1098.23</ele>
        <time>2021-07-31T09:07:25Z</time>
      </trkpt>
      <trkpt lat="42.28512" lon="2.43445">
        <ele>1099.12</ele>
        <time>2021-07-31T09:07:36Z</time>
      </trkpt>
      <trkpt lat="42.28515" lon="2.43438">
        <ele>1100.54</ele>
        <time>2021-07-31T09:07:46Z</time>
      </trkpt>
      <trkpt lat="42.2853" lon="2.43414">
        <ele>1101.41</ele>
        <time>2021-07-31T09:09:25Z</time>
      </trkpt>
      <trkpt lat="42.28565" lon="2.43376">
        <ele>1104.53</ele>
        <time>2021-07-31T09:09:36Z</time>
      </trkpt>
      <trkpt lat="42.28589" lon="2.43349">
        <ele>1107.62</ele>
        <time>2021-07-31T09:09:44Z</time>
      </trkpt>
      <trkpt lat="42.28606" lon="2.43335">
        <ele>1109.28</ele>
        <time>2021-07-31T09:09:49Z</time>
      </trkpt>
      <trkpt lat="42.28636" lon="2.43316">
        <ele>1112.84</ele>
        <time>2021-07-31T09:09:58Z</time>
      </trkpt>
      <trkpt lat="42.28662" lon="2.43307">
        <ele>1115.26</ele>
        <time>2021-07-31T09:10:05Z</time>
      </trkpt>
      <trkpt lat="42.28693" lon="2.43314">
        <ele>1118.66</ele>
        <time>2021-07-31T09:10:13Z</time>
      </trkpt>
      <trkpt lat="42.28711" lon="2.43297">
        <ele>1121.78</ele>
        <time>2021-07-31T09:10:22Z</time>
      </trkpt>
      <trkpt lat="42.28717" lon="2.43292">
        <ele>1124.04</ele>
        <time>2021-07-31T09:10:39Z</time>
      </trkpt>
      <trkpt lat="42.28722" lon="2.43286">
        <ele>1125.07</ele>
        <time>2021-07-31T09:10:57Z</time>
      </trkpt>
      <trkpt lat="42.28738" lon="2.43272">
        <ele>1125.98</ele>
        <time>2021-07-31T09:11:18Z</time>
      </trkpt>
      <trkpt lat="42.28756" lon="2.4325">
        <ele>1126.57</ele>
        <time>2021-07-31T09:11:24Z</time>
      </trkpt>
      <trkpt lat="42.28793" lon="2.43224">
        <ele>1125.67</ele>
        <time>2021-07-31T09:11:33Z</time>
      </trkpt>
      <trkpt lat="42.28812" lon="2.43195">
        <ele>1124.82</ele>
        <time>2021-07-31T09:11:38Z</time>
      </trkpt>
      <trkpt lat="42.28837" lon="2.43178">
        <ele>1123.48</ele>
        <time>2021-07-31T09:11:43Z</time>
      </trkpt>
      <trkpt lat="42.28863" lon="2.4317">
        <ele>1121.94</ele>
        <time>2021-07-31T09:11:48Z</time>
      </trkpt>
      <trkpt lat="42.28881" lon="2.43158">
        <ele>1120.59</ele>
        <time>2021-07-31T09:11:52Z</time>
      </trkpt>
      <trkpt lat="42.28915" lon="2.43109">
        <ele>1117.85</ele>
        <time>2021-07-31T09:12:00Z</time>
      </trkpt>
      <trkpt lat="42.28931" lon="2.43084">
        <ele>1116.57</ele>
        <time>2021-07-31T09:12:04Z</time>
      </trkpt>
      <trkpt lat="42.28938" lon="2.4307">
        <ele>1116.27</ele>
        <time>2021-07-31T09:12:06Z</time>
      </trkpt>
      <trkpt lat="42.28977" lon="2.4303">
        <ele>1114.64</ele>
        <time>2021-07-31T09:12:15Z</time>
      </trkpt>
      <trkpt lat="42.29006" lon="2.43005">
        <ele>1114.84</ele>
        <time>2021-07-31T09:12:26Z</time>
      </trkpt>
      <trkpt lat="42.29004" lon="2.42983">
        <ele>1115.08</ele>
        <time>2021-07-31T09:12:29Z</time>
      </trkpt>
      <trkpt lat="42.28967" lon="2.42904">
        <ele>1115.37</ele>
        <time>2021-07-31T09:12:39Z</time>
      </trkpt>
      <trkpt lat="42.28963" lon="2.42897">
        <ele>1115.37</ele>
        <time>2021-07-31T09:12:40Z</time>
      </trkpt>
      <trkpt lat="42.28946" lon="2.42877">
        <ele>1115.35</ele>
        <time>2021-07-31T09:12:44Z</time>
      </trkpt>
      <trkpt lat="42.28936" lon="2.42869">
        <ele>1115.3</ele>
        <time>2021-07-31T09:12:46Z</time>
      </trkpt>
      <trkpt lat="42.28914" lon="2.42838">
        <ele>1115.3</ele>
        <time>2021-07-31T09:12:51Z</time>
      </trkpt>
      <trkpt lat="42.28895" lon="2.42816">
        <ele>1115.3</ele>
        <time>2021-07-31T09:12:55Z</time>
      </trkpt>
      <trkpt lat="42.28883" lon="2.42795">
        <ele>1114.92</ele>
        <time>2021-07-31T09:12:59Z</time>
      </trkpt>
      <trkpt lat="42.28871" lon="2.42782">
        <ele>1114.53</ele>
        <time>2021-07-31T09:13:03Z</time>
      </trkpt>
      <trkpt lat="42.28863" lon="2.42773">
        <ele>1114.26</ele>
        <time>2021-07-31T09:13:06Z</time>
      </trkpt>
      <trkpt lat="42.28854" lon="2.42732">
        <ele>1113.88</ele>
        <time>2021-07-31T09:13:12Z</time>
      </trkpt>
      <trkpt lat="42.28849" lon="2.42716">
        <ele>1113.85</ele>
        <time>2021-07-31T09:13:14Z</time>
      </trkpt>
      <trkpt lat="42.28823" lon="2.42692">
        <ele>1113.58</ele>
        <time>2021-07-31T09:13:20Z</time>
      </trkpt>
      <trkpt lat="42.28806" lon="2.42689">
        <ele>1113.58</ele>
        <time>2021-07-31T09:13:23Z</time>
      </trkpt>
      <trkpt lat="42.28791" lon="2.42684">
        <ele>1113.64</ele>
        <time>2021-07-31T09:13:26Z</time>
      </trkpt>
      <trkpt lat="42.28743" lon="2.42657">
        <ele>1113.76</ele>
        <time>2021-07-31T09:13:38Z</time>
      </trkpt>
      <trkpt lat="42.2874" lon="2.42654">
        <ele>1113.73</ele>
        <time>2021-07-31T09:13:39Z</time>
      </trkpt>
      <trkpt lat="42.2874" lon="2.42625">
        <ele>1113.59</ele>
        <time>2021-07-31T09:13:44Z</time>
      </trkpt>
      <trkpt lat="42.2874" lon="2.42598">
        <ele>1113.6</ele>
        <time>2021-07-31T09:13:48Z</time>
      </trkpt>
      <trkpt lat="42.28737" lon="2.42544">
        <ele>1113.57</ele>
        <time>2021-07-31T09:14:00Z</time>
      </trkpt>
      <trkpt lat="42.2873" lon="2.42513">
        <ele>1113.52</ele>
        <time>2021-07-31T09:14:12Z</time>
      </trkpt>
      <trkpt lat="42.28738" lon="2.42465">
        <ele>1113.55</ele>
        <time>2021-07-31T09:14:25Z</time>
      </trkpt>
      <trkpt lat="42.28746" lon="2.42426">
        <ele>1113.77</ele>
        <time>2021-07-31T09:14:36Z</time>
      </trkpt>
      <trkpt lat="42.28751" lon="2.42374">
        <ele>1113.87</ele>
        <time>2021-07-31T09:14:47Z</time>
      </trkpt>
      <trkpt lat="42.28767" lon="2.42297">
        <ele>1114.11</ele>
        <time>2021-07-31T09:14:59Z</time>
      </trkpt>
      <trkpt lat="42.28767" lon="2.42291">
        <ele>1114.11</ele>
        <time>2021-07-31T09:15:00Z</time>
      </trkpt>
      <trkpt lat="42.28752" lon="2.42181">
        <ele>1114.11</ele>
        <time>2021-07-31T09:15:16Z</time>
      </trkpt>
      <trkpt lat="42.28738" lon="2.42133">
        <ele>1113.78</ele>
        <time>2021-07-31T09:15:28Z</time>
      </trkpt>
      <trkpt lat="42.28734" lon="2.42106">
        <ele>1113.87</ele>
        <time>2021-07-31T09:15:35Z</time>
      </trkpt>
      <trkpt lat="42.28712" lon="2.42062">
        <ele>1114.07</ele>
        <time>2021-07-31T09:15:45Z</time>
      </trkpt>
      <trkpt lat="42.28706" lon="2.41978">
        <ele>1114</ele>
        <time>2021-07-31T09:15:58Z</time>
      </trkpt>
      <trkpt lat="42.28706" lon="2.41931">
        <ele>1114.26</ele>
        <time>2021-07-31T09:16:06Z</time>
      </trkpt>
      <trkpt lat="42.28696" lon="2.41887">
        <ele>1115.29</ele>
        <time>2021-07-31T09:16:16Z</time>
      </trkpt>
      <trkpt lat="42.2866" lon="2.4184">
        <ele>1114.76</ele>
        <time>2021-07-31T09:16:27Z</time>
      </trkpt>
      <trkpt lat="42.28632" lon="2.41807">
        <ele>1113.84</ele>
        <time>2021-07-31T09:16:38Z</time>
      </trkpt>
      <trkpt lat="42.28605" lon="2.41787">
        <ele>1113.11</ele>
        <time>2021-07-31T09:17:03Z</time>
      </trkpt>
      <trkpt lat="42.28563" lon="2.41782">
        <ele>1111.44</ele>
        <time>2021-07-31T09:17:15Z</time>
      </trkpt>
      <trkpt lat="42.2852" lon="2.41781">
        <ele>1108.17</ele>
        <time>2021-07-31T09:17:28Z</time>
      </trkpt>
      <trkpt lat="42.28481" lon="2.4177">
        <ele>1105.21</ele>
        <time>2021-07-31T09:17:38Z</time>
      </trkpt>
      <trkpt lat="42.28449" lon="2.41763">
        <ele>1101.88</ele>
        <time>2021-07-31T09:17:46Z</time>
      </trkpt>
      <trkpt lat="42.28426" lon="2.41748">
        <ele>1099.05</ele>
        <time>2021-07-31T09:17:52Z</time>
      </trkpt>
      <trkpt lat="42.28419" lon="2.4174">
        <ele>1098.1</ele>
        <time>2021-07-31T09:17:54Z</time>
      </trkpt>
      <trkpt lat="42.28403" lon="2.41688">
        <ele>1094.38</ele>
        <time>2021-07-31T09:18:01Z</time>
      </trkpt>
      <trkpt lat="42.28403" lon="2.41674">
        <ele>1093.34</ele>
        <time>2021-07-31T09:18:03Z</time>
      </trkpt>
      <trkpt lat="42.2841" lon="2.41635">
        <ele>1090.82</ele>
        <time>2021-07-31T09:18:09Z</time>
      </trkpt>
      <trkpt lat="42.28408" lon="2.41605">
        <ele>1089.31</ele>
        <time>2021-07-31T09:18:13Z</time>
      </trkpt>
      <trkpt lat="42.28402" lon="2.41585">
        <ele>1088.49</ele>
        <time>2021-07-31T09:18:16Z</time>
      </trkpt>
      <trkpt lat="42.28388" lon="2.41515">
        <ele>1085.32</ele>
        <time>2021-07-31T09:18:27Z</time>
      </trkpt>
      <trkpt lat="42.28381" lon="2.41496">
        <ele>1083.97</ele>
        <time>2021-07-31T09:18:30Z</time>
      </trkpt>
      <trkpt lat="42.2837" lon="2.41444">
        <ele>1080.22</ele>
        <time>2021-07-31T09:18:37Z</time>
      </trkpt>
      <trkpt lat="42.28366" lon="2.41429">
        <ele>1079.15</ele>
        <time>2021-07-31T09:18:39Z</time>
      </trkpt>
      <trkpt lat="42.28373" lon="2.41397">
        <ele>1076.09</ele>
        <time>2021-07-31T09:18:45Z</time>
      </trkpt>
      <trkpt lat="42.28388" lon="2.41378">
        <ele>1074.27</ele>
        <time>2021-07-31T09:18:49Z</time>
      </trkpt>
      <trkpt lat="42.28424" lon="2.41354">
        <ele>1072.65</ele>
        <time>2021-07-31T09:18:55Z</time>
      </trkpt>
      <trkpt lat="42.28435" lon="2.41333">
        <ele>1072.04</ele>
        <time>2021-07-31T09:18:59Z</time>
      </trkpt>
      <trkpt lat="42.28437" lon="2.41239">
        <ele>1069.94</ele>
        <time>2021-07-31T09:19:12Z</time>
      </trkpt>
      <trkpt lat="42.28433" lon="2.41163">
        <ele>1069.39</ele>
        <time>2021-07-31T09:19:22Z</time>
      </trkpt>
      <trkpt lat="42.28451" lon="2.4107">
        <ele>1067.63</ele>
        <time>2021-07-31T09:19:34Z</time>
      </trkpt>
      <trkpt lat="42.28456" lon="2.41063">
        <ele>1067.27</ele>
        <time>2021-07-31T09:19:36Z</time>
      </trkpt>
      <trkpt lat="42.28495" lon="2.41066">
        <ele>1065.77</ele>
        <time>2021-07-31T09:19:47Z</time>
      </trkpt>
      <trkpt lat="42.28555" lon="2.4107">
        <ele>1065.95</ele>
        <time>2021-07-31T09:20:00Z</time>
      </trkpt>
      <trkpt lat="42.28567" lon="2.41073">
        <ele>1065.95</ele>
        <time>2021-07-31T09:20:03Z</time>
      </trkpt>
      <trkpt lat="42.28619" lon="2.41109">
        <ele>1064.69</ele>
        <time>2021-07-31T09:20:17Z</time>
      </trkpt>
      <trkpt lat="42.28646" lon="2.41119">
        <ele>1061.33</ele>
        <time>2021-07-31T09:20:26Z</time>
      </trkpt>
      <trkpt lat="42.2869" lon="2.41126">
        <ele>1058.34</ele>
        <time>2021-07-31T09:20:36Z</time>
      </trkpt>
      <trkpt lat="42.28738" lon="2.41139">
        <ele>1057.39</ele>
        <time>2021-07-31T09:20:47Z</time>
      </trkpt>
      <trkpt lat="42.28748" lon="2.4114">
        <ele>1057.42</ele>
        <time>2021-07-31T09:20:49Z</time>
      </trkpt>
      <trkpt lat="42.28798" lon="2.41137">
        <ele>1056.94</ele>
        <time>2021-07-31T09:21:00Z</time>
      </trkpt>
      <trkpt lat="42.28816" lon="2.41142">
        <ele>1056.02</ele>
        <time>2021-07-31T09:21:06Z</time>
      </trkpt>
      <trkpt lat="42.28858" lon="2.41123">
        <ele>1052.94</ele>
        <time>2021-07-31T09:21:17Z</time>
      </trkpt>
      <trkpt lat="42.28884" lon="2.41118">
        <ele>1049.68</ele>
        <time>2021-07-31T09:21:25Z</time>
      </trkpt>
      <trkpt lat="42.28906" lon="2.41114">
        <ele>1046.39</ele>
        <time>2021-07-31T09:21:32Z</time>
      </trkpt>
      <trkpt lat="42.2893" lon="2.41114">
        <ele>1043.31</ele>
        <time>2021-07-31T09:21:38Z</time>
      </trkpt>
      <trkpt lat="42.28966" lon="2.41113">
        <ele>1041.1</ele>
        <time>2021-07-31T09:21:44Z</time>
      </trkpt>
      <trkpt lat="42.29002" lon="2.411">
        <ele>1038.92</ele>
        <time>2021-07-31T09:21:51Z</time>
      </trkpt>
      <trkpt lat="42.29002" lon="2.41094">
        <ele>1038.78</ele>
        <time>2021-07-31T09:21:52Z</time>
      </trkpt>
      <trkpt lat="42.29002" lon="2.41082">
        <ele>1038.53</ele>
        <time>2021-07-31T09:21:54Z</time>
      </trkpt>
      <trkpt lat="42.29003" lon="2.41059">
        <ele>1038.06</ele>
        <time>2021-07-31T09:22:03Z</time>
      </trkpt>
      <trkpt lat="42.29006" lon="2.41005">
        <ele>1038.82</ele>
        <time>2021-07-31T09:22:15Z</time>
      </trkpt>
      <trkpt lat="42.29006" lon="2.40952">
        <ele>1040.39</ele>
        <time>2021-07-31T09:22:22Z</time>
      </trkpt>
      <trkpt lat="42.29008" lon="2.40917">
        <ele>1041.48</ele>
        <time>2021-07-31T09:22:26Z</time>
      </trkpt>
      <trkpt lat="42.29013" lon="2.40894">
        <ele>1042.76</ele>
        <time>2021-07-31T09:22:29Z</time>
      </trkpt>
      <trkpt lat="42.29024" lon="2.40858">
        <ele>1044.02</ele>
        <time>2021-07-31T09:22:34Z</time>
      </trkpt>
      <trkpt lat="42.29033" lon="2.40843">
        <ele>1044.66</ele>
        <time>2021-07-31T09:22:37Z</time>
      </trkpt>
      <trkpt lat="42.29039" lon="2.40824">
        <ele>1045.41</ele>
        <time>2021-07-31T09:22:41Z</time>
      </trkpt>
      <trkpt lat="42.2904" lon="2.40812">
        <ele>1045.83</ele>
        <time>2021-07-31T09:22:43Z</time>
      </trkpt>
      <trkpt lat="42.29049" lon="2.40781">
        <ele>1047.09</ele>
        <time>2021-07-31T09:22:48Z</time>
      </trkpt>
      <trkpt lat="42.29067" lon="2.40755">
        <ele>1047.99</ele>
        <time>2021-07-31T09:22:53Z</time>
      </trkpt>
      <trkpt lat="42.29078" lon="2.40735">
        <ele>1048.5</ele>
        <time>2021-07-31T09:22:56Z</time>
      </trkpt>
      <trkpt lat="42.29113" lon="2.40689">
        <ele>1050.3</ele>
        <time>2021-07-31T09:23:05Z</time>
      </trkpt>
      <trkpt lat="42.29131" lon="2.40648">
        <ele>1051.68</ele>
        <time>2021-07-31T09:23:10Z</time>
      </trkpt>
      <trkpt lat="42.29137" lon="2.40619">
        <ele>1052.65</ele>
        <time>2021-07-31T09:23:14Z</time>
      </trkpt>
      <trkpt lat="42.29136" lon="2.40589">
        <ele>1053.3</ele>
        <time>2021-07-31T09:23:18Z</time>
      </trkpt>
      <trkpt lat="42.29129" lon="2.40553">
        <ele>1054.34</ele>
        <time>2021-07-31T09:23:22Z</time>
      </trkpt>
      <trkpt lat="42.29114" lon="2.40514">
        <ele>1055.28</ele>
        <time>2021-07-31T09:23:27Z</time>
      </trkpt>
      <trkpt lat="42.29108" lon="2.40488">
        <ele>1055.83</ele>
        <time>2021-07-31T09:23:30Z</time>
      </trkpt>
      <trkpt lat="42.29092" lon="2.40426">
        <ele>1058.1</ele>
        <time>2021-07-31T09:23:38Z</time>
      </trkpt>
      <trkpt lat="42.29039" lon="2.40359">
        <ele>1060.23</ele>
        <time>2021-07-31T09:23:51Z</time>
      </trkpt>
      <trkpt lat="42.28991" lon="2.40307">
        <ele>1061.4</ele>
        <time>2021-07-31T09:24:01Z</time>
      </trkpt>
      <trkpt lat="42.28961" lon="2.40274">
        <ele>1061.91</ele>
        <time>2021-07-31T09:24:07Z</time>
      </trkpt>
      <trkpt lat="42.28951" lon="2.40253">
        <ele>1061.94</ele>
        <time>2021-07-31T09:24:10Z</time>
      </trkpt>
      <trkpt lat="42.2892" lon="2.40205">
        <ele>1061.59</ele>
        <time>2021-07-31T09:24:18Z</time>
      </trkpt>
      <trkpt lat="42.28888" lon="2.40185">
        <ele>1059.54</ele>
        <time>2021-07-31T09:24:28Z</time>
      </trkpt>
      <trkpt lat="42.28883" lon="2.40186">
        <ele>1059.45</ele>
        <time>2021-07-31T09:24:29Z</time>
      </trkpt>
      <trkpt lat="42.2885" lon="2.40184">
        <ele>1059.11</ele>
        <time>2021-07-31T09:24:35Z</time>
      </trkpt>
      <trkpt lat="42.28798" lon="2.40163">
        <ele>1058.76</ele>
        <time>2021-07-31T09:24:47Z</time>
      </trkpt>
      <trkpt lat="42.28782" lon="2.40152">
        <ele>1058.81</ele>
        <time>2021-07-31T09:24:52Z</time>
      </trkpt>
      <trkpt lat="42.2875" lon="2.4011">
        <ele>1059.38</ele>
        <time>2021-07-31T09:25:04Z</time>
      </trkpt>
      <trkpt lat="42.28737" lon="2.40095">
        <ele>1059.5</ele>
        <time>2021-07-31T09:25:08Z</time>
      </trkpt>
      <trkpt lat="42.28715" lon="2.40077">
        <ele>1060.01</ele>
        <time>2021-07-31T09:25:15Z</time>
      </trkpt>
      <trkpt lat="42.28678" lon="2.40032">
        <ele>1060.33</ele>
        <time>2021-07-31T09:25:27Z</time>
      </trkpt>
      <trkpt lat="42.28662" lon="2.39987">
        <ele>1061.4</ele>
        <time>2021-07-31T09:25:37Z</time>
      </trkpt>
      <trkpt lat="42.2863" lon="2.39981">
        <ele>1062.05</ele>
        <time>2021-07-31T09:25:46Z</time>
      </trkpt>
      <trkpt lat="42.28612" lon="2.39976">
        <ele>1062.12</ele>
        <time>2021-07-31T09:25:50Z</time>
      </trkpt>
      <trkpt lat="42.28581" lon="2.39959">
        <ele>1061.58</ele>
        <time>2021-07-31T09:26:00Z</time>
      </trkpt>
      <trkpt lat="42.28577" lon="2.39944">
        <ele>1060.81</ele>
        <time>2021-07-31T09:26:04Z</time>
      </trkpt>
      <trkpt lat="42.28571" lon="2.39884">
        <ele>1058.98</ele>
        <time>2021-07-31T09:26:11Z</time>
      </trkpt>
      <trkpt lat="42.28566" lon="2.398">
        <ele>1057.37</ele>
        <time>2021-07-31T09:26:21Z</time>
      </trkpt>
      <trkpt lat="42.28575" lon="2.39775">
        <ele>1057.43</ele>
        <time>2021-07-31T09:26:25Z</time>
      </trkpt>
      <trkpt lat="42.28592" lon="2.39734">
        <ele>1058.95</ele>
        <time>2021-07-31T09:26:34Z</time>
      </trkpt>
      <trkpt lat="42.2859" lon="2.397">
        <ele>1060.53</ele>
        <time>2021-07-31T09:26:40Z</time>
      </trkpt>
      <trkpt lat="42.28596" lon="2.3968">
        <ele>1061.3</ele>
        <time>2021-07-31T09:26:44Z</time>
      </trkpt>
      <trkpt lat="42.28608" lon="2.39634">
        <ele>1061.72</ele>
        <time>2021-07-31T09:26:54Z</time>
      </trkpt>
      <trkpt lat="42.28598" lon="2.39616">
        <ele>1061.76</ele>
        <time>2021-07-31T09:26:57Z</time>
      </trkpt>
      <trkpt lat="42.28585" lon="2.39587">
        <ele>1061.6</ele>
        <time>2021-07-31T09:27:01Z</time>
      </trkpt>
      <trkpt lat="42.28558" lon="2.39559">
        <ele>1061.47</ele>
        <time>2021-07-31T09:27:06Z</time>
      </trkpt>
      <trkpt lat="42.28524" lon="2.39493">
        <ele>1061.6</ele>
        <time>2021-07-31T09:27:17Z</time>
      </trkpt>
      <trkpt lat="42.28524" lon="2.39485">
        <ele>1061.6</ele>
        <time>2021-07-31T09:27:18Z</time>
      </trkpt>
      <trkpt lat="42.28526" lon="2.39469">
        <ele>1061.34</ele>
        <time>2021-07-31T09:27:20Z</time>
      </trkpt>
      <trkpt lat="42.28526" lon="2.39442">
        <ele>1058.84</ele>
        <time>2021-07-31T09:27:26Z</time>
      </trkpt>
      <trkpt lat="42.28526" lon="2.39413">
        <ele>1055.47</ele>
        <time>2021-07-31T09:27:32Z</time>
      </trkpt>
      <trkpt lat="42.28525" lon="2.39382">
        <ele>1052.46</ele>
        <time>2021-07-31T09:27:39Z</time>
      </trkpt>
      <trkpt lat="42.28525" lon="2.39378">
        <ele>1052.16</ele>
        <time>2021-07-31T09:27:40Z</time>
      </trkpt>
      <trkpt lat="42.2852" lon="2.39333">
        <ele>1048.9</ele>
        <time>2021-07-31T09:27:49Z</time>
      </trkpt>
      <trkpt lat="42.28514" lon="2.39295">
        <ele>1045.74</ele>
        <time>2021-07-31T09:27:56Z</time>
      </trkpt>
      <trkpt lat="42.28504" lon="2.39264">
        <ele>1042.73</ele>
        <time>2021-07-31T09:28:03Z</time>
      </trkpt>
      <trkpt lat="42.28498" lon="2.3923">
        <ele>1039.41</ele>
        <time>2021-07-31T09:28:11Z</time>
      </trkpt>
      <trkpt lat="42.28487" lon="2.39199">
        <ele>1036.28</ele>
        <time>2021-07-31T09:28:21Z</time>
      </trkpt>
      <trkpt lat="42.28484" lon="2.39189">
        <ele>1035.77</ele>
        <time>2021-07-31T09:28:23Z</time>
      </trkpt>
      <trkpt lat="42.2848" lon="2.39167">
        <ele>1034.7</ele>
        <time>2021-07-31T09:28:27Z</time>
      </trkpt>
      <trkpt lat="42.28466" lon="2.39091">
        <ele>1031.19</ele>
        <time>2021-07-31T09:28:39Z</time>
      </trkpt>
      <trkpt lat="42.28458" lon="2.39056">
        <ele>1029.96</ele>
        <time>2021-07-31T09:28:43Z</time>
      </trkpt>
      <trkpt lat="42.28458" lon="2.3905">
        <ele>1029.56</ele>
        <time>2021-07-31T09:28:44Z</time>
      </trkpt>
      <trkpt lat="42.28458" lon="2.39045">
        <ele>1029.1</ele>
        <time>2021-07-31T09:28:45Z</time>
      </trkpt>
      <trkpt lat="42.28459" lon="2.3904">
        <ele>1028.59</ele>
        <time>2021-07-31T09:28:46Z</time>
      </trkpt>
      <trkpt lat="42.2846" lon="2.39034">
        <ele>1028.05</ele>
        <time>2021-07-31T09:28:47Z</time>
      </trkpt>
      <trkpt lat="42.28462" lon="2.39027">
        <ele>1027.57</ele>
        <time>2021-07-31T09:28:48Z</time>
      </trkpt>
      <trkpt lat="42.28465" lon="2.39017">
        <ele>1027.11</ele>
        <time>2021-07-31T09:28:49Z</time>
      </trkpt>
      <trkpt lat="42.2847" lon="2.38995">
        <ele>1026.33</ele>
        <time>2021-07-31T09:28:51Z</time>
      </trkpt>
      <trkpt lat="42.28477" lon="2.38931">
        <ele>1023.98</ele>
        <time>2021-07-31T09:28:56Z</time>
      </trkpt>
      <trkpt lat="42.28475" lon="2.38879">
        <ele>1020.21</ele>
        <time>2021-07-31T09:29:01Z</time>
      </trkpt>
      <trkpt lat="42.28475" lon="2.38847">
        <ele>1016.25</ele>
        <time>2021-07-31T09:29:04Z</time>
      </trkpt>
      <trkpt lat="42.28476" lon="2.38837">
        <ele>1015.16</ele>
        <time>2021-07-31T09:29:05Z</time>
      </trkpt>
      <trkpt lat="42.28485" lon="2.38799">
        <ele>1010.84</ele>
        <time>2021-07-31T09:29:09Z</time>
      </trkpt>
      <trkpt lat="42.28494" lon="2.38758">
        <ele>1007.01</ele>
        <time>2021-07-31T09:29:13Z</time>
      </trkpt>
      <trkpt lat="42.28496" lon="2.38748">
        <ele>1006.18</ele>
        <time>2021-07-31T09:29:14Z</time>
      </trkpt>
      <trkpt lat="42.28499" lon="2.38713">
        <ele>1003.64</ele>
        <time>2021-07-31T09:29:17Z</time>
      </trkpt>
      <trkpt lat="42.28506" lon="2.38679">
        <ele>1001.51</ele>
        <time>2021-07-31T09:29:20Z</time>
      </trkpt>
      <trkpt lat="42.28536" lon="2.38603">
        <ele>997.35</ele>
        <time>2021-07-31T09:29:27Z</time>
      </trkpt>
      <trkpt lat="42.28543" lon="2.38583">
        <ele>996.14</ele>
        <time>2021-07-31T09:29:29Z</time>
      </trkpt>
      <trkpt lat="42.28552" lon="2.3852">
        <ele>991.82</ele>
        <time>2021-07-31T09:29:35Z</time>
      </trkpt>
      <trkpt lat="42.28553" lon="2.38505">
        <ele>988.82</ele>
        <time>2021-07-31T09:29:38Z</time>
      </trkpt>
      <trkpt lat="42.28564" lon="2.38506">
        <ele>983.87</ele>
        <time>2021-07-31T09:29:43Z</time>
      </trkpt>
      <trkpt lat="42.28569" lon="2.38526">
        <ele>980.75</ele>
        <time>2021-07-31T09:29:47Z</time>
      </trkpt>
      <trkpt lat="42.28572" lon="2.38538">
        <ele>979.61</ele>
        <time>2021-07-31T09:29:49Z</time>
      </trkpt>
      <trkpt lat="42.28573" lon="2.38551">
        <ele>978.41</ele>
        <time>2021-07-31T09:29:51Z</time>
      </trkpt>
      <trkpt lat="42.28569" lon="2.38585">
        <ele>974.46</ele>
        <time>2021-07-31T09:29:58Z</time>
      </trkpt>
      <trkpt lat="42.28568" lon="2.38589">
        <ele>973.79</ele>
        <time>2021-07-31T09:29:59Z</time>
      </trkpt>
      <trkpt lat="42.28585" lon="2.38582">
        <ele>970.59</ele>
        <time>2021-07-31T09:30:06Z</time>
      </trkpt>
      <trkpt lat="42.28588" lon="2.38575">
        <ele>970.4</ele>
        <time>2021-07-31T09:30:07Z</time>
      </trkpt>
      <trkpt lat="42.28593" lon="2.38558">
        <ele>970.06</ele>
        <time>2021-07-31T09:30:09Z</time>
      </trkpt>
      <trkpt lat="42.286" lon="2.38481">
        <ele>967.41</ele>
        <time>2021-07-31T09:30:17Z</time>
      </trkpt>
      <trkpt lat="42.28594" lon="2.3844">
        <ele>964.49</ele>
        <time>2021-07-31T09:30:23Z</time>
      </trkpt>
      <trkpt lat="42.28598" lon="2.38363">
        <ele>961.16</ele>
        <time>2021-07-31T09:30:31Z</time>
      </trkpt>
      <trkpt lat="42.28604" lon="2.38346">
        <ele>960.09</ele>
        <time>2021-07-31T09:30:33Z</time>
      </trkpt>
      <trkpt lat="42.28605" lon="2.38292">
        <ele>957.63</ele>
        <time>2021-07-31T09:30:37Z</time>
      </trkpt>
      <trkpt lat="42.28607" lon="2.38261">
        <ele>956.5</ele>
        <time>2021-07-31T09:30:39Z</time>
      </trkpt>
      <trkpt lat="42.28596" lon="2.38185">
        <ele>952.34</ele>
        <time>2021-07-31T09:30:44Z</time>
      </trkpt>
      <trkpt lat="42.28584" lon="2.38141">
        <ele>948.63</ele>
        <time>2021-07-31T09:30:47Z</time>
      </trkpt>
      <trkpt lat="42.28567" lon="2.38099">
        <ele>945.35</ele>
        <time>2021-07-31T09:30:50Z</time>
      </trkpt>
      <trkpt lat="42.28546" lon="2.38065">
        <ele>941.84</ele>
        <time>2021-07-31T09:30:53Z</time>
      </trkpt>
      <trkpt lat="42.28525" lon="2.38036">
        <ele>937.67</ele>
        <time>2021-07-31T09:30:56Z</time>
      </trkpt>
      <trkpt lat="42.28515" lon="2.38018">
        <ele>934.89</ele>
        <time>2021-07-31T09:30:58Z</time>
      </trkpt>
      <trkpt lat="42.28512" lon="2.37981">
        <ele>929.69</ele>
        <time>2021-07-31T09:31:02Z</time>
      </trkpt>
      <trkpt lat="42.28514" lon="2.3793">
        <ele>925.33</ele>
        <time>2021-07-31T09:31:07Z</time>
      </trkpt>
      <trkpt lat="42.28514" lon="2.37908">
        <ele>924.4</ele>
        <time>2021-07-31T09:31:09Z</time>
      </trkpt>
      <trkpt lat="42.28484" lon="2.37806">
        <ele>920.65</ele>
        <time>2021-07-31T09:31:17Z</time>
      </trkpt>
      <trkpt lat="42.28469" lon="2.37763">
        <ele>919.12</ele>
        <time>2021-07-31T09:31:20Z</time>
      </trkpt>
      <trkpt lat="42.28434" lon="2.37664">
        <ele>915.39</ele>
        <time>2021-07-31T09:31:27Z</time>
      </trkpt>
      <trkpt lat="42.2843" lon="2.37651">
        <ele>914.87</ele>
        <time>2021-07-31T09:31:28Z</time>
      </trkpt>
      <trkpt lat="42.28413" lon="2.37618">
        <ele>913.12</ele>
        <time>2021-07-31T09:31:31Z</time>
      </trkpt>
      <trkpt lat="42.28392" lon="2.37543">
        <ele>909.24</ele>
        <time>2021-07-31T09:31:37Z</time>
      </trkpt>
      <trkpt lat="42.28378" lon="2.37488">
        <ele>905.78</ele>
        <time>2021-07-31T09:31:42Z</time>
      </trkpt>
      <trkpt lat="42.28372" lon="2.3746">
        <ele>902.04</ele>
        <time>2021-07-31T09:31:47Z</time>
      </trkpt>
      <trkpt lat="42.28387" lon="2.37462">
        <ele>898.1</ele>
        <time>2021-07-31T09:31:53Z</time>
      </trkpt>
      <trkpt lat="42.28388" lon="2.37468">
        <ele>897.59</ele>
        <time>2021-07-31T09:31:54Z</time>
      </trkpt>
      <trkpt lat="42.28409" lon="2.37487">
        <ele>894.41</ele>
        <time>2021-07-31T09:32:03Z</time>
      </trkpt>
      <trkpt lat="42.28416" lon="2.37471">
        <ele>894.2</ele>
        <time>2021-07-31T09:32:05Z</time>
      </trkpt>
      <trkpt lat="42.28424" lon="2.37452">
        <ele>894.17</ele>
        <time>2021-07-31T09:32:07Z</time>
      </trkpt>
      <trkpt lat="42.28427" lon="2.37373">
        <ele>895.48</ele>
        <time>2021-07-31T09:32:14Z</time>
      </trkpt>
      <trkpt lat="42.28443" lon="2.37298">
        <ele>895.97</ele>
        <time>2021-07-31T09:32:21Z</time>
      </trkpt>
      <trkpt lat="42.28484" lon="2.37238">
        <ele>894.44</ele>
        <time>2021-07-31T09:32:27Z</time>
      </trkpt>
      <trkpt lat="42.28553" lon="2.37174">
        <ele>890.92</ele>
        <time>2021-07-31T09:32:34Z</time>
      </trkpt>
      <trkpt lat="42.28579" lon="2.37149">
        <ele>888.58</ele>
        <time>2021-07-31T09:32:37Z</time>
      </trkpt>
      <trkpt lat="42.28598" lon="2.37121">
        <ele>885.74</ele>
        <time>2021-07-31T09:32:40Z</time>
      </trkpt>
      <trkpt lat="42.28622" lon="2.37042">
        <ele>881.57</ele>
        <time>2021-07-31T09:32:47Z</time>
      </trkpt>
      <trkpt lat="42.28635" lon="2.37023">
        <ele>881.33</ele>
        <time>2021-07-31T09:32:49Z</time>
      </trkpt>
      <trkpt lat="42.28663" lon="2.36979">
        <ele>881.65</ele>
        <time>2021-07-31T09:32:57Z</time>
      </trkpt>
      <trkpt lat="42.28677" lon="2.36955">
        <ele>881.62</ele>
        <time>2021-07-31T09:33:02Z</time>
      </trkpt>
      <trkpt lat="42.28692" lon="2.36911">
        <ele>879.78</ele>
        <time>2021-07-31T09:33:10Z</time>
      </trkpt>
      <trkpt lat="42.28718" lon="2.36884">
        <ele>876.33</ele>
        <time>2021-07-31T09:33:18Z</time>
      </trkpt>
      <trkpt lat="42.28714" lon="2.36861">
        <ele>873.27</ele>
        <time>2021-07-31T09:33:24Z</time>
      </trkpt>
      <trkpt lat="42.28713" lon="2.36858">
        <ele>872.83</ele>
        <time>2021-07-31T09:33:25Z</time>
      </trkpt>
      <trkpt lat="42.28707" lon="2.36828">
        <ele>870.15</ele>
        <time>2021-07-31T09:33:36Z</time>
      </trkpt>
      <trkpt lat="42.28724" lon="2.36795">
        <ele>870.45</ele>
        <time>2021-07-31T09:33:43Z</time>
      </trkpt>
      <trkpt lat="42.28727" lon="2.36774">
        <ele>871.54</ele>
        <time>2021-07-31T09:33:46Z</time>
      </trkpt>
      <trkpt lat="42.28737" lon="2.36745">
        <ele>873.11</ele>
        <time>2021-07-31T09:33:50Z</time>
      </trkpt>
      <trkpt lat="42.28773" lon="2.36675">
        <ele>876.56</ele>
        <time>2021-07-31T09:33:59Z</time>
      </trkpt>
      <trkpt lat="42.28788" lon="2.36646">
        <ele>877.54</ele>
        <time>2021-07-31T09:34:04Z</time>
      </trkpt>
      <trkpt lat="42.28832" lon="2.36568">
        <ele>879.58</ele>
        <time>2021-07-31T09:34:16Z</time>
      </trkpt>
      <trkpt lat="42.28873" lon="2.36494">
        <ele>881.76</ele>
        <time>2021-07-31T09:34:29Z</time>
      </trkpt>
      <trkpt lat="42.28899" lon="2.36454">
        <ele>882.54</ele>
        <time>2021-07-31T09:34:39Z</time>
      </trkpt>
      <trkpt lat="42.28907" lon="2.36439">
        <ele>882.8</ele>
        <time>2021-07-31T09:34:50Z</time>
      </trkpt>
      <trkpt lat="42.28926" lon="2.36415">
        <ele>883.34</ele>
        <time>2021-07-31T09:35:23Z</time>
      </trkpt>
      <trkpt lat="42.28965" lon="2.36368">
        <ele>883.73</ele>
        <time>2021-07-31T09:35:35Z</time>
      </trkpt>
      <trkpt lat="42.2903" lon="2.36322">
        <ele>884.17</ele>
        <time>2021-07-31T09:35:48Z</time>
      </trkpt>
      <trkpt lat="42.29097" lon="2.36286">
        <ele>885.11</ele>
        <time>2021-07-31T09:35:58Z</time>
      </trkpt>
      <trkpt lat="42.29187" lon="2.36234">
        <ele>886.78</ele>
        <time>2021-07-31T09:36:09Z</time>
      </trkpt>
      <trkpt lat="42.29227" lon="2.36224">
        <ele>887.79</ele>
        <time>2021-07-31T09:36:14Z</time>
      </trkpt>
      <trkpt lat="42.29261" lon="2.3622">
        <ele>888.58</ele>
        <time>2021-07-31T09:36:20Z</time>
      </trkpt>
      <trkpt lat="42.29281" lon="2.36208">
        <ele>888.87</ele>
        <time>2021-07-31T09:36:23Z</time>
      </trkpt>
      <trkpt lat="42.29298" lon="2.36199">
        <ele>889.32</ele>
        <time>2021-07-31T09:36:26Z</time>
      </trkpt>
      <trkpt lat="42.29343" lon="2.36163">
        <ele>891.25</ele>
        <time>2021-07-31T09:36:36Z</time>
      </trkpt>
      <trkpt lat="42.29375" lon="2.36135">
        <ele>890.67</ele>
        <time>2021-07-31T09:36:48Z</time>
      </trkpt>
      <trkpt lat="42.2938" lon="2.3613">
        <ele>890.65</ele>
        <time>2021-07-31T09:36:50Z</time>
      </trkpt>
      <trkpt lat="42.29422" lon="2.36093">
        <ele>890.84</ele>
        <time>2021-07-31T09:36:58Z</time>
      </trkpt>
      <trkpt lat="42.29451" lon="2.36072">
        <ele>891.51</ele>
        <time>2021-07-31T09:37:05Z</time>
      </trkpt>
      <trkpt lat="42.29515" lon="2.36027">
        <ele>892.47</ele>
        <time>2021-07-31T09:37:14Z</time>
      </trkpt>
      <trkpt lat="42.29603" lon="2.36014">
        <ele>895.52</ele>
        <time>2021-07-31T09:37:23Z</time>
      </trkpt>
      <trkpt lat="42.29695" lon="2.36013">
        <ele>896.81</ele>
        <time>2021-07-31T09:37:35Z</time>
      </trkpt>
      <trkpt lat="42.29752" lon="2.36013">
        <ele>895.23</ele>
        <time>2021-07-31T09:37:46Z</time>
      </trkpt>
      <trkpt lat="42.29813" lon="2.36">
        <ele>895.53</ele>
        <time>2021-07-31T09:37:58Z</time>
      </trkpt>
      <trkpt lat="42.29825" lon="2.36006">
        <ele>895.19</ele>
        <time>2021-07-31T09:38:04Z</time>
      </trkpt>
      <trkpt lat="42.29835" lon="2.35996">
        <ele>894.93</ele>
        <time>2021-07-31T09:38:08Z</time>
      </trkpt>
      <trkpt lat="42.29841" lon="2.35987">
        <ele>894.81</ele>
        <time>2021-07-31T09:38:11Z</time>
      </trkpt>
      <trkpt lat="42.29895" lon="2.35948">
        <ele>896.05</ele>
        <time>2021-07-31T09:38:23Z</time>
      </trkpt>
      <trkpt lat="42.29935" lon="2.35925">
        <ele>897.03</ele>
        <time>2021-07-31T09:38:30Z</time>
      </trkpt>
      <trkpt lat="42.3001" lon="2.35863">
        <ele>899.75</ele>
        <time>2021-07-31T09:38:43Z</time>
      </trkpt>
      <trkpt lat="42.30043" lon="2.35836">
        <ele>900.83</ele>
        <time>2021-07-31T09:38:50Z</time>
      </trkpt>
      <trkpt lat="42.30078" lon="2.35799">
        <ele>902.63</ele>
        <time>2021-07-31T09:38:57Z</time>
      </trkpt>
      <trkpt lat="42.30098" lon="2.35787">
        <ele>903.41</ele>
        <time>2021-07-31T09:39:00Z</time>
      </trkpt>
      <trkpt lat="42.30111" lon="2.35784">
        <ele>903.88</ele>
        <time>2021-07-31T09:39:02Z</time>
      </trkpt>
      <trkpt lat="42.30137" lon="2.3579">
        <ele>905.29</ele>
        <time>2021-07-31T09:39:06Z</time>
      </trkpt>
      <trkpt lat="42.30155" lon="2.35805">
        <ele>906.6</ele>
        <time>2021-07-31T09:39:09Z</time>
      </trkpt>
      <trkpt lat="42.3018" lon="2.35846">
        <ele>907.98</ele>
        <time>2021-07-31T09:39:14Z</time>
      </trkpt>
      <trkpt lat="42.30202" lon="2.35846">
        <ele>908.71</ele>
        <time>2021-07-31T09:39:21Z</time>
      </trkpt>
      <trkpt lat="42.30205" lon="2.35845">
        <ele>908.36</ele>
        <time>2021-07-31T09:39:31Z</time>
      </trkpt>
      <trkpt lat="42.30225" lon="2.35856">
        <ele>908.37</ele>
        <time>2021-07-31T09:39:35Z</time>
      </trkpt>
      <trkpt lat="42.30344" lon="2.35902">
        <ele>909.68</ele>
        <time>2021-07-31T09:39:44Z</time>
      </trkpt>
      <trkpt lat="42.30508" lon="2.35957">
        <ele>912.72</ele>
        <time>2021-07-31T09:39:53Z</time>
      </trkpt>
      <trkpt lat="42.3062" lon="2.36048">
        <ele>913.82</ele>
        <time>2021-07-31T09:40:01Z</time>
      </trkpt>
      <trkpt lat="42.30695" lon="2.3611">
        <ele>913.95</ele>
        <time>2021-07-31T09:40:08Z</time>
      </trkpt>
      <trkpt lat="42.30728" lon="2.36151">
        <ele>913.8</ele>
        <time>2021-07-31T09:40:13Z</time>
      </trkpt>
      <trkpt lat="42.30756" lon="2.36169">
        <ele>914.09</ele>
        <time>2021-07-31T09:40:17Z</time>
      </trkpt>
      <trkpt lat="42.3077" lon="2.36205">
        <ele>914.69</ele>
        <time>2021-07-31T09:40:21Z</time>
      </trkpt>
      <trkpt lat="42.30798" lon="2.36216">
        <ele>915.83</ele>
        <time>2021-07-31T09:40:27Z</time>
      </trkpt>
      <trkpt lat="42.30799" lon="2.36213">
        <ele>915.89</ele>
        <time>2021-07-31T09:40:28Z</time>
      </trkpt>
      <trkpt lat="42.308" lon="2.36208">
        <ele>915.89</ele>
        <time>2021-07-31T09:40:29Z</time>
      </trkpt>
      <trkpt lat="42.30801" lon="2.36203">
        <ele>915.88</ele>
        <time>2021-07-31T09:40:30Z</time>
      </trkpt>
      <trkpt lat="42.308" lon="2.36197">
        <ele>915.86</ele>
        <time>2021-07-31T09:40:31Z</time>
      </trkpt>
      <trkpt lat="42.308" lon="2.36191">
        <ele>915.85</ele>
        <time>2021-07-31T09:40:32Z</time>
      </trkpt>
      <trkpt lat="42.308" lon="2.36184">
        <ele>915.82</ele>
        <time>2021-07-31T09:40:33Z</time>
      </trkpt>
      <trkpt lat="42.308" lon="2.36176">
        <ele>915.78</ele>
        <time>2021-07-31T09:40:34Z</time>
      </trkpt>
      <trkpt lat="42.30801" lon="2.36168">
        <ele>915.74</ele>
        <time>2021-07-31T09:40:35Z</time>
      </trkpt>
      <trkpt lat="42.30804" lon="2.3616">
        <ele>915.71</ele>
        <time>2021-07-31T09:40:36Z</time>
      </trkpt>
      <trkpt lat="42.30808" lon="2.36151">
        <ele>915.7</ele>
        <time>2021-07-31T09:40:37Z</time>
      </trkpt>
      <trkpt lat="42.30813" lon="2.36142">
        <ele>915.7</ele>
        <time>2021-07-31T09:40:38Z</time>
      </trkpt>
      <trkpt lat="42.30818" lon="2.36133">
        <ele>915.7</ele>
        <time>2021-07-31T09:40:39Z</time>
      </trkpt>
      <trkpt lat="42.30825" lon="2.36126">
        <ele>915.75</ele>
        <time>2021-07-31T09:40:40Z</time>
      </trkpt>
      <trkpt lat="42.30832" lon="2.36121">
        <ele>915.87</ele>
        <time>2021-07-31T09:40:41Z</time>
      </trkpt>
      <trkpt lat="42.30839" lon="2.36116">
        <ele>916.01</ele>
        <time>2021-07-31T09:40:42Z</time>
      </trkpt>
      <trkpt lat="42.30848" lon="2.36111">
        <ele>916.22</ele>
        <time>2021-07-31T09:40:43Z</time>
      </trkpt>
      <trkpt lat="42.30876" lon="2.36098">
        <ele>917.76</ele>
        <time>2021-07-31T09:40:46Z</time>
      </trkpt>
      <trkpt lat="42.30964" lon="2.36113">
        <ele>921.3</ele>
        <time>2021-07-31T09:40:53Z</time>
      </trkpt>
      <trkpt lat="42.31006" lon="2.36165">
        <ele>922.74</ele>
        <time>2021-07-31T09:40:57Z</time>
      </trkpt>
      <trkpt lat="42.31043" lon="2.36225">
        <ele>923.29</ele>
        <time>2021-07-31T09:41:01Z</time>
      </trkpt>
      <trkpt lat="42.31133" lon="2.3628">
        <ele>924.09</ele>
        <time>2021-07-31T09:41:08Z</time>
      </trkpt>
      <trkpt lat="42.31149" lon="2.36282">
        <ele>924.4</ele>
        <time>2021-07-31T09:41:09Z</time>
      </trkpt>
      <trkpt lat="42.31255" lon="2.36288">
        <ele>928.04</ele>
        <time>2021-07-31T09:41:16Z</time>
      </trkpt>
      <trkpt lat="42.31285" lon="2.3629">
        <ele>929.07</ele>
        <time>2021-07-31T09:41:18Z</time>
      </trkpt>
      <trkpt lat="42.31295" lon="2.36221">
        <ele>929.62</ele>
        <time>2021-07-31T09:41:21Z</time>
      </trkpt>
      <trkpt lat="42.31329" lon="2.36224">
        <ele>929.93</ele>
        <time>2021-07-31T09:41:26Z</time>
      </trkpt>
      <trkpt lat="42.31346" lon="2.36231">
        <ele>929.89</ele>
        <time>2021-07-31T09:41:29Z</time>
      </trkpt>
      <trkpt lat="42.31383" lon="2.36218">
        <ele>929.99</ele>
        <time>2021-07-31T09:41:35Z</time>
      </trkpt>
      <trkpt lat="42.31433" lon="2.36213">
        <ele>930.33</ele>
        <time>2021-07-31T09:41:42Z</time>
      </trkpt>
      <trkpt lat="42.31439" lon="2.3621">
        <ele>930.34</ele>
        <time>2021-07-31T09:41:51Z</time>
      </trkpt>
      <trkpt lat="42.31491" lon="2.36208">
        <ele>930.54</ele>
        <time>2021-07-31T09:42:01Z</time>
      </trkpt>
      <trkpt lat="42.31554" lon="2.36201">
        <ele>931.7</ele>
        <time>2021-07-31T09:42:12Z</time>
      </trkpt>
      <trkpt lat="42.31566" lon="2.362">
        <ele>931.91</ele>
        <time>2021-07-31T09:42:14Z</time>
      </trkpt>
      <trkpt lat="42.31589" lon="2.36181">
        <ele>932.56</ele>
        <time>2021-07-31T09:42:18Z</time>
      </trkpt>
      <trkpt lat="42.3167" lon="2.3607">
        <ele>935.84</ele>
        <time>2021-07-31T09:42:29Z</time>
      </trkpt>
      <trkpt lat="42.31691" lon="2.3604">
        <ele>937.23</ele>
        <time>2021-07-31T09:42:32Z</time>
      </trkpt>
      <trkpt lat="42.31728" lon="2.35923">
        <ele>941.05</ele>
        <time>2021-07-31T09:42:40Z</time>
      </trkpt>
      <trkpt lat="42.31751" lon="2.35854">
        <ele>942.57</ele>
        <time>2021-07-31T09:42:45Z</time>
      </trkpt>
      <trkpt lat="42.31754" lon="2.35713">
        <ele>945.59</ele>
        <time>2021-07-31T09:42:55Z</time>
      </trkpt>
      <trkpt lat="42.31777" lon="2.35556">
        <ele>947.52</ele>
        <time>2021-07-31T09:43:06Z</time>
      </trkpt>
      <trkpt lat="42.31778" lon="2.35525">
        <ele>946.91</ele>
        <time>2021-07-31T09:43:12Z</time>
      </trkpt>
      <trkpt lat="42.31788" lon="2.35453">
        <ele>946.78</ele>
        <time>2021-07-31T09:43:21Z</time>
      </trkpt>
      <trkpt lat="42.31803" lon="2.35351">
        <ele>947.45</ele>
        <time>2021-07-31T09:43:28Z</time>
      </trkpt>
      <trkpt lat="42.31849" lon="2.35208">
        <ele>950.17</ele>
        <time>2021-07-31T09:43:36Z</time>
      </trkpt>
      <trkpt lat="42.31923" lon="2.35028">
        <ele>953.24</ele>
        <time>2021-07-31T09:43:47Z</time>
      </trkpt>
      <trkpt lat="42.31934" lon="2.34996">
        <ele>953.75</ele>
        <time>2021-07-31T09:43:49Z</time>
      </trkpt>
      <trkpt lat="42.31938" lon="2.34979">
        <ele>953.98</ele>
        <time>2021-07-31T09:43:50Z</time>
      </trkpt>
      <trkpt lat="42.31975" lon="2.34822">
        <ele>956.88</ele>
        <time>2021-07-31T09:44:00Z</time>
      </trkpt>
      <trkpt lat="42.3202" lon="2.34712">
        <ele>959.98</ele>
        <time>2021-07-31T09:44:07Z</time>
      </trkpt>
      <trkpt lat="42.32088" lon="2.34586">
        <ele>962.87</ele>
        <time>2021-07-31T09:44:17Z</time>
      </trkpt>
      <trkpt lat="42.32087" lon="2.34542">
        <ele>963.66</ele>
        <time>2021-07-31T09:44:22Z</time>
      </trkpt>
      <trkpt lat="42.32075" lon="2.34503">
        <ele>964.04</ele>
        <time>2021-07-31T09:44:27Z</time>
      </trkpt>
      <trkpt lat="42.32052" lon="2.34463">
        <ele>964.66</ele>
        <time>2021-07-31T09:44:33Z</time>
      </trkpt>
      <trkpt lat="42.32033" lon="2.34439">
        <ele>964.87</ele>
        <time>2021-07-31T09:44:37Z</time>
      </trkpt>
      <trkpt lat="42.32033" lon="2.34396">
        <ele>965.46</ele>
        <time>2021-07-31T09:44:43Z</time>
      </trkpt>
      <trkpt lat="42.32036" lon="2.34364">
        <ele>966.2</ele>
        <time>2021-07-31T09:44:48Z</time>
      </trkpt>
      <trkpt lat="42.32026" lon="2.34306">
        <ele>968.81</ele>
        <time>2021-07-31T09:44:57Z</time>
      </trkpt>
      <trkpt lat="42.32013" lon="2.34237">
        <ele>970.72</ele>
        <time>2021-07-31T09:45:03Z</time>
      </trkpt>
      <trkpt lat="42.32035" lon="2.34165">
        <ele>972.71</ele>
        <time>2021-07-31T09:45:10Z</time>
      </trkpt>
      <trkpt lat="42.32046" lon="2.34136">
        <ele>973.49</ele>
        <time>2021-07-31T09:45:13Z</time>
      </trkpt>
      <trkpt lat="42.32071" lon="2.33996">
        <ele>975.68</ele>
        <time>2021-07-31T09:45:23Z</time>
      </trkpt>
      <trkpt lat="42.32119" lon="2.33915">
        <ele>977.36</ele>
        <time>2021-07-31T09:45:29Z</time>
      </trkpt>
      <trkpt lat="42.32176" lon="2.33856">
        <ele>979.78</ele>
        <time>2021-07-31T09:45:35Z</time>
      </trkpt>
      <trkpt lat="42.32199" lon="2.33806">
        <ele>980.72</ele>
        <time>2021-07-31T09:45:39Z</time>
      </trkpt>
      <trkpt lat="42.32245" lon="2.33734">
        <ele>981.65</ele>
        <time>2021-07-31T09:45:45Z</time>
      </trkpt>
      <trkpt lat="42.32285" lon="2.33612">
        <ele>983.36</ele>
        <time>2021-07-31T09:45:54Z</time>
      </trkpt>
      <trkpt lat="42.32323" lon="2.33471">
        <ele>985.75</ele>
        <time>2021-07-31T09:46:02Z</time>
      </trkpt>
      <trkpt lat="42.32409" lon="2.33315">
        <ele>989.04</ele>
        <time>2021-07-31T09:46:11Z</time>
      </trkpt>
      <trkpt lat="42.32437" lon="2.33259">
        <ele>990.43</ele>
        <time>2021-07-31T09:46:14Z</time>
      </trkpt>
      <trkpt lat="42.32449" lon="2.33194">
        <ele>991.68</ele>
        <time>2021-07-31T09:46:17Z</time>
      </trkpt>
      <trkpt lat="42.32448" lon="2.33171">
        <ele>991.91</ele>
        <time>2021-07-31T09:46:18Z</time>
      </trkpt>
      <trkpt lat="42.32462" lon="2.33068">
        <ele>993.2</ele>
        <time>2021-07-31T09:46:23Z</time>
      </trkpt>
      <trkpt lat="42.32489" lon="2.3302">
        <ele>994.05</ele>
        <time>2021-07-31T09:46:26Z</time>
      </trkpt>
      <trkpt lat="42.32547" lon="2.32866">
        <ele>996.21</ele>
        <time>2021-07-31T09:46:34Z</time>
      </trkpt>
      <trkpt lat="42.32554" lon="2.3285">
        <ele>996.48</ele>
        <time>2021-07-31T09:46:35Z</time>
      </trkpt>
      <trkpt lat="42.32565" lon="2.32766">
        <ele>997.65</ele>
        <time>2021-07-31T09:46:40Z</time>
      </trkpt>
      <trkpt lat="42.32562" lon="2.32715">
        <ele>998.43</ele>
        <time>2021-07-31T09:46:43Z</time>
      </trkpt>
      <trkpt lat="42.32588" lon="2.32554">
        <ele>1000.5</ele>
        <time>2021-07-31T09:46:52Z</time>
      </trkpt>
      <trkpt lat="42.32626" lon="2.32347">
        <ele>1003.76</ele>
        <time>2021-07-31T09:47:02Z</time>
      </trkpt>
      <trkpt lat="42.32652" lon="2.32201">
        <ele>1006.89</ele>
        <time>2021-07-31T09:47:09Z</time>
      </trkpt>
      <trkpt lat="42.32676" lon="2.32084">
        <ele>1010.01</ele>
        <time>2021-07-31T09:47:15Z</time>
      </trkpt>
      <trkpt lat="42.32712" lon="2.31977">
        <ele>1013.17</ele>
        <time>2021-07-31T09:47:21Z</time>
      </trkpt>
      <trkpt lat="42.32761" lon="2.31837">
        <ele>1015.75</ele>
        <time>2021-07-31T09:47:29Z</time>
      </trkpt>
      <trkpt lat="42.32852" lon="2.31659">
        <ele>1018.79</ele>
        <time>2021-07-31T09:47:40Z</time>
      </trkpt>
      <trkpt lat="42.32865" lon="2.31586">
        <ele>1020.8</ele>
        <time>2021-07-31T09:47:44Z</time>
      </trkpt>
      <trkpt lat="42.32893" lon="2.31439">
        <ele>1024.51</ele>
        <time>2021-07-31T09:47:52Z</time>
      </trkpt>
      <trkpt lat="42.32932" lon="2.31314">
        <ele>1027.17</ele>
        <time>2021-07-31T09:48:00Z</time>
      </trkpt>
      <trkpt lat="42.32958" lon="2.31216">
        <ele>1029.52</ele>
        <time>2021-07-31T09:48:09Z</time>
      </trkpt>
      <trkpt lat="42.32989" lon="2.31138">
        <ele>1030.74</ele>
        <time>2021-07-31T09:48:17Z</time>
      </trkpt>
      <trkpt lat="42.33034" lon="2.31102">
        <ele>1031.65</ele>
        <time>2021-07-31T09:48:22Z</time>
      </trkpt>
      <trkpt lat="42.33092" lon="2.31084">
        <ele>1034.83</ele>
        <time>2021-07-31T09:48:30Z</time>
      </trkpt>
      <trkpt lat="42.33103" lon="2.31077">
        <ele>1035.98</ele>
        <time>2021-07-31T09:48:33Z</time>
      </trkpt>
      <trkpt lat="42.33158" lon="2.31004">
        <ele>1039.42</ele>
        <time>2021-07-31T09:48:45Z</time>
      </trkpt>
      <trkpt lat="42.33223" lon="2.30917">
        <ele>1042.76</ele>
        <time>2021-07-31T09:48:55Z</time>
      </trkpt>
      <trkpt lat="42.33307" lon="2.30835">
        <ele>1045.36</ele>
        <time>2021-07-31T09:49:03Z</time>
      </trkpt>
      <trkpt lat="42.33343" lon="2.30791">
        <ele>1047.27</ele>
        <time>2021-07-31T09:49:07Z</time>
      </trkpt>
      <trkpt lat="42.33359" lon="2.30773">
        <ele>1047.94</ele>
        <time>2021-07-31T09:49:09Z</time>
      </trkpt>
      <trkpt lat="42.33406" lon="2.30731">
        <ele>1048.8</ele>
        <time>2021-07-31T09:49:17Z</time>
      </trkpt>
      <trkpt lat="42.33486" lon="2.30659">
        <ele>1051.16</ele>
        <time>2021-07-31T09:49:26Z</time>
      </trkpt>
      <trkpt lat="42.33564" lon="2.30591">
        <ele>1054.17</ele>
        <time>2021-07-31T09:49:35Z</time>
      </trkpt>
      <trkpt lat="42.33657" lon="2.30544">
        <ele>1057.49</ele>
        <time>2021-07-31T09:49:43Z</time>
      </trkpt>
      <trkpt lat="42.33724" lon="2.30491">
        <ele>1061.03</ele>
        <time>2021-07-31T09:49:48Z</time>
      </trkpt>
      <trkpt lat="42.33738" lon="2.30482">
        <ele>1061.62</ele>
        <time>2021-07-31T09:49:49Z</time>
      </trkpt>
      <trkpt lat="42.33819" lon="2.30473">
        <ele>1063.77</ele>
        <time>2021-07-31T09:49:55Z</time>
      </trkpt>
      <trkpt lat="42.33886" lon="2.3043">
        <ele>1065.99</ele>
        <time>2021-07-31T09:50:01Z</time>
      </trkpt>
      <trkpt lat="42.33904" lon="2.30402">
        <ele>1066.85</ele>
        <time>2021-07-31T09:50:03Z</time>
      </trkpt>
      <trkpt lat="42.33988" lon="2.30347">
        <ele>1069.12</ele>
        <time>2021-07-31T09:50:10Z</time>
      </trkpt>
      <trkpt lat="42.33998" lon="2.3034">
        <ele>1069.39</ele>
        <time>2021-07-31T09:50:11Z</time>
      </trkpt>
      <trkpt lat="42.34037" lon="2.30244">
        <ele>1071.66</ele>
        <time>2021-07-31T09:50:18Z</time>
      </trkpt>
      <trkpt lat="42.34093" lon="2.3011">
        <ele>1074.5</ele>
        <time>2021-07-31T09:50:26Z</time>
      </trkpt>
      <trkpt lat="42.34171" lon="2.3001">
        <ele>1077</ele>
        <time>2021-07-31T09:50:33Z</time>
      </trkpt>
      <trkpt lat="42.34214" lon="2.29912">
        <ele>1079.41</ele>
        <time>2021-07-31T09:50:39Z</time>
      </trkpt>
      <trkpt lat="42.34229" lon="2.29852">
        <ele>1081.16</ele>
        <time>2021-07-31T09:50:43Z</time>
      </trkpt>
      <trkpt lat="42.34235" lon="2.29836">
        <ele>1081.83</ele>
        <time>2021-07-31T09:50:45Z</time>
      </trkpt>
      <trkpt lat="42.34219" lon="2.298">
        <ele>1084.02</ele>
        <time>2021-07-31T09:50:51Z</time>
      </trkpt>
      <trkpt lat="42.34215" lon="2.2979">
        <ele>1084.28</ele>
        <time>2021-07-31T09:50:52Z</time>
      </trkpt>
      <trkpt lat="42.34194" lon="2.29744">
        <ele>1085.42</ele>
        <time>2021-07-31T09:50:56Z</time>
      </trkpt>
      <trkpt lat="42.34177" lon="2.29723">
        <ele>1086.05</ele>
        <time>2021-07-31T09:50:58Z</time>
      </trkpt>
      <trkpt lat="42.34156" lon="2.29698">
        <ele>1086.61</ele>
        <time>2021-07-31T09:51:00Z</time>
      </trkpt>
      <trkpt lat="42.34125" lon="2.29604">
        <ele>1088.39</ele>
        <time>2021-07-31T09:51:05Z</time>
      </trkpt>
      <trkpt lat="42.34116" lon="2.29564">
        <ele>1089.56</ele>
        <time>2021-07-31T09:51:07Z</time>
      </trkpt>
      <trkpt lat="42.34064" lon="2.29445">
        <ele>1093.5</ele>
        <time>2021-07-31T09:51:13Z</time>
      </trkpt>
      <trkpt lat="42.34034" lon="2.29361">
        <ele>1096.96</ele>
        <time>2021-07-31T09:51:17Z</time>
      </trkpt>
      <trkpt lat="42.34008" lon="2.29272">
        <ele>1100.91</ele>
        <time>2021-07-31T09:51:21Z</time>
      </trkpt>
      <trkpt lat="42.34" lon="2.29252">
        <ele>1101.97</ele>
        <time>2021-07-31T09:51:22Z</time>
      </trkpt>
      <trkpt lat="42.3395" lon="2.29158">
        <ele>1106.59</ele>
        <time>2021-07-31T09:51:27Z</time>
      </trkpt>
      <trkpt lat="42.33922" lon="2.29111">
        <ele>1109.26</ele>
        <time>2021-07-31T09:51:30Z</time>
      </trkpt>
      <trkpt lat="42.33861" lon="2.29045">
        <ele>1114.15</ele>
        <time>2021-07-31T09:51:35Z</time>
      </trkpt>
      <trkpt lat="42.33826" lon="2.29009">
        <ele>1117.34</ele>
        <time>2021-07-31T09:51:38Z</time>
      </trkpt>
      <trkpt lat="42.33788" lon="2.28956">
        <ele>1121.53</ele>
        <time>2021-07-31T09:51:42Z</time>
      </trkpt>
      <trkpt lat="42.33744" lon="2.28912">
        <ele>1125.93</ele>
        <time>2021-07-31T09:51:46Z</time>
      </trkpt>
      <trkpt lat="42.33718" lon="2.28885">
        <ele>1129</ele>
        <time>2021-07-31T09:51:49Z</time>
      </trkpt>
      <trkpt lat="42.33722" lon="2.28845">
        <ele>1132.68</ele>
        <time>2021-07-31T09:51:54Z</time>
      </trkpt>
      <trkpt lat="42.33749" lon="2.28872">
        <ele>1135.14</ele>
        <time>2021-07-31T09:51:58Z</time>
      </trkpt>
      <trkpt lat="42.33769" lon="2.28906">
        <ele>1137.32</ele>
        <time>2021-07-31T09:52:01Z</time>
      </trkpt>
      <trkpt lat="42.33821" lon="2.28946">
        <ele>1141.18</ele>
        <time>2021-07-31T09:52:06Z</time>
      </trkpt>
      <trkpt lat="42.33853" lon="2.28973">
        <ele>1144.55</ele>
        <time>2021-07-31T09:52:10Z</time>
      </trkpt>
      <trkpt lat="42.33906" lon="2.28974">
        <ele>1148.44</ele>
        <time>2021-07-31T09:52:16Z</time>
      </trkpt>
      <trkpt lat="42.33943" lon="2.28978">
        <ele>1151.51</ele>
        <time>2021-07-31T09:52:21Z</time>
      </trkpt>
      <trkpt lat="42.33963" lon="2.29021">
        <ele>1154.56</ele>
        <time>2021-07-31T09:52:26Z</time>
      </trkpt>
      <trkpt lat="42.33968" lon="2.29023">
        <ele>1154.84</ele>
        <time>2021-07-31T09:52:27Z</time>
      </trkpt>
      <trkpt lat="42.33982" lon="2.29023">
        <ele>1155.56</ele>
        <time>2021-07-31T09:52:30Z</time>
      </trkpt>
      <trkpt lat="42.34004" lon="2.29049">
        <ele>1156.63</ele>
        <time>2021-07-31T09:52:36Z</time>
      </trkpt>
      <trkpt lat="42.34025" lon="2.2912">
        <ele>1157.92</ele>
        <time>2021-07-31T09:52:42Z</time>
      </trkpt>
      <trkpt lat="42.34057" lon="2.2917">
        <ele>1159.74</ele>
        <time>2021-07-31T09:52:47Z</time>
      </trkpt>
      <trkpt lat="42.34119" lon="2.29166">
        <ele>1163.1</ele>
        <time>2021-07-31T09:52:54Z</time>
      </trkpt>
      <trkpt lat="42.34163" lon="2.29199">
        <ele>1167.5</ele>
        <time>2021-07-31T09:53:01Z</time>
      </trkpt>
      <trkpt lat="42.34157" lon="2.29228">
        <ele>1168.8</ele>
        <time>2021-07-31T09:53:03Z</time>
      </trkpt>
      <trkpt lat="42.34182" lon="2.29327">
        <ele>1172.61</ele>
        <time>2021-07-31T09:53:10Z</time>
      </trkpt>
      <trkpt lat="42.34215" lon="2.29397">
        <ele>1176.36</ele>
        <time>2021-07-31T09:53:15Z</time>
      </trkpt>
      <trkpt lat="42.34233" lon="2.29436">
        <ele>1179.67</ele>
        <time>2021-07-31T09:53:19Z</time>
      </trkpt>
      <trkpt lat="42.34242" lon="2.29436">
        <ele>1183.95</ele>
        <time>2021-07-31T09:53:25Z</time>
      </trkpt>
      <trkpt lat="42.34221" lon="2.29405">
        <ele>1185.88</ele>
        <time>2021-07-31T09:53:28Z</time>
      </trkpt>
      <trkpt lat="42.342" lon="2.29326">
        <ele>1188.92</ele>
        <time>2021-07-31T09:53:33Z</time>
      </trkpt>
      <trkpt lat="42.34188" lon="2.29258">
        <ele>1192.21</ele>
        <time>2021-07-31T09:53:37Z</time>
      </trkpt>
      <trkpt lat="42.34197" lon="2.29212">
        <ele>1195.22</ele>
        <time>2021-07-31T09:53:41Z</time>
      </trkpt>
      <trkpt lat="42.34203" lon="2.29163">
        <ele>1198.67</ele>
        <time>2021-07-31T09:53:46Z</time>
      </trkpt>
      <trkpt lat="42.34197" lon="2.29141">
        <ele>1200.06</ele>
        <time>2021-07-31T09:53:48Z</time>
      </trkpt>
      <trkpt lat="42.34195" lon="2.29093">
        <ele>1202.32</ele>
        <time>2021-07-31T09:53:52Z</time>
      </trkpt>
      <trkpt lat="42.34155" lon="2.29078">
        <ele>1206.04</ele>
        <time>2021-07-31T09:53:58Z</time>
      </trkpt>
      <trkpt lat="42.34123" lon="2.29087">
        <ele>1207.63</ele>
        <time>2021-07-31T09:54:01Z</time>
      </trkpt>
      <trkpt lat="42.34086" lon="2.29041">
        <ele>1211.3</ele>
        <time>2021-07-31T09:54:07Z</time>
      </trkpt>
      <trkpt lat="42.34085" lon="2.29029">
        <ele>1211.73</ele>
        <time>2021-07-31T09:54:08Z</time>
      </trkpt>
      <trkpt lat="42.34082" lon="2.28994">
        <ele>1214.92</ele>
        <time>2021-07-31T09:54:15Z</time>
      </trkpt>
      <trkpt lat="42.34081" lon="2.28979">
        <ele>1216.84</ele>
        <time>2021-07-31T09:54:25Z</time>
      </trkpt>
      <trkpt lat="42.3408" lon="2.28974">
        <ele>1217</ele>
        <time>2021-07-31T09:54:26Z</time>
      </trkpt>
      <trkpt lat="42.34081" lon="2.28952">
        <ele>1217.5</ele>
        <time>2021-07-31T09:54:29Z</time>
      </trkpt>
      <trkpt lat="42.34085" lon="2.28925">
        <ele>1218.02</ele>
        <time>2021-07-31T09:54:32Z</time>
      </trkpt>
      <trkpt lat="42.3407" lon="2.28887">
        <ele>1219.74</ele>
        <time>2021-07-31T09:54:37Z</time>
      </trkpt>
      <trkpt lat="42.34059" lon="2.2887">
        <ele>1220.46</ele>
        <time>2021-07-31T09:54:39Z</time>
      </trkpt>
      <trkpt lat="42.34045" lon="2.28767">
        <ele>1223.87</ele>
        <time>2021-07-31T09:54:47Z</time>
      </trkpt>
      <trkpt lat="42.34007" lon="2.28714">
        <ele>1227.37</ele>
        <time>2021-07-31T09:54:52Z</time>
      </trkpt>
      <trkpt lat="42.33983" lon="2.28715">
        <ele>1229.73</ele>
        <time>2021-07-31T09:54:55Z</time>
      </trkpt>
      <trkpt lat="42.33945" lon="2.28693">
        <ele>1234.09</ele>
        <time>2021-07-31T09:55:01Z</time>
      </trkpt>
      <trkpt lat="42.33902" lon="2.28643">
        <ele>1238.17</ele>
        <time>2021-07-31T09:55:07Z</time>
      </trkpt>
      <trkpt lat="42.33882" lon="2.286">
        <ele>1241.15</ele>
        <time>2021-07-31T09:55:11Z</time>
      </trkpt>
      <trkpt lat="42.33869" lon="2.28522">
        <ele>1245.75</ele>
        <time>2021-07-31T09:55:16Z</time>
      </trkpt>
      <trkpt lat="42.33867" lon="2.28446">
        <ele>1249.91</ele>
        <time>2021-07-31T09:55:20Z</time>
      </trkpt>
      <trkpt lat="42.33863" lon="2.2839">
        <ele>1253.43</ele>
        <time>2021-07-31T09:55:23Z</time>
      </trkpt>
      <trkpt lat="42.33863" lon="2.28371">
        <ele>1254.53</ele>
        <time>2021-07-31T09:55:24Z</time>
      </trkpt>
      <trkpt lat="42.33875" lon="2.2831">
        <ele>1258.63</ele>
        <time>2021-07-31T09:55:28Z</time>
      </trkpt>
      <trkpt lat="42.33896" lon="2.28268">
        <ele>1261.4</ele>
        <time>2021-07-31T09:55:31Z</time>
      </trkpt>
      <trkpt lat="42.33938" lon="2.28219">
        <ele>1266.36</ele>
        <time>2021-07-31T09:55:36Z</time>
      </trkpt>
      <trkpt lat="42.33934" lon="2.28188">
        <ele>1269.08</ele>
        <time>2021-07-31T09:55:39Z</time>
      </trkpt>
      <trkpt lat="42.33942" lon="2.28124">
        <ele>1274.04</ele>
        <time>2021-07-31T09:55:45Z</time>
      </trkpt>
      <trkpt lat="42.33959" lon="2.2809">
        <ele>1277.81</ele>
        <time>2021-07-31T09:55:52Z</time>
      </trkpt>
      <trkpt lat="42.33971" lon="2.28052">
        <ele>1281.12</ele>
        <time>2021-07-31T09:56:00Z</time>
      </trkpt>
      <trkpt lat="42.33985" lon="2.27967">
        <ele>1284.2</ele>
        <time>2021-07-31T09:56:07Z</time>
      </trkpt>
      <trkpt lat="42.33989" lon="2.27918">
        <ele>1286.61</ele>
        <time>2021-07-31T09:56:11Z</time>
      </trkpt>
      <trkpt lat="42.33998" lon="2.27909">
        <ele>1287.84</ele>
        <time>2021-07-31T09:56:14Z</time>
      </trkpt>
      <trkpt lat="42.34001" lon="2.27941">
        <ele>1289.09</ele>
        <time>2021-07-31T09:56:18Z</time>
      </trkpt>
      <trkpt lat="42.33991" lon="2.28044">
        <ele>1292.63</ele>
        <time>2021-07-31T09:56:25Z</time>
      </trkpt>
      <trkpt lat="42.3399" lon="2.28059">
        <ele>1293.26</ele>
        <time>2021-07-31T09:56:26Z</time>
      </trkpt>
      <trkpt lat="42.33986" lon="2.28085">
        <ele>1294.35</ele>
        <time>2021-07-31T09:56:28Z</time>
      </trkpt>
      <trkpt lat="42.33993" lon="2.28156">
        <ele>1297.62</ele>
        <time>2021-07-31T09:56:34Z</time>
      </trkpt>
      <trkpt lat="42.34017" lon="2.28204">
        <ele>1299.61</ele>
        <time>2021-07-31T09:56:38Z</time>
      </trkpt>
      <trkpt lat="42.34025" lon="2.2824">
        <ele>1301.28</ele>
        <time>2021-07-31T09:56:41Z</time>
      </trkpt>
      <trkpt lat="42.34005" lon="2.28312">
        <ele>1305.38</ele>
        <time>2021-07-31T09:56:48Z</time>
      </trkpt>
      <trkpt lat="42.33998" lon="2.28321">
        <ele>1305.96</ele>
        <time>2021-07-31T09:56:49Z</time>
      </trkpt>
      <trkpt lat="42.33972" lon="2.28351">
        <ele>1308.03</ele>
        <time>2021-07-31T09:56:53Z</time>
      </trkpt>
      <trkpt lat="42.33975" lon="2.28411">
        <ele>1310.77</ele>
        <time>2021-07-31T09:56:59Z</time>
      </trkpt>
      <trkpt lat="42.3398" lon="2.28421">
        <ele>1311.26</ele>
        <time>2021-07-31T09:57:00Z</time>
      </trkpt>
      <trkpt lat="42.34036" lon="2.28501">
        <ele>1315.09</ele>
        <time>2021-07-31T09:57:09Z</time>
      </trkpt>
      <trkpt lat="42.34044" lon="2.2851">
        <ele>1315.54</ele>
        <time>2021-07-31T09:57:10Z</time>
      </trkpt>
      <trkpt lat="42.34103" lon="2.28552">
        <ele>1319.09</ele>
        <time>2021-07-31T09:57:16Z</time>
      </trkpt>
      <trkpt lat="42.34141" lon="2.28583">
        <ele>1322.12</ele>
        <time>2021-07-31T09:57:20Z</time>
      </trkpt>
      <trkpt lat="42.34166" lon="2.28607">
        <ele>1325.58</ele>
        <time>2021-07-31T09:57:23Z</time>
      </trkpt>
      <trkpt lat="42.34191" lon="2.2865">
        <ele>1329.73</ele>
        <time>2021-07-31T09:57:28Z</time>
      </trkpt>
      <trkpt lat="42.34192" lon="2.28656">
        <ele>1330.3</ele>
        <time>2021-07-31T09:57:29Z</time>
      </trkpt>
      <trkpt lat="42.34195" lon="2.28665">
        <ele>1331.04</ele>
        <time>2021-07-31T09:57:31Z</time>
      </trkpt>
      <trkpt lat="42.34207" lon="2.28686">
        <ele>1332.09</ele>
        <time>2021-07-31T09:57:35Z</time>
      </trkpt>
      <trkpt lat="42.34216" lon="2.2872">
        <ele>1333.08</ele>
        <time>2021-07-31T09:57:39Z</time>
      </trkpt>
      <trkpt lat="42.34245" lon="2.28771">
        <ele>1334.03</ele>
        <time>2021-07-31T09:57:45Z</time>
      </trkpt>
      <trkpt lat="42.34323" lon="2.28821">
        <ele>1336.2</ele>
        <time>2021-07-31T09:57:54Z</time>
      </trkpt>
      <trkpt lat="42.34347" lon="2.28845">
        <ele>1337.29</ele>
        <time>2021-07-31T09:57:58Z</time>
      </trkpt>
      <trkpt lat="42.34366" lon="2.28867">
        <ele>1338.38</ele>
        <time>2021-07-31T09:58:01Z</time>
      </trkpt>
      <trkpt lat="42.34414" lon="2.28968">
        <ele>1342.19</ele>
        <time>2021-07-31T09:58:10Z</time>
      </trkpt>
      <trkpt lat="42.34421" lon="2.28958">
        <ele>1345.35</ele>
        <time>2021-07-31T09:58:16Z</time>
      </trkpt>
      <trkpt lat="42.34416" lon="2.28941">
        <ele>1346.19</ele>
        <time>2021-07-31T09:58:18Z</time>
      </trkpt>
      <trkpt lat="42.34397" lon="2.28857">
        <ele>1349.74</ele>
        <time>2021-07-31T09:58:25Z</time>
      </trkpt>
      <trkpt lat="42.34385" lon="2.28805">
        <ele>1353.06</ele>
        <time>2021-07-31T09:58:32Z</time>
      </trkpt>
      <trkpt lat="42.3438" lon="2.28782">
        <ele>1356.33</ele>
        <time>2021-07-31T09:58:39Z</time>
      </trkpt>
      <trkpt lat="42.34379" lon="2.28783">
        <ele>1359.24</ele>
        <time>2021-07-31T09:58:57Z</time>
      </trkpt>
      <trkpt lat="42.3438" lon="2.2878">
        <ele>1359.56</ele>
        <time>2021-07-31T09:59:29Z</time>
      </trkpt>
      <trkpt lat="42.34391" lon="2.28778">
        <ele>1359.81</ele>
        <time>2021-07-31T09:59:33Z</time>
      </trkpt>
      <trkpt lat="42.34422" lon="2.28798">
        <ele>1362.01</ele>
        <time>2021-07-31T09:59:40Z</time>
      </trkpt>
      <trkpt lat="42.34449" lon="2.28845">
        <ele>1365.61</ele>
        <time>2021-07-31T09:59:47Z</time>
      </trkpt>
      <trkpt lat="42.34456" lon="2.28854">
        <ele>1366.82</ele>
        <time>2021-07-31T09:59:49Z</time>
      </trkpt>
      <trkpt lat="42.34481" lon="2.28875">
        <ele>1369.51</ele>
        <time>2021-07-31T09:59:54Z</time>
      </trkpt>
      <trkpt lat="42.34503" lon="2.28856">
        <ele>1373.48</ele>
        <time>2021-07-31T10:00:00Z</time>
      </trkpt>
      <trkpt lat="42.34496" lon="2.28838">
        <ele>1374.84</ele>
        <time>2021-07-31T10:00:02Z</time>
      </trkpt>
      <trkpt lat="42.34482" lon="2.28807">
        <ele>1376.96</ele>
        <time>2021-07-31T10:00:05Z</time>
      </trkpt>
      <trkpt lat="42.34464" lon="2.28742">
        <ele>1380.91</ele>
        <time>2021-07-31T10:00:10Z</time>
      </trkpt>
      <trkpt lat="42.34444" lon="2.2869">
        <ele>1384.34</ele>
        <time>2021-07-31T10:00:14Z</time>
      </trkpt>
      <trkpt lat="42.34425" lon="2.28637">
        <ele>1388.18</ele>
        <time>2021-07-31T10:00:18Z</time>
      </trkpt>
      <trkpt lat="42.34413" lon="2.28609">
        <ele>1391.25</ele>
        <time>2021-07-31T10:00:21Z</time>
      </trkpt>
      <trkpt lat="42.34408" lon="2.28602">
        <ele>1392.21</ele>
        <time>2021-07-31T10:00:22Z</time>
      </trkpt>
      <trkpt lat="42.34388" lon="2.28584">
        <ele>1396.02</ele>
        <time>2021-07-31T10:00:26Z</time>
      </trkpt>
      <trkpt lat="42.34374" lon="2.28579">
        <ele>1398.12</ele>
        <time>2021-07-31T10:00:29Z</time>
      </trkpt>
      <trkpt lat="42.34351" lon="2.28565">
        <ele>1400.86</ele>
        <time>2021-07-31T10:00:33Z</time>
      </trkpt>
      <trkpt lat="42.34314" lon="2.2851">
        <ele>1405.39</ele>
        <time>2021-07-31T10:00:39Z</time>
      </trkpt>
      <trkpt lat="42.34291" lon="2.28468">
        <ele>1410.25</ele>
        <time>2021-07-31T10:00:43Z</time>
      </trkpt>
      <trkpt lat="42.3427" lon="2.28424">
        <ele>1414.17</ele>
        <time>2021-07-31T10:00:47Z</time>
      </trkpt>
      <trkpt lat="42.34269" lon="2.28368">
        <ele>1418.2</ele>
        <time>2021-07-31T10:00:51Z</time>
      </trkpt>
      <trkpt lat="42.34275" lon="2.28339">
        <ele>1420.42</ele>
        <time>2021-07-31T10:00:53Z</time>
      </trkpt>
      <trkpt lat="42.3429" lon="2.28283">
        <ele>1424.9</ele>
        <time>2021-07-31T10:00:57Z</time>
      </trkpt>
      <trkpt lat="42.34294" lon="2.28271">
        <ele>1426.02</ele>
        <time>2021-07-31T10:00:58Z</time>
      </trkpt>
      <trkpt lat="42.34326" lon="2.28213">
        <ele>1431.03</ele>
        <time>2021-07-31T10:01:03Z</time>
      </trkpt>
      <trkpt lat="42.34347" lon="2.28176">
        <ele>1434.38</ele>
        <time>2021-07-31T10:01:06Z</time>
      </trkpt>
      <trkpt lat="42.34363" lon="2.28144">
        <ele>1437.45</ele>
        <time>2021-07-31T10:01:09Z</time>
      </trkpt>
      <trkpt lat="42.34383" lon="2.28095">
        <ele>1440.79</ele>
        <time>2021-07-31T10:01:13Z</time>
      </trkpt>
      <trkpt lat="42.34406" lon="2.28038">
        <ele>1444.68</ele>
        <time>2021-07-31T10:01:17Z</time>
      </trkpt>
      <trkpt lat="42.34418" lon="2.28011">
        <ele>1446.92</ele>
        <time>2021-07-31T10:01:19Z</time>
      </trkpt>
      <trkpt lat="42.34445" lon="2.28006">
        <ele>1451.64</ele>
        <time>2021-07-31T10:01:24Z</time>
      </trkpt>
      <trkpt lat="42.3444" lon="2.28049">
        <ele>1454.75</ele>
        <time>2021-07-31T10:01:28Z</time>
      </trkpt>
      <trkpt lat="42.3443" lon="2.2814">
        <ele>1460.12</ele>
        <time>2021-07-31T10:01:34Z</time>
      </trkpt>
      <trkpt lat="42.34428" lon="2.28193">
        <ele>1463.64</ele>
        <time>2021-07-31T10:01:37Z</time>
      </trkpt>
      <trkpt lat="42.34426" lon="2.28243">
        <ele>1467.66</ele>
        <time>2021-07-31T10:01:40Z</time>
      </trkpt>
      <trkpt lat="42.34425" lon="2.28256">
        <ele>1468.91</ele>
        <time>2021-07-31T10:01:41Z</time>
      </trkpt>
      <trkpt lat="42.34436" lon="2.28304">
        <ele>1473.15</ele>
        <time>2021-07-31T10:01:45Z</time>
      </trkpt>
      <trkpt lat="42.34453" lon="2.28321">
        <ele>1475.2</ele>
        <time>2021-07-31T10:01:47Z</time>
      </trkpt>
      <trkpt lat="42.34491" lon="2.28356">
        <ele>1478.92</ele>
        <time>2021-07-31T10:01:51Z</time>
      </trkpt>
      <trkpt lat="42.34528" lon="2.28367">
        <ele>1483.27</ele>
        <time>2021-07-31T10:01:55Z</time>
      </trkpt>
      <trkpt lat="42.34548" lon="2.28356">
        <ele>1485.27</ele>
        <time>2021-07-31T10:01:57Z</time>
      </trkpt>
      <trkpt lat="42.34589" lon="2.2833">
        <ele>1489.31</ele>
        <time>2021-07-31T10:02:01Z</time>
      </trkpt>
      <trkpt lat="42.34616" lon="2.28314">
        <ele>1492.38</ele>
        <time>2021-07-31T10:02:04Z</time>
      </trkpt>
      <trkpt lat="42.34653" lon="2.28291">
        <ele>1495.89</ele>
        <time>2021-07-31T10:02:08Z</time>
      </trkpt>
      <trkpt lat="42.34679" lon="2.2827">
        <ele>1498.93</ele>
        <time>2021-07-31T10:02:11Z</time>
      </trkpt>
      <trkpt lat="42.34713" lon="2.28236">
        <ele>1502.49</ele>
        <time>2021-07-31T10:02:15Z</time>
      </trkpt>
      <trkpt lat="42.34739" lon="2.2821">
        <ele>1505.49</ele>
        <time>2021-07-31T10:02:18Z</time>
      </trkpt>
      <trkpt lat="42.34771" lon="2.28178">
        <ele>1509.21</ele>
        <time>2021-07-31T10:02:22Z</time>
      </trkpt>
      <trkpt lat="42.34795" lon="2.28153">
        <ele>1513.09</ele>
        <time>2021-07-31T10:02:25Z</time>
      </trkpt>
      <trkpt lat="42.3482" lon="2.28124">
        <ele>1516.1</ele>
        <time>2021-07-31T10:02:28Z</time>
      </trkpt>
      <trkpt lat="42.34848" lon="2.28096">
        <ele>1519.24</ele>
        <time>2021-07-31T10:02:31Z</time>
      </trkpt>
      <trkpt lat="42.34868" lon="2.2808">
        <ele>1521.51</ele>
        <time>2021-07-31T10:02:33Z</time>
      </trkpt>
      <trkpt lat="42.34909" lon="2.28066">
        <ele>1526.06</ele>
        <time>2021-07-31T10:02:37Z</time>
      </trkpt>
      <trkpt lat="42.34925" lon="2.28063">
        <ele>1528.25</ele>
        <time>2021-07-31T10:02:39Z</time>
      </trkpt>
      <trkpt lat="42.34925" lon="2.28037">
        <ele>1532.39</ele>
        <time>2021-07-31T10:02:44Z</time>
      </trkpt>
      <trkpt lat="42.34908" lon="2.28039">
        <ele>1533.66</ele>
        <time>2021-07-31T10:02:46Z</time>
      </trkpt>
      <trkpt lat="42.34852" lon="2.28059">
        <ele>1538.06</ele>
        <time>2021-07-31T10:02:51Z</time>
      </trkpt>
      <trkpt lat="42.34822" lon="2.28068">
        <ele>1541.17</ele>
        <time>2021-07-31T10:02:54Z</time>
      </trkpt>
      <trkpt lat="42.34792" lon="2.28077">
        <ele>1544.78</ele>
        <time>2021-07-31T10:02:58Z</time>
      </trkpt>
      <trkpt lat="42.34786" lon="2.28079">
        <ele>1545.61</ele>
        <time>2021-07-31T10:02:59Z</time>
      </trkpt>
      <trkpt lat="42.34766" lon="2.28051">
        <ele>1549.48</ele>
        <time>2021-07-31T10:03:05Z</time>
      </trkpt>
      <trkpt lat="42.34769" lon="2.2804">
        <ele>1550.86</ele>
        <time>2021-07-31T10:03:08Z</time>
      </trkpt>
      <trkpt lat="42.34806" lon="2.27972">
        <ele>1554.49</ele>
        <time>2021-07-31T10:03:18Z</time>
      </trkpt>
      <trkpt lat="42.34815" lon="2.27947">
        <ele>1555.71</ele>
        <time>2021-07-31T10:03:21Z</time>
      </trkpt>
      <trkpt lat="42.34824" lon="2.27871">
        <ele>1559.45</ele>
        <time>2021-07-31T10:03:28Z</time>
      </trkpt>
      <trkpt lat="42.34829" lon="2.27801">
        <ele>1562.85</ele>
        <time>2021-07-31T10:03:34Z</time>
      </trkpt>
      <trkpt lat="42.34827" lon="2.27746">
        <ele>1565.2</ele>
        <time>2021-07-31T10:03:38Z</time>
      </trkpt>
      <trkpt lat="42.34852" lon="2.2772">
        <ele>1569.27</ele>
        <time>2021-07-31T10:03:44Z</time>
      </trkpt>
      <trkpt lat="42.34857" lon="2.27763">
        <ele>1571.19</ele>
        <time>2021-07-31T10:03:47Z</time>
      </trkpt>
      <trkpt lat="42.3487" lon="2.27843">
        <ele>1575.13</ele>
        <time>2021-07-31T10:03:53Z</time>
      </trkpt>
      <trkpt lat="42.34879" lon="2.27875">
        <ele>1576.96</ele>
        <time>2021-07-31T10:03:56Z</time>
      </trkpt>
      <trkpt lat="42.34924" lon="2.27903">
        <ele>1581.05</ele>
        <time>2021-07-31T10:04:02Z</time>
      </trkpt>
      <trkpt lat="42.34942" lon="2.27893">
        <ele>1582.54</ele>
        <time>2021-07-31T10:04:04Z</time>
      </trkpt>
      <trkpt lat="42.34958" lon="2.27881">
        <ele>1583.86</ele>
        <time>2021-07-31T10:04:06Z</time>
      </trkpt>
      <trkpt lat="42.35011" lon="2.27883">
        <ele>1587.57</ele>
        <time>2021-07-31T10:04:12Z</time>
      </trkpt>
      <trkpt lat="42.3502" lon="2.27885">
        <ele>1588.18</ele>
        <time>2021-07-31T10:04:13Z</time>
      </trkpt>
      <trkpt lat="42.35066" lon="2.27875">
        <ele>1591.84</ele>
        <time>2021-07-31T10:04:18Z</time>
      </trkpt>
      <trkpt lat="42.35115" lon="2.27852">
        <ele>1596.32</ele>
        <time>2021-07-31T10:04:24Z</time>
      </trkpt>
      <trkpt lat="42.35152" lon="2.27832">
        <ele>1599.39</ele>
        <time>2021-07-31T10:04:28Z</time>
      </trkpt>
      <trkpt lat="42.3519" lon="2.2781">
        <ele>1602.98</ele>
        <time>2021-07-31T10:04:32Z</time>
      </trkpt>
      <trkpt lat="42.35229" lon="2.27792">
        <ele>1606.44</ele>
        <time>2021-07-31T10:04:36Z</time>
      </trkpt>
      <trkpt lat="42.35269" lon="2.27784">
        <ele>1610.11</ele>
        <time>2021-07-31T10:04:40Z</time>
      </trkpt>
      <trkpt lat="42.35307" lon="2.27778">
        <ele>1613.55</ele>
        <time>2021-07-31T10:04:44Z</time>
      </trkpt>
      <trkpt lat="42.35351" lon="2.27752">
        <ele>1618.14</ele>
        <time>2021-07-31T10:04:49Z</time>
      </trkpt>
      <trkpt lat="42.35384" lon="2.27729">
        <ele>1621.73</ele>
        <time>2021-07-31T10:04:53Z</time>
      </trkpt>
      <trkpt lat="42.3541" lon="2.27711">
        <ele>1625.21</ele>
        <time>2021-07-31T10:04:57Z</time>
      </trkpt>
      <trkpt lat="42.35406" lon="2.27679">
        <ele>1629.21</ele>
        <time>2021-07-31T10:05:03Z</time>
      </trkpt>
      <trkpt lat="42.35383" lon="2.27688">
        <ele>1631.2</ele>
        <time>2021-07-31T10:05:06Z</time>
      </trkpt>
      <trkpt lat="42.35358" lon="2.27702">
        <ele>1633.34</ele>
        <time>2021-07-31T10:05:09Z</time>
      </trkpt>
      <trkpt lat="42.35308" lon="2.27698">
        <ele>1637.2</ele>
        <time>2021-07-31T10:05:14Z</time>
      </trkpt>
      <trkpt lat="42.35264" lon="2.2768">
        <ele>1640.74</ele>
        <time>2021-07-31T10:05:18Z</time>
      </trkpt>
      <trkpt lat="42.3521" lon="2.27682">
        <ele>1644.88</ele>
        <time>2021-07-31T10:05:23Z</time>
      </trkpt>
      <trkpt lat="42.3517" lon="2.2769">
        <ele>1648.51</ele>
        <time>2021-07-31T10:05:27Z</time>
      </trkpt>
      <trkpt lat="42.35132" lon="2.27669">
        <ele>1652.89</ele>
        <time>2021-07-31T10:05:32Z</time>
      </trkpt>
      <trkpt lat="42.35107" lon="2.27617">
        <ele>1656.16</ele>
        <time>2021-07-31T10:05:37Z</time>
      </trkpt>
      <trkpt lat="42.3508" lon="2.27592">
        <ele>1658.23</ele>
        <time>2021-07-31T10:05:40Z</time>
      </trkpt>
      <trkpt lat="42.3506" lon="2.27578">
        <ele>1660.48</ele>
        <time>2021-07-31T10:05:42Z</time>
      </trkpt>
      <trkpt lat="42.35031" lon="2.27516">
        <ele>1664.87</ele>
        <time>2021-07-31T10:05:47Z</time>
      </trkpt>
      <trkpt lat="42.35018" lon="2.27452">
        <ele>1669.17</ele>
        <time>2021-07-31T10:05:52Z</time>
      </trkpt>
      <trkpt lat="42.35007" lon="2.27403">
        <ele>1672.19</ele>
        <time>2021-07-31T10:05:56Z</time>
      </trkpt>
      <trkpt lat="42.34993" lon="2.27335">
        <ele>1676</ele>
        <time>2021-07-31T10:06:01Z</time>
      </trkpt>
      <trkpt lat="42.3498" lon="2.27274">
        <ele>1679.52</ele>
        <time>2021-07-31T10:06:05Z</time>
      </trkpt>
      <trkpt lat="42.34966" lon="2.27212">
        <ele>1683.37</ele>
        <time>2021-07-31T10:06:09Z</time>
      </trkpt>
      <trkpt lat="42.34952" lon="2.27165">
        <ele>1686.84</ele>
        <time>2021-07-31T10:06:13Z</time>
      </trkpt>
      <trkpt lat="42.3495" lon="2.27156">
        <ele>1687.61</ele>
        <time>2021-07-31T10:06:14Z</time>
      </trkpt>
      <trkpt lat="42.34961" lon="2.27126">
        <ele>1691.84</ele>
        <time>2021-07-31T10:06:20Z</time>
      </trkpt>
      <trkpt lat="42.3498" lon="2.27161">
        <ele>1694.43</ele>
        <time>2021-07-31T10:06:25Z</time>
      </trkpt>
      <trkpt lat="42.34985" lon="2.27171">
        <ele>1694.91</ele>
        <time>2021-07-31T10:06:26Z</time>
      </trkpt>
      <trkpt lat="42.3502" lon="2.27241">
        <ele>1698.68</ele>
        <time>2021-07-31T10:06:32Z</time>
      </trkpt>
      <trkpt lat="42.35047" lon="2.27298">
        <ele>1702.19</ele>
        <time>2021-07-31T10:06:37Z</time>
      </trkpt>
      <trkpt lat="42.35072" lon="2.27351">
        <ele>1705.39</ele>
        <time>2021-07-31T10:06:42Z</time>
      </trkpt>
      <trkpt lat="42.35094" lon="2.27396">
        <ele>1708.44</ele>
        <time>2021-07-31T10:06:46Z</time>
      </trkpt>
      <trkpt lat="42.3514" lon="2.27424">
        <ele>1712.43</ele>
        <time>2021-07-31T10:06:51Z</time>
      </trkpt>
      <trkpt lat="42.35162" lon="2.27422">
        <ele>1713.82</ele>
        <time>2021-07-31T10:06:53Z</time>
      </trkpt>
      <trkpt lat="42.35222" lon="2.27407">
        <ele>1717.73</ele>
        <time>2021-07-31T10:06:58Z</time>
      </trkpt>
      <trkpt lat="42.35269" lon="2.27392">
        <ele>1721.53</ele>
        <time>2021-07-31T10:07:02Z</time>
      </trkpt>
      <trkpt lat="42.35317" lon="2.27358">
        <ele>1726.23</ele>
        <time>2021-07-31T10:07:07Z</time>
      </trkpt>
      <trkpt lat="42.35329" lon="2.27346">
        <ele>1729.5</ele>
        <time>2021-07-31T10:07:11Z</time>
      </trkpt>
      <trkpt lat="42.35331" lon="2.27344">
        <ele>1732.52</ele>
        <time>2021-07-31T10:07:18Z</time>
      </trkpt>
      <trkpt lat="42.35353" lon="2.27325">
        <ele>1734.35</ele>
        <time>2021-07-31T10:07:33Z</time>
      </trkpt>
      <trkpt lat="42.35401" lon="2.27283">
        <ele>1737.35</ele>
        <time>2021-07-31T10:07:41Z</time>
      </trkpt>
      <trkpt lat="42.35422" lon="2.27259">
        <ele>1739.05</ele>
        <time>2021-07-31T10:07:44Z</time>
      </trkpt>
      <trkpt lat="42.35456" lon="2.27188">
        <ele>1743.04</ele>
        <time>2021-07-31T10:07:50Z</time>
      </trkpt>
      <trkpt lat="42.35478" lon="2.27137">
        <ele>1746.14</ele>
        <time>2021-07-31T10:07:54Z</time>
      </trkpt>
      <trkpt lat="42.35501" lon="2.27086">
        <ele>1749.83</ele>
        <time>2021-07-31T10:07:58Z</time>
      </trkpt>
      <trkpt lat="42.35521" lon="2.27046">
        <ele>1753.26</ele>
        <time>2021-07-31T10:08:02Z</time>
      </trkpt>
      <trkpt lat="42.35511" lon="2.27012">
        <ele>1757.29</ele>
        <time>2021-07-31T10:08:07Z</time>
      </trkpt>
      <trkpt lat="42.35481" lon="2.27032">
        <ele>1759.6</ele>
        <time>2021-07-31T10:08:10Z</time>
      </trkpt>
      <trkpt lat="42.35461" lon="2.27049">
        <ele>1761.58</ele>
        <time>2021-07-31T10:08:12Z</time>
      </trkpt>
      <trkpt lat="42.35405" lon="2.27082">
        <ele>1766.3</ele>
        <time>2021-07-31T10:08:17Z</time>
      </trkpt>
      <trkpt lat="42.35363" lon="2.27119">
        <ele>1770.34</ele>
        <time>2021-07-31T10:08:21Z</time>
      </trkpt>
      <trkpt lat="42.35331" lon="2.27149">
        <ele>1773.55</ele>
        <time>2021-07-31T10:08:24Z</time>
      </trkpt>
      <trkpt lat="42.35319" lon="2.27157">
        <ele>1774.63</ele>
        <time>2021-07-31T10:08:25Z</time>
      </trkpt>
      <trkpt lat="42.35268" lon="2.27175">
        <ele>1779.94</ele>
        <time>2021-07-31T10:08:29Z</time>
      </trkpt>
      <trkpt lat="42.35235" lon="2.27176">
        <ele>1783.69</ele>
        <time>2021-07-31T10:08:32Z</time>
      </trkpt>
      <trkpt lat="42.35217" lon="2.27175">
        <ele>1785.45</ele>
        <time>2021-07-31T10:08:34Z</time>
      </trkpt>
      <trkpt lat="42.35191" lon="2.27142">
        <ele>1789.84</ele>
        <time>2021-07-31T10:08:40Z</time>
      </trkpt>
      <trkpt lat="42.3519" lon="2.27125">
        <ele>1791.09</ele>
        <time>2021-07-31T10:08:42Z</time>
      </trkpt>
      <trkpt lat="42.35189" lon="2.2705">
        <ele>1794.7</ele>
        <time>2021-07-31T10:08:49Z</time>
      </trkpt>
      <trkpt lat="42.35185" lon="2.26992">
        <ele>1798.03</ele>
        <time>2021-07-31T10:08:54Z</time>
      </trkpt>
      <trkpt lat="42.35176" lon="2.26933">
        <ele>1801.25</ele>
        <time>2021-07-31T10:08:59Z</time>
      </trkpt>
      <trkpt lat="42.35167" lon="2.269">
        <ele>1803.66</ele>
        <time>2021-07-31T10:09:02Z</time>
      </trkpt>
      <trkpt lat="42.35143" lon="2.2685">
        <ele>1808.16</ele>
        <time>2021-07-31T10:09:07Z</time>
      </trkpt>
      <trkpt lat="42.35128" lon="2.26822">
        <ele>1811.25</ele>
        <time>2021-07-31T10:09:10Z</time>
      </trkpt>
      <trkpt lat="42.3511" lon="2.26791">
        <ele>1814.62</ele>
        <time>2021-07-31T10:09:14Z</time>
      </trkpt>
      <trkpt lat="42.35098" lon="2.26765">
        <ele>1817.04</ele>
        <time>2021-07-31T10:09:18Z</time>
      </trkpt>
      <trkpt lat="42.35088" lon="2.26745">
        <ele>1820.8</ele>
        <time>2021-07-31T10:09:25Z</time>
      </trkpt>
      <trkpt lat="42.35086" lon="2.26741">
        <ele>1823.36</ele>
        <time>2021-07-31T10:09:41Z</time>
      </trkpt>
      <trkpt lat="42.35086" lon="2.26741">
        <ele>1825.46</ele>
        <time>2021-07-31T10:11:12Z</time>
      </trkpt>
      <trkpt lat="42.35086" lon="2.2674">
        <ele>1824.72</ele>
        <time>2021-07-31T10:12:52Z</time>
      </trkpt>
      <trkpt lat="42.35086" lon="2.2674">
        <ele>1824.72</ele>
        <time>2021-07-31T10:14:42Z</time>
      </trkpt>
      <trkpt lat="42.35087" lon="2.2674">
        <ele>1824.72</ele>
        <time>2021-07-31T10:15:26Z</time>
      </trkpt>
      <trkpt lat="42.35085" lon="2.26729">
        <ele>1824.72</ele>
        <time>2021-07-31T10:15:30Z</time>
      </trkpt>
      <trkpt lat="42.3506" lon="2.26661">
        <ele>1824.36</ele>
        <time>2021-07-31T10:15:39Z</time>
      </trkpt>
      <trkpt lat="42.35036" lon="2.266">
        <ele>1827.43</ele>
        <time>2021-07-31T10:15:45Z</time>
      </trkpt>
      <trkpt lat="42.35021" lon="2.26558">
        <ele>1830</ele>
        <time>2021-07-31T10:15:49Z</time>
      </trkpt>
      <trkpt lat="42.35014" lon="2.26526">
        <ele>1834.67</ele>
        <time>2021-07-31T10:15:54Z</time>
      </trkpt>
      <trkpt lat="42.35014" lon="2.26512">
        <ele>1837.7</ele>
        <time>2021-07-31T10:16:04Z</time>
      </trkpt>
      <trkpt lat="42.35018" lon="2.26451">
        <ele>1839.81</ele>
        <time>2021-07-31T10:16:11Z</time>
      </trkpt>
      <trkpt lat="42.35027" lon="2.26379">
        <ele>1843.12</ele>
        <time>2021-07-31T10:16:16Z</time>
      </trkpt>
      <trkpt lat="42.35032" lon="2.26334">
        <ele>1846.02</ele>
        <time>2021-07-31T10:16:19Z</time>
      </trkpt>
      <trkpt lat="42.35026" lon="2.26258">
        <ele>1851.06</ele>
        <time>2021-07-31T10:16:24Z</time>
      </trkpt>
      <trkpt lat="42.35027" lon="2.26195">
        <ele>1855.77</ele>
        <time>2021-07-31T10:16:28Z</time>
      </trkpt>
      <trkpt lat="42.35028" lon="2.26183">
        <ele>1856.89</ele>
        <time>2021-07-31T10:16:29Z</time>
      </trkpt>
      <trkpt lat="42.35023" lon="2.26136">
        <ele>1861.09</ele>
        <time>2021-07-31T10:16:33Z</time>
      </trkpt>
      <trkpt lat="42.35016" lon="2.26076">
        <ele>1864.93</ele>
        <time>2021-07-31T10:16:37Z</time>
      </trkpt>
      <trkpt lat="42.35016" lon="2.2603">
        <ele>1868.38</ele>
        <time>2021-07-31T10:16:40Z</time>
      </trkpt>
      <trkpt lat="42.35016" lon="2.25981">
        <ele>1872.03</ele>
        <time>2021-07-31T10:16:43Z</time>
      </trkpt>
      <trkpt lat="42.35017" lon="2.2593">
        <ele>1875.67</ele>
        <time>2021-07-31T10:16:46Z</time>
      </trkpt>
      <trkpt lat="42.35019" lon="2.2588">
        <ele>1879.87</ele>
        <time>2021-07-31T10:16:49Z</time>
      </trkpt>
      <trkpt lat="42.35032" lon="2.25834">
        <ele>1884.92</ele>
        <time>2021-07-31T10:16:53Z</time>
      </trkpt>
      <trkpt lat="42.35037" lon="2.25823">
        <ele>1888.34</ele>
        <time>2021-07-31T10:16:57Z</time>
      </trkpt>
      <trkpt lat="42.35037" lon="2.25824">
        <ele>1891.47</ele>
        <time>2021-07-31T10:17:04Z</time>
      </trkpt>
      <trkpt lat="42.35043" lon="2.25809">
        <ele>1894.13</ele>
        <time>2021-07-31T10:17:33Z</time>
      </trkpt>
      <trkpt lat="42.35065" lon="2.25752">
        <ele>1895.68</ele>
        <time>2021-07-31T10:17:42Z</time>
      </trkpt>
      <trkpt lat="42.35096" lon="2.2567">
        <ele>1899.36</ele>
        <time>2021-07-31T10:17:49Z</time>
      </trkpt>
      <trkpt lat="42.35108" lon="2.25616">
        <ele>1902.95</ele>
        <time>2021-07-31T10:17:53Z</time>
      </trkpt>
      <trkpt lat="42.35116" lon="2.2556">
        <ele>1906.51</ele>
        <time>2021-07-31T10:17:57Z</time>
      </trkpt>
      <trkpt lat="42.35125" lon="2.25516">
        <ele>1909.66</ele>
        <time>2021-07-31T10:18:00Z</time>
      </trkpt>
      <trkpt lat="42.35133" lon="2.25477">
        <ele>1912.79</ele>
        <time>2021-07-31T10:18:03Z</time>
      </trkpt>
      <trkpt lat="42.3514" lon="2.25438">
        <ele>1916.32</ele>
        <time>2021-07-31T10:18:07Z</time>
      </trkpt>
      <trkpt lat="42.35146" lon="2.254">
        <ele>1919.53</ele>
        <time>2021-07-31T10:18:11Z</time>
      </trkpt>
      <trkpt lat="42.35148" lon="2.25372">
        <ele>1923.05</ele>
        <time>2021-07-31T10:18:16Z</time>
      </trkpt>
      <trkpt lat="42.35141" lon="2.25319">
        <ele>1926.45</ele>
        <time>2021-07-31T10:18:23Z</time>
      </trkpt>
      <trkpt lat="42.3513" lon="2.25257">
        <ele>1929.65</ele>
        <time>2021-07-31T10:18:28Z</time>
      </trkpt>
      <trkpt lat="42.35127" lon="2.25237">
        <ele>1931.22</ele>
        <time>2021-07-31T10:18:30Z</time>
      </trkpt>
      <trkpt lat="42.35139" lon="2.2519">
        <ele>1935.37</ele>
        <time>2021-07-31T10:18:35Z</time>
      </trkpt>
      <trkpt lat="42.35162" lon="2.25174">
        <ele>1937.47</ele>
        <time>2021-07-31T10:18:38Z</time>
      </trkpt>
      <trkpt lat="42.35207" lon="2.25155">
        <ele>1941.26</ele>
        <time>2021-07-31T10:18:43Z</time>
      </trkpt>
      <trkpt lat="42.35241" lon="2.25153">
        <ele>1944.68</ele>
        <time>2021-07-31T10:18:47Z</time>
      </trkpt>
      <trkpt lat="42.35276" lon="2.25154">
        <ele>1947.9</ele>
        <time>2021-07-31T10:18:51Z</time>
      </trkpt>
      <trkpt lat="42.3531" lon="2.25155">
        <ele>1950.9</ele>
        <time>2021-07-31T10:18:55Z</time>
      </trkpt>
      <trkpt lat="42.35345" lon="2.25147">
        <ele>1954.13</ele>
        <time>2021-07-31T10:18:59Z</time>
      </trkpt>
      <trkpt lat="42.35381" lon="2.25131">
        <ele>1957.51</ele>
        <time>2021-07-31T10:19:03Z</time>
      </trkpt>
      <trkpt lat="42.35416" lon="2.2511">
        <ele>1961.19</ele>
        <time>2021-07-31T10:19:07Z</time>
      </trkpt>
      <trkpt lat="42.35452" lon="2.25085">
        <ele>1964.97</ele>
        <time>2021-07-31T10:19:11Z</time>
      </trkpt>
      <trkpt lat="42.35471" lon="2.25072">
        <ele>1966.96</ele>
        <time>2021-07-31T10:19:13Z</time>
      </trkpt>
      <trkpt lat="42.35509" lon="2.25022">
        <ele>1972.82</ele>
        <time>2021-07-31T10:19:18Z</time>
      </trkpt>
      <trkpt lat="42.35516" lon="2.24996">
        <ele>1974.81</ele>
        <time>2021-07-31T10:19:20Z</time>
      </trkpt>
      <trkpt lat="42.35523" lon="2.24958">
        <ele>1977.32</ele>
        <time>2021-07-31T10:19:23Z</time>
      </trkpt>
      <trkpt lat="42.35513" lon="2.24873">
        <ele>1981.25</ele>
        <time>2021-07-31T10:19:29Z</time>
      </trkpt>
      <trkpt lat="42.35496" lon="2.2478">
        <ele>1984.8</ele>
        <time>2021-07-31T10:19:34Z</time>
      </trkpt>
      <trkpt lat="42.35495" lon="2.2467">
        <ele>1988.38</ele>
        <time>2021-07-31T10:19:39Z</time>
      </trkpt>
      <trkpt lat="42.35494" lon="2.24589">
        <ele>1991.71</ele>
        <time>2021-07-31T10:19:43Z</time>
      </trkpt>
      <trkpt lat="42.35495" lon="2.24555">
        <ele>1993.24</ele>
        <time>2021-07-31T10:19:45Z</time>
      </trkpt>
      <trkpt lat="42.35469" lon="2.24501">
        <ele>1996.62</ele>
        <time>2021-07-31T10:19:50Z</time>
      </trkpt>
      <trkpt lat="42.35452" lon="2.24486">
        <ele>1997.49</ele>
        <time>2021-07-31T10:19:52Z</time>
      </trkpt>
      <trkpt lat="42.3544" lon="2.24434">
        <ele>1998.03</ele>
        <time>2021-07-31T10:19:58Z</time>
      </trkpt>
      <trkpt lat="42.35459" lon="2.24411">
        <ele>1997.84</ele>
        <time>2021-07-31T10:20:01Z</time>
      </trkpt>
      <trkpt lat="42.35575" lon="2.24314">
        <ele>1996.25</ele>
        <time>2021-07-31T10:20:13Z</time>
      </trkpt>
      <trkpt lat="42.35643" lon="2.24315">
        <ele>1994.15</ele>
        <time>2021-07-31T10:20:20Z</time>
      </trkpt>
      <trkpt lat="42.35719" lon="2.24363">
        <ele>1992.14</ele>
        <time>2021-07-31T10:20:27Z</time>
      </trkpt>
      <trkpt lat="42.35836" lon="2.24367">
        <ele>1989.65</ele>
        <time>2021-07-31T10:20:37Z</time>
      </trkpt>
      <trkpt lat="42.35956" lon="2.2432">
        <ele>1987.84</ele>
        <time>2021-07-31T10:20:48Z</time>
      </trkpt>
      <trkpt lat="42.36033" lon="2.24275">
        <ele>1984.76</ele>
        <time>2021-07-31T10:20:57Z</time>
      </trkpt>
      <trkpt lat="42.36049" lon="2.24267">
        <ele>1984.2</ele>
        <time>2021-07-31T10:20:59Z</time>
      </trkpt>
      <trkpt lat="42.36069" lon="2.24241">
        <ele>1982.43</ele>
        <time>2021-07-31T10:21:05Z</time>
      </trkpt>
      <trkpt lat="42.36076" lon="2.24208">
        <ele>1981.52</ele>
        <time>2021-07-31T10:21:09Z</time>
      </trkpt>
      <trkpt lat="42.3614" lon="2.2413">
        <ele>1980.71</ele>
        <time>2021-07-31T10:21:17Z</time>
      </trkpt>
      <trkpt lat="42.36203" lon="2.24076">
        <ele>1976.95</ele>
        <time>2021-07-31T10:21:24Z</time>
      </trkpt>
      <trkpt lat="42.36209" lon="2.24043">
        <ele>1972.74</ele>
        <time>2021-07-31T10:21:30Z</time>
      </trkpt>
      <trkpt lat="42.36173" lon="2.24039">
        <ele>1971.52</ele>
        <time>2021-07-31T10:21:35Z</time>
      </trkpt>
      <trkpt lat="42.36057" lon="2.24064">
        <ele>1974.28</ele>
        <time>2021-07-31T10:21:44Z</time>
      </trkpt>
      <trkpt lat="42.35999" lon="2.24074">
        <ele>1976.17</ele>
        <time>2021-07-31T10:21:50Z</time>
      </trkpt>
      <trkpt lat="42.35968" lon="2.24078">
        <ele>1976.39</ele>
        <time>2021-07-31T10:21:53Z</time>
      </trkpt>
      <trkpt lat="42.35915" lon="2.24061">
        <ele>1976.9</ele>
        <time>2021-07-31T10:21:58Z</time>
      </trkpt>
      <trkpt lat="42.3584" lon="2.24013">
        <ele>1978.77</ele>
        <time>2021-07-31T10:22:05Z</time>
      </trkpt>
      <trkpt lat="42.35814" lon="2.2397">
        <ele>1979.02</ele>
        <time>2021-07-31T10:22:09Z</time>
      </trkpt>
      <trkpt lat="42.35794" lon="2.23911">
        <ele>1978.59</ele>
        <time>2021-07-31T10:22:15Z</time>
      </trkpt>
      <trkpt lat="42.35795" lon="2.23912">
        <ele>1975.15</ele>
        <time>2021-07-31T10:22:21Z</time>
      </trkpt>
      <trkpt lat="42.35795" lon="2.23912">
        <ele>1972.11</ele>
        <time>2021-07-31T10:22:40Z</time>
      </trkpt>
      <trkpt lat="42.35793" lon="2.23905">
        <ele>1971.83</ele>
        <time>2021-07-31T10:22:50Z</time>
      </trkpt>
      <trkpt lat="42.35772" lon="2.23849">
        <ele>1972.06</ele>
        <time>2021-07-31T10:22:57Z</time>
      </trkpt>
      <trkpt lat="42.35727" lon="2.23815">
        <ele>1972.3</ele>
        <time>2021-07-31T10:23:03Z</time>
      </trkpt>
      <trkpt lat="42.35615" lon="2.23793">
        <ele>1975.54</ele>
        <time>2021-07-31T10:23:11Z</time>
      </trkpt>
      <trkpt lat="42.35601" lon="2.23787">
        <ele>1976.17</ele>
        <time>2021-07-31T10:23:12Z</time>
      </trkpt>
      <trkpt lat="42.35502" lon="2.23705">
        <ele>1979.79</ele>
        <time>2021-07-31T10:23:19Z</time>
      </trkpt>
      <trkpt lat="42.35394" lon="2.23599">
        <ele>1981.96</ele>
        <time>2021-07-31T10:23:28Z</time>
      </trkpt>
      <trkpt lat="42.3538" lon="2.23532">
        <ele>1979.91</ele>
        <time>2021-07-31T10:23:34Z</time>
      </trkpt>
      <trkpt lat="42.35398" lon="2.23509">
        <ele>1978.61</ele>
        <time>2021-07-31T10:23:36Z</time>
      </trkpt>
      <trkpt lat="42.35441" lon="2.23465">
        <ele>1976.61</ele>
        <time>2021-07-31T10:23:40Z</time>
      </trkpt>
      <trkpt lat="42.35508" lon="2.2335">
        <ele>1975.86</ele>
        <time>2021-07-31T10:23:48Z</time>
      </trkpt>
      <trkpt lat="42.35538" lon="2.23291">
        <ele>1974.02</ele>
        <time>2021-07-31T10:23:52Z</time>
      </trkpt>
      <trkpt lat="42.35536" lon="2.23237">
        <ele>1972.43</ele>
        <time>2021-07-31T10:23:57Z</time>
      </trkpt>
      <trkpt lat="42.35521" lon="2.23215">
        <ele>1971.12</ele>
        <time>2021-07-31T10:24:00Z</time>
      </trkpt>
      <trkpt lat="42.35525" lon="2.23159">
        <ele>1969.76</ele>
        <time>2021-07-31T10:24:06Z</time>
      </trkpt>
      <trkpt lat="42.35519" lon="2.23116">
        <ele>1968.69</ele>
        <time>2021-07-31T10:24:13Z</time>
      </trkpt>
      <trkpt lat="42.3551" lon="2.23119">
        <ele>1968.55</ele>
        <time>2021-07-31T10:24:14Z</time>
      </trkpt>
      <trkpt lat="42.35462" lon="2.23137">
        <ele>1968.12</ele>
        <time>2021-07-31T10:24:19Z</time>
      </trkpt>
      <trkpt lat="42.35377" lon="2.23121">
        <ele>1965.76</ele>
        <time>2021-07-31T10:24:27Z</time>
      </trkpt>
      <trkpt lat="42.35311" lon="2.231">
        <ele>1962.21</ele>
        <time>2021-07-31T10:24:35Z</time>
      </trkpt>
      <trkpt lat="42.35294" lon="2.23095">
        <ele>1958.45</ele>
        <time>2021-07-31T10:24:41Z</time>
      </trkpt>
      <trkpt lat="42.35284" lon="2.23091">
        <ele>1955.31</ele>
        <time>2021-07-31T10:24:48Z</time>
      </trkpt>
      <trkpt lat="42.35259" lon="2.23101">
        <ele>1953.39</ele>
        <time>2021-07-31T10:25:00Z</time>
      </trkpt>
      <trkpt lat="42.35248" lon="2.23112">
        <ele>1951.73</ele>
        <time>2021-07-31T10:25:09Z</time>
      </trkpt>
      <trkpt lat="42.35227" lon="2.23131">
        <ele>1950.17</ele>
        <time>2021-07-31T10:25:25Z</time>
      </trkpt>
      <trkpt lat="42.35196" lon="2.23157">
        <ele>1949.32</ele>
        <time>2021-07-31T10:25:36Z</time>
      </trkpt>
      <trkpt lat="42.35119" lon="2.23184">
        <ele>1949.4</ele>
        <time>2021-07-31T10:25:43Z</time>
      </trkpt>
      <trkpt lat="42.35046" lon="2.23204">
        <ele>1949.19</ele>
        <time>2021-07-31T10:25:48Z</time>
      </trkpt>
      <trkpt lat="42.34999" lon="2.23195">
        <ele>1945.65</ele>
        <time>2021-07-31T10:25:53Z</time>
      </trkpt>
      <trkpt lat="42.34978" lon="2.23157">
        <ele>1943.7</ele>
        <time>2021-07-31T10:25:56Z</time>
      </trkpt>
      <trkpt lat="42.3495" lon="2.23094">
        <ele>1941.7</ele>
        <time>2021-07-31T10:26:01Z</time>
      </trkpt>
      <trkpt lat="42.34919" lon="2.23085">
        <ele>1937.95</ele>
        <time>2021-07-31T10:26:06Z</time>
      </trkpt>
      <trkpt lat="42.34905" lon="2.231">
        <ele>1936.59</ele>
        <time>2021-07-31T10:26:08Z</time>
      </trkpt>
      <trkpt lat="42.34851" lon="2.2316">
        <ele>1934.73</ele>
        <time>2021-07-31T10:26:14Z</time>
      </trkpt>
      <trkpt lat="42.34764" lon="2.23194">
        <ele>1933.64</ele>
        <time>2021-07-31T10:26:21Z</time>
      </trkpt>
      <trkpt lat="42.34753" lon="2.23199">
        <ele>1933.45</ele>
        <time>2021-07-31T10:26:22Z</time>
      </trkpt>
      <trkpt lat="42.34658" lon="2.23282">
        <ele>1931.56</ele>
        <time>2021-07-31T10:26:32Z</time>
      </trkpt>
      <trkpt lat="42.34564" lon="2.23391">
        <ele>1931.49</ele>
        <time>2021-07-31T10:26:42Z</time>
      </trkpt>
      <trkpt lat="42.3454" lon="2.23422">
        <ele>1931.57</ele>
        <time>2021-07-31T10:26:45Z</time>
      </trkpt>
      <trkpt lat="42.34447" lon="2.23482">
        <ele>1931</ele>
        <time>2021-07-31T10:26:53Z</time>
      </trkpt>
      <trkpt lat="42.34426" lon="2.23494">
        <ele>1931.03</ele>
        <time>2021-07-31T10:26:55Z</time>
      </trkpt>
      <trkpt lat="42.34352" lon="2.23493">
        <ele>1931.22</ele>
        <time>2021-07-31T10:27:02Z</time>
      </trkpt>
      <trkpt lat="42.34329" lon="2.23467">
        <ele>1931.29</ele>
        <time>2021-07-31T10:27:05Z</time>
      </trkpt>
      <trkpt lat="42.34275" lon="2.23393">
        <ele>1928.93</ele>
        <time>2021-07-31T10:27:15Z</time>
      </trkpt>
      <trkpt lat="42.34248" lon="2.23355">
        <ele>1925.87</ele>
        <time>2021-07-31T10:27:27Z</time>
      </trkpt>
      <trkpt lat="42.34207" lon="2.23299">
        <ele>1925.52</ele>
        <time>2021-07-31T10:27:37Z</time>
      </trkpt>
      <trkpt lat="42.3415" lon="2.23224">
        <ele>1925.12</ele>
        <time>2021-07-31T10:27:48Z</time>
      </trkpt>
      <trkpt lat="42.34117" lon="2.23179">
        <ele>1925.16</ele>
        <time>2021-07-31T10:27:53Z</time>
      </trkpt>
      <trkpt lat="42.34103" lon="2.23123">
        <ele>1925.08</ele>
        <time>2021-07-31T10:27:58Z</time>
      </trkpt>
      <trkpt lat="42.34108" lon="2.22981">
        <ele>1925.34</ele>
        <time>2021-07-31T10:28:11Z</time>
      </trkpt>
      <trkpt lat="42.34087" lon="2.22945">
        <ele>1925.6</ele>
        <time>2021-07-31T10:28:18Z</time>
      </trkpt>
      <trkpt lat="42.34079" lon="2.22947">
        <ele>1925.57</ele>
        <time>2021-07-31T10:28:19Z</time>
      </trkpt>
      <trkpt lat="42.34045" lon="2.22956">
        <ele>1925.34</ele>
        <time>2021-07-31T10:28:23Z</time>
      </trkpt>
      <trkpt lat="42.34016" lon="2.22915">
        <ele>1925.34</ele>
        <time>2021-07-31T10:28:29Z</time>
      </trkpt>
      <trkpt lat="42.34003" lon="2.2276">
        <ele>1927.21</ele>
        <time>2021-07-31T10:28:40Z</time>
      </trkpt>
      <trkpt lat="42.34001" lon="2.22751">
        <ele>1927.3</ele>
        <time>2021-07-31T10:28:41Z</time>
      </trkpt>
      <trkpt lat="42.33972" lon="2.22747">
        <ele>1927</ele>
        <time>2021-07-31T10:28:47Z</time>
      </trkpt>
      <trkpt lat="42.33884" lon="2.22836">
        <ele>1925.38</ele>
        <time>2021-07-31T10:28:57Z</time>
      </trkpt>
      <trkpt lat="42.33761" lon="2.22956">
        <ele>1925.3</ele>
        <time>2021-07-31T10:29:09Z</time>
      </trkpt>
      <trkpt lat="42.33702" lon="2.23012">
        <ele>1924.76</ele>
        <time>2021-07-31T10:29:15Z</time>
      </trkpt>
      <trkpt lat="42.33691" lon="2.23071">
        <ele>1923.38</ele>
        <time>2021-07-31T10:29:21Z</time>
      </trkpt>
      <trkpt lat="42.33675" lon="2.23131">
        <ele>1921.89</ele>
        <time>2021-07-31T10:29:27Z</time>
      </trkpt>
      <trkpt lat="42.33666" lon="2.2314">
        <ele>1921.89</ele>
        <time>2021-07-31T10:29:28Z</time>
      </trkpt>
      <trkpt lat="42.33642" lon="2.23166">
        <ele>1922.07</ele>
        <time>2021-07-31T10:29:31Z</time>
      </trkpt>
      <trkpt lat="42.33627" lon="2.2321">
        <ele>1922.03</ele>
        <time>2021-07-31T10:29:35Z</time>
      </trkpt>
      <trkpt lat="42.33621" lon="2.23375">
        <ele>1920.95</ele>
        <time>2021-07-31T10:29:45Z</time>
      </trkpt>
      <trkpt lat="42.33619" lon="2.23436">
        <ele>1920.66</ele>
        <time>2021-07-31T10:29:49Z</time>
      </trkpt>
      <trkpt lat="42.33593" lon="2.23494">
        <ele>1920.26</ele>
        <time>2021-07-31T10:29:54Z</time>
      </trkpt>
      <trkpt lat="42.33459" lon="2.23643">
        <ele>1920.82</ele>
        <time>2021-07-31T10:30:08Z</time>
      </trkpt>
      <trkpt lat="42.33344" lon="2.23767">
        <ele>1920.65</ele>
        <time>2021-07-31T10:30:21Z</time>
      </trkpt>
      <trkpt lat="42.33316" lon="2.23798">
        <ele>1917.24</ele>
        <time>2021-07-31T10:30:28Z</time>
      </trkpt>
      <trkpt lat="42.33315" lon="2.23798">
        <ele>1914.17</ele>
        <time>2021-07-31T10:30:35Z</time>
      </trkpt>
      <trkpt lat="42.33301" lon="2.23818">
        <ele>1911.85</ele>
        <time>2021-07-31T10:30:50Z</time>
      </trkpt>
      <trkpt lat="42.33278" lon="2.2388">
        <ele>1910.03</ele>
        <time>2021-07-31T10:31:01Z</time>
      </trkpt>
      <trkpt lat="42.33266" lon="2.2398">
        <ele>1907.12</ele>
        <time>2021-07-31T10:31:11Z</time>
      </trkpt>
      <trkpt lat="42.33266" lon="2.2399">
        <ele>1906.7</ele>
        <time>2021-07-31T10:31:12Z</time>
      </trkpt>
      <trkpt lat="42.33249" lon="2.2405">
        <ele>1903.75</ele>
        <time>2021-07-31T10:31:18Z</time>
      </trkpt>
      <trkpt lat="42.33225" lon="2.24093">
        <ele>1901.07</ele>
        <time>2021-07-31T10:31:23Z</time>
      </trkpt>
      <trkpt lat="42.33206" lon="2.24177">
        <ele>1897.41</ele>
        <time>2021-07-31T10:31:30Z</time>
      </trkpt>
      <trkpt lat="42.33198" lon="2.24248">
        <ele>1894.21</ele>
        <time>2021-07-31T10:31:36Z</time>
      </trkpt>
      <trkpt lat="42.33208" lon="2.24321">
        <ele>1890.74</ele>
        <time>2021-07-31T10:31:42Z</time>
      </trkpt>
      <trkpt lat="42.33213" lon="2.24344">
        <ele>1889.53</ele>
        <time>2021-07-31T10:31:44Z</time>
      </trkpt>
      <trkpt lat="42.33203" lon="2.24382">
        <ele>1885.77</ele>
        <time>2021-07-31T10:31:49Z</time>
      </trkpt>
      <trkpt lat="42.33187" lon="2.24367">
        <ele>1883.84</ele>
        <time>2021-07-31T10:31:52Z</time>
      </trkpt>
      <trkpt lat="42.33152" lon="2.24259">
        <ele>1879.93</ele>
        <time>2021-07-31T10:32:02Z</time>
      </trkpt>
      <trkpt lat="42.33138" lon="2.2421">
        <ele>1876.74</ele>
        <time>2021-07-31T10:32:07Z</time>
      </trkpt>
      <trkpt lat="42.33129" lon="2.24166">
        <ele>1874.8</ele>
        <time>2021-07-31T10:32:11Z</time>
      </trkpt>
      <trkpt lat="42.33129" lon="2.241">
        <ele>1871.1</ele>
        <time>2021-07-31T10:32:17Z</time>
      </trkpt>
      <trkpt lat="42.33125" lon="2.24034">
        <ele>1867.51</ele>
        <time>2021-07-31T10:32:23Z</time>
      </trkpt>
      <trkpt lat="42.3312" lon="2.23986">
        <ele>1864.13</ele>
        <time>2021-07-31T10:32:28Z</time>
      </trkpt>
      <trkpt lat="42.33115" lon="2.23939">
        <ele>1860.68</ele>
        <time>2021-07-31T10:32:33Z</time>
      </trkpt>
      <trkpt lat="42.33092" lon="2.23891">
        <ele>1856.53</ele>
        <time>2021-07-31T10:32:39Z</time>
      </trkpt>
      <trkpt lat="42.33059" lon="2.23847">
        <ele>1852.62</ele>
        <time>2021-07-31T10:32:46Z</time>
      </trkpt>
      <trkpt lat="42.33017" lon="2.23792">
        <ele>1849.25</ele>
        <time>2021-07-31T10:32:53Z</time>
      </trkpt>
      <trkpt lat="42.32999" lon="2.23769">
        <ele>1847.54</ele>
        <time>2021-07-31T10:32:56Z</time>
      </trkpt>
      <trkpt lat="42.32962" lon="2.23736">
        <ele>1843.65</ele>
        <time>2021-07-31T10:33:02Z</time>
      </trkpt>
      <trkpt lat="42.32932" lon="2.23703">
        <ele>1840.6</ele>
        <time>2021-07-31T10:33:07Z</time>
      </trkpt>
      <trkpt lat="42.32897" lon="2.23663">
        <ele>1837.18</ele>
        <time>2021-07-31T10:33:13Z</time>
      </trkpt>
      <trkpt lat="42.32892" lon="2.23656">
        <ele>1836.56</ele>
        <time>2021-07-31T10:33:14Z</time>
      </trkpt>
      <trkpt lat="42.32882" lon="2.2364">
        <ele>1835.6</ele>
        <time>2021-07-31T10:33:16Z</time>
      </trkpt>
      <trkpt lat="42.32877" lon="2.23553">
        <ele>1831.46</ele>
        <time>2021-07-31T10:33:24Z</time>
      </trkpt>
      <trkpt lat="42.32885" lon="2.23532">
        <ele>1830.4</ele>
        <time>2021-07-31T10:33:26Z</time>
      </trkpt>
      <trkpt lat="42.32867" lon="2.23477">
        <ele>1825.96</ele>
        <time>2021-07-31T10:33:34Z</time>
      </trkpt>
      <trkpt lat="42.3286" lon="2.23476">
        <ele>1825.45</ele>
        <time>2021-07-31T10:33:35Z</time>
      </trkpt>
      <trkpt lat="42.32802" lon="2.23466">
        <ele>1821.8</ele>
        <time>2021-07-31T10:33:43Z</time>
      </trkpt>
      <trkpt lat="42.32751" lon="2.23456">
        <ele>1818.38</ele>
        <time>2021-07-31T10:33:50Z</time>
      </trkpt>
      <trkpt lat="42.327" lon="2.23455">
        <ele>1814.99</ele>
        <time>2021-07-31T10:33:57Z</time>
      </trkpt>
      <trkpt lat="42.32656" lon="2.2346">
        <ele>1811.77</ele>
        <time>2021-07-31T10:34:03Z</time>
      </trkpt>
      <trkpt lat="42.32599" lon="2.23467">
        <ele>1808.38</ele>
        <time>2021-07-31T10:34:10Z</time>
      </trkpt>
      <trkpt lat="42.32552" lon="2.23472">
        <ele>1804.97</ele>
        <time>2021-07-31T10:34:16Z</time>
      </trkpt>
      <trkpt lat="42.32544" lon="2.23472">
        <ele>1804.39</ele>
        <time>2021-07-31T10:34:17Z</time>
      </trkpt>
      <trkpt lat="42.32514" lon="2.23426">
        <ele>1801.69</ele>
        <time>2021-07-31T10:34:23Z</time>
      </trkpt>
      <trkpt lat="42.32515" lon="2.23399">
        <ele>1801.16</ele>
        <time>2021-07-31T10:34:25Z</time>
      </trkpt>
      <trkpt lat="42.32518" lon="2.23265">
        <ele>1797.87</ele>
        <time>2021-07-31T10:34:36Z</time>
      </trkpt>
      <trkpt lat="42.32519" lon="2.23095">
        <ele>1794.87</ele>
        <time>2021-07-31T10:34:49Z</time>
      </trkpt>
      <trkpt lat="42.32508" lon="2.22979">
        <ele>1792.35</ele>
        <time>2021-07-31T10:34:59Z</time>
      </trkpt>
      <trkpt lat="42.32488" lon="2.22882">
        <ele>1791.29</ele>
        <time>2021-07-31T10:35:07Z</time>
      </trkpt>
      <trkpt lat="42.32504" lon="2.22768">
        <ele>1790.45</ele>
        <time>2021-07-31T10:35:16Z</time>
      </trkpt>
      <trkpt lat="42.32511" lon="2.22717">
        <ele>1790.1</ele>
        <time>2021-07-31T10:35:20Z</time>
      </trkpt>
      <trkpt lat="42.32527" lon="2.22624">
        <ele>1788.6</ele>
        <time>2021-07-31T10:35:28Z</time>
      </trkpt>
      <trkpt lat="42.32548" lon="2.22578">
        <ele>1788.32</ele>
        <time>2021-07-31T10:35:32Z</time>
      </trkpt>
      <trkpt lat="42.32647" lon="2.22455">
        <ele>1786.28</ele>
        <time>2021-07-31T10:35:45Z</time>
      </trkpt>
      <trkpt lat="42.32682" lon="2.22433">
        <ele>1784.75</ele>
        <time>2021-07-31T10:35:50Z</time>
      </trkpt>
      <trkpt lat="42.32685" lon="2.22393">
        <ele>1782.73</ele>
        <time>2021-07-31T10:35:55Z</time>
      </trkpt>
      <trkpt lat="42.32681" lon="2.22384">
        <ele>1782.54</ele>
        <time>2021-07-31T10:35:56Z</time>
      </trkpt>
      <trkpt lat="42.32665" lon="2.22345">
        <ele>1781.64</ele>
        <time>2021-07-31T10:36:00Z</time>
      </trkpt>
      <trkpt lat="42.32658" lon="2.22303">
        <ele>1780.08</ele>
        <time>2021-07-31T10:36:04Z</time>
      </trkpt>
      <trkpt lat="42.32655" lon="2.22199">
        <ele>1776.4</ele>
        <time>2021-07-31T10:36:13Z</time>
      </trkpt>
      <trkpt lat="42.32654" lon="2.22122">
        <ele>1773.23</ele>
        <time>2021-07-31T10:36:20Z</time>
      </trkpt>
      <trkpt lat="42.32656" lon="2.221">
        <ele>1772.09</ele>
        <time>2021-07-31T10:36:22Z</time>
      </trkpt>
      <trkpt lat="42.32696" lon="2.22026">
        <ele>1768.36</ele>
        <time>2021-07-31T10:36:30Z</time>
      </trkpt>
      <trkpt lat="42.32716" lon="2.22017">
        <ele>1767.41</ele>
        <time>2021-07-31T10:36:32Z</time>
      </trkpt>
      <trkpt lat="42.32763" lon="2.22006">
        <ele>1763.58</ele>
        <time>2021-07-31T10:36:38Z</time>
      </trkpt>
      <trkpt lat="42.32768" lon="2.21966">
        <ele>1759.11</ele>
        <time>2021-07-31T10:36:44Z</time>
      </trkpt>
      <trkpt lat="42.32736" lon="2.21967">
        <ele>1756.26</ele>
        <time>2021-07-31T10:36:48Z</time>
      </trkpt>
      <trkpt lat="42.32676" lon="2.21985">
        <ele>1752.09</ele>
        <time>2021-07-31T10:36:54Z</time>
      </trkpt>
      <trkpt lat="42.32633" lon="2.21999">
        <ele>1748.52</ele>
        <time>2021-07-31T10:36:59Z</time>
      </trkpt>
      <trkpt lat="42.326" lon="2.22021">
        <ele>1745.49</ele>
        <time>2021-07-31T10:37:03Z</time>
      </trkpt>
      <trkpt lat="42.32569" lon="2.22049">
        <ele>1742.21</ele>
        <time>2021-07-31T10:37:07Z</time>
      </trkpt>
      <trkpt lat="42.32537" lon="2.22078">
        <ele>1739</ele>
        <time>2021-07-31T10:37:11Z</time>
      </trkpt>
      <trkpt lat="42.32516" lon="2.22101">
        <ele>1736.26</ele>
        <time>2021-07-31T10:37:14Z</time>
      </trkpt>
      <trkpt lat="42.32493" lon="2.22156">
        <ele>1731.84</ele>
        <time>2021-07-31T10:37:19Z</time>
      </trkpt>
      <trkpt lat="42.3249" lon="2.22168">
        <ele>1730.95</ele>
        <time>2021-07-31T10:37:20Z</time>
      </trkpt>
      <trkpt lat="42.32486" lon="2.22189">
        <ele>1729.25</ele>
        <time>2021-07-31T10:37:22Z</time>
      </trkpt>
      <trkpt lat="42.3246" lon="2.22204">
        <ele>1724.72</ele>
        <time>2021-07-31T10:37:27Z</time>
      </trkpt>
      <trkpt lat="42.3246" lon="2.22159">
        <ele>1721.48</ele>
        <time>2021-07-31T10:37:31Z</time>
      </trkpt>
      <trkpt lat="42.32477" lon="2.22108">
        <ele>1717.83</ele>
        <time>2021-07-31T10:37:36Z</time>
      </trkpt>
      <trkpt lat="42.32492" lon="2.22057">
        <ele>1714.44</ele>
        <time>2021-07-31T10:37:41Z</time>
      </trkpt>
      <trkpt lat="42.32508" lon="2.22017">
        <ele>1711.36</ele>
        <time>2021-07-31T10:37:45Z</time>
      </trkpt>
      <trkpt lat="42.32528" lon="2.21976">
        <ele>1708.34</ele>
        <time>2021-07-31T10:37:49Z</time>
      </trkpt>
      <trkpt lat="42.32554" lon="2.21928">
        <ele>1705.05</ele>
        <time>2021-07-31T10:37:54Z</time>
      </trkpt>
      <trkpt lat="42.32584" lon="2.21894">
        <ele>1701.95</ele>
        <time>2021-07-31T10:37:58Z</time>
      </trkpt>
      <trkpt lat="42.32626" lon="2.21858">
        <ele>1698.15</ele>
        <time>2021-07-31T10:38:03Z</time>
      </trkpt>
      <trkpt lat="42.32658" lon="2.21832">
        <ele>1694.57</ele>
        <time>2021-07-31T10:38:07Z</time>
      </trkpt>
      <trkpt lat="42.32681" lon="2.21813">
        <ele>1691.77</ele>
        <time>2021-07-31T10:38:10Z</time>
      </trkpt>
      <trkpt lat="42.32709" lon="2.21767">
        <ele>1687.41</ele>
        <time>2021-07-31T10:38:15Z</time>
      </trkpt>
      <trkpt lat="42.32724" lon="2.21746">
        <ele>1684.99</ele>
        <time>2021-07-31T10:38:18Z</time>
      </trkpt>
      <trkpt lat="42.32713" lon="2.21708">
        <ele>1680.9</ele>
        <time>2021-07-31T10:38:25Z</time>
      </trkpt>
      <trkpt lat="42.32692" lon="2.21719">
        <ele>1679.82</ele>
        <time>2021-07-31T10:38:28Z</time>
      </trkpt>
      <trkpt lat="42.32653" lon="2.2174">
        <ele>1678.55</ele>
        <time>2021-07-31T10:38:33Z</time>
      </trkpt>
      <trkpt lat="42.32615" lon="2.21706">
        <ele>1676.61</ele>
        <time>2021-07-31T10:38:39Z</time>
      </trkpt>
      <trkpt lat="42.32607" lon="2.21679">
        <ele>1676.03</ele>
        <time>2021-07-31T10:38:41Z</time>
      </trkpt>
      <trkpt lat="42.32589" lon="2.21582">
        <ele>1672.76</ele>
        <time>2021-07-31T10:38:49Z</time>
      </trkpt>
      <trkpt lat="42.32582" lon="2.21523">
        <ele>1669.48</ele>
        <time>2021-07-31T10:38:54Z</time>
      </trkpt>
      <trkpt lat="42.32572" lon="2.21467">
        <ele>1666.01</ele>
        <time>2021-07-31T10:38:59Z</time>
      </trkpt>
      <trkpt lat="42.32569" lon="2.21409">
        <ele>1662.65</ele>
        <time>2021-07-31T10:39:04Z</time>
      </trkpt>
      <trkpt lat="42.3257" lon="2.2135">
        <ele>1659.4</ele>
        <time>2021-07-31T10:39:09Z</time>
      </trkpt>
      <trkpt lat="42.32571" lon="2.21302">
        <ele>1656.58</ele>
        <time>2021-07-31T10:39:13Z</time>
      </trkpt>
      <trkpt lat="42.32563" lon="2.21255">
        <ele>1652.93</ele>
        <time>2021-07-31T10:39:17Z</time>
      </trkpt>
      <trkpt lat="42.32547" lon="2.21203">
        <ele>1649.72</ele>
        <time>2021-07-31T10:39:22Z</time>
      </trkpt>
      <trkpt lat="42.32548" lon="2.21128">
        <ele>1646.13</ele>
        <time>2021-07-31T10:39:28Z</time>
      </trkpt>
      <trkpt lat="42.32552" lon="2.21115">
        <ele>1645.58</ele>
        <time>2021-07-31T10:39:29Z</time>
      </trkpt>
      <trkpt lat="42.32565" lon="2.21079">
        <ele>1643.74</ele>
        <time>2021-07-31T10:39:32Z</time>
      </trkpt>
      <trkpt lat="42.32598" lon="2.21031">
        <ele>1639.74</ele>
        <time>2021-07-31T10:39:37Z</time>
      </trkpt>
      <trkpt lat="42.32625" lon="2.20995">
        <ele>1636.46</ele>
        <time>2021-07-31T10:39:41Z</time>
      </trkpt>
      <trkpt lat="42.32649" lon="2.20956">
        <ele>1632.92</ele>
        <time>2021-07-31T10:39:45Z</time>
      </trkpt>
      <trkpt lat="42.32663" lon="2.20926">
        <ele>1630.34</ele>
        <time>2021-07-31T10:39:48Z</time>
      </trkpt>
      <trkpt lat="42.32667" lon="2.20869">
        <ele>1626.45</ele>
        <time>2021-07-31T10:39:53Z</time>
      </trkpt>
      <trkpt lat="42.32642" lon="2.20837">
        <ele>1623.46</ele>
        <time>2021-07-31T10:39:57Z</time>
      </trkpt>
      <trkpt lat="42.32594" lon="2.20793">
        <ele>1619.22</ele>
        <time>2021-07-31T10:40:03Z</time>
      </trkpt>
      <trkpt lat="42.32562" lon="2.20764">
        <ele>1616.16</ele>
        <time>2021-07-31T10:40:07Z</time>
      </trkpt>
      <trkpt lat="42.32555" lon="2.20756">
        <ele>1615.34</ele>
        <time>2021-07-31T10:40:08Z</time>
      </trkpt>
      <trkpt lat="42.32529" lon="2.20698">
        <ele>1611.4</ele>
        <time>2021-07-31T10:40:13Z</time>
      </trkpt>
      <trkpt lat="42.32519" lon="2.20679">
        <ele>1609.81</ele>
        <time>2021-07-31T10:40:15Z</time>
      </trkpt>
      <trkpt lat="42.32515" lon="2.20624">
        <ele>1605.47</ele>
        <time>2021-07-31T10:40:20Z</time>
      </trkpt>
      <trkpt lat="42.32537" lon="2.20552">
        <ele>1601.28</ele>
        <time>2021-07-31T10:40:26Z</time>
      </trkpt>
      <trkpt lat="42.32556" lon="2.20492">
        <ele>1597.99</ele>
        <time>2021-07-31T10:40:31Z</time>
      </trkpt>
      <trkpt lat="42.32563" lon="2.20468">
        <ele>1596.42</ele>
        <time>2021-07-31T10:40:33Z</time>
      </trkpt>
      <trkpt lat="42.32548" lon="2.20427">
        <ele>1592.42</ele>
        <time>2021-07-31T10:40:38Z</time>
      </trkpt>
      <trkpt lat="42.32532" lon="2.20417">
        <ele>1590.89</ele>
        <time>2021-07-31T10:40:40Z</time>
      </trkpt>
      <trkpt lat="42.32514" lon="2.20366">
        <ele>1587.19</ele>
        <time>2021-07-31T10:40:45Z</time>
      </trkpt>
      <trkpt lat="42.32511" lon="2.20296">
        <ele>1582.97</ele>
        <time>2021-07-31T10:40:51Z</time>
      </trkpt>
      <trkpt lat="42.32511" lon="2.20269">
        <ele>1579.89</ele>
        <time>2021-07-31T10:40:54Z</time>
      </trkpt>
      <trkpt lat="42.32518" lon="2.20234">
        <ele>1575.75</ele>
        <time>2021-07-31T10:40:59Z</time>
      </trkpt>
      <trkpt lat="42.32533" lon="2.20198">
        <ele>1571.73</ele>
        <time>2021-07-31T10:41:05Z</time>
      </trkpt>
      <trkpt lat="42.32546" lon="2.20177">
        <ele>1568.48</ele>
        <time>2021-07-31T10:41:11Z</time>
      </trkpt>
      <trkpt lat="42.32563" lon="2.20151">
        <ele>1565.22</ele>
        <time>2021-07-31T10:41:19Z</time>
      </trkpt>
      <trkpt lat="42.32596" lon="2.20105">
        <ele>1562.05</ele>
        <time>2021-07-31T10:41:28Z</time>
      </trkpt>
      <trkpt lat="42.3262" lon="2.20076">
        <ele>1559.34</ele>
        <time>2021-07-31T10:41:34Z</time>
      </trkpt>
      <trkpt lat="42.32624" lon="2.20066">
        <ele>1558.31</ele>
        <time>2021-07-31T10:41:36Z</time>
      </trkpt>
      <trkpt lat="42.32632" lon="2.20047">
        <ele>1556.8</ele>
        <time>2021-07-31T10:41:40Z</time>
      </trkpt>
      <trkpt lat="42.32651" lon="2.20002">
        <ele>1553.11</ele>
        <time>2021-07-31T10:41:49Z</time>
      </trkpt>
      <trkpt lat="42.32651" lon="2.19963">
        <ele>1551.15</ele>
        <time>2021-07-31T10:41:54Z</time>
      </trkpt>
      <trkpt lat="42.32645" lon="2.1994">
        <ele>1549.92</ele>
        <time>2021-07-31T10:41:57Z</time>
      </trkpt>
      <trkpt lat="42.3264" lon="2.19902">
        <ele>1547.35</ele>
        <time>2021-07-31T10:42:02Z</time>
      </trkpt>
      <trkpt lat="42.32638" lon="2.19842">
        <ele>1543.49</ele>
        <time>2021-07-31T10:42:09Z</time>
      </trkpt>
      <trkpt lat="42.32632" lon="2.19801">
        <ele>1540.3</ele>
        <time>2021-07-31T10:42:15Z</time>
      </trkpt>
      <trkpt lat="42.32624" lon="2.19748">
        <ele>1536.91</ele>
        <time>2021-07-31T10:42:22Z</time>
      </trkpt>
      <trkpt lat="42.32628" lon="2.1971">
        <ele>1535.38</ele>
        <time>2021-07-31T10:42:26Z</time>
      </trkpt>
      <trkpt lat="42.3264" lon="2.19638">
        <ele>1531.62</ele>
        <time>2021-07-31T10:42:33Z</time>
      </trkpt>
      <trkpt lat="42.32643" lon="2.19582">
        <ele>1528.06</ele>
        <time>2021-07-31T10:42:38Z</time>
      </trkpt>
      <trkpt lat="42.32646" lon="2.19525">
        <ele>1524.82</ele>
        <time>2021-07-31T10:42:43Z</time>
      </trkpt>
      <trkpt lat="42.32646" lon="2.19485">
        <ele>1522.01</ele>
        <time>2021-07-31T10:42:47Z</time>
      </trkpt>
      <trkpt lat="42.32624" lon="2.19427">
        <ele>1518.57</ele>
        <time>2021-07-31T10:42:53Z</time>
      </trkpt>
      <trkpt lat="42.32597" lon="2.19357">
        <ele>1514.29</ele>
        <time>2021-07-31T10:43:00Z</time>
      </trkpt>
      <trkpt lat="42.32595" lon="2.19347">
        <ele>1513.7</ele>
        <time>2021-07-31T10:43:01Z</time>
      </trkpt>
      <trkpt lat="42.32589" lon="2.19264">
        <ele>1509.85</ele>
        <time>2021-07-31T10:43:08Z</time>
      </trkpt>
      <trkpt lat="42.32578" lon="2.19188">
        <ele>1506.52</ele>
        <time>2021-07-31T10:43:14Z</time>
      </trkpt>
      <trkpt lat="42.32568" lon="2.19143">
        <ele>1503.23</ele>
        <time>2021-07-31T10:43:18Z</time>
      </trkpt>
      <trkpt lat="42.32561" lon="2.191">
        <ele>1500.14</ele>
        <time>2021-07-31T10:43:22Z</time>
      </trkpt>
      <trkpt lat="42.32556" lon="2.19068">
        <ele>1497.68</ele>
        <time>2021-07-31T10:43:25Z</time>
      </trkpt>
      <trkpt lat="42.32559" lon="2.18999">
        <ele>1493.7</ele>
        <time>2021-07-31T10:43:31Z</time>
      </trkpt>
      <trkpt lat="42.32568" lon="2.18942">
        <ele>1490.37</ele>
        <time>2021-07-31T10:43:36Z</time>
      </trkpt>
      <trkpt lat="42.32579" lon="2.18884">
        <ele>1486.62</ele>
        <time>2021-07-31T10:43:41Z</time>
      </trkpt>
      <trkpt lat="42.32586" lon="2.18825">
        <ele>1482.89</ele>
        <time>2021-07-31T10:43:46Z</time>
      </trkpt>
      <trkpt lat="42.32598" lon="2.18774">
        <ele>1479.39</ele>
        <time>2021-07-31T10:43:51Z</time>
      </trkpt>
      <trkpt lat="42.32602" lon="2.18703">
        <ele>1475.1</ele>
        <time>2021-07-31T10:43:57Z</time>
      </trkpt>
      <trkpt lat="42.32602" lon="2.18691">
        <ele>1474.46</ele>
        <time>2021-07-31T10:43:58Z</time>
      </trkpt>
      <trkpt lat="42.32594" lon="2.1862">
        <ele>1470.1</ele>
        <time>2021-07-31T10:44:04Z</time>
      </trkpt>
      <trkpt lat="42.32586" lon="2.18543">
        <ele>1465.96</ele>
        <time>2021-07-31T10:44:10Z</time>
      </trkpt>
      <trkpt lat="42.32577" lon="2.18496">
        <ele>1462.26</ele>
        <time>2021-07-31T10:44:14Z</time>
      </trkpt>
      <trkpt lat="42.32568" lon="2.18449">
        <ele>1459.19</ele>
        <time>2021-07-31T10:44:18Z</time>
      </trkpt>
      <trkpt lat="42.32558" lon="2.18401">
        <ele>1456.04</ele>
        <time>2021-07-31T10:44:22Z</time>
      </trkpt>
      <trkpt lat="42.32536" lon="2.18348">
        <ele>1452.22</ele>
        <time>2021-07-31T10:44:27Z</time>
      </trkpt>
      <trkpt lat="42.32533" lon="2.18338">
        <ele>1451.63</ele>
        <time>2021-07-31T10:44:28Z</time>
      </trkpt>
      <trkpt lat="42.32518" lon="2.18269">
        <ele>1447.51</ele>
        <time>2021-07-31T10:44:34Z</time>
      </trkpt>
      <trkpt lat="42.32513" lon="2.18235">
        <ele>1444.4</ele>
        <time>2021-07-31T10:44:38Z</time>
      </trkpt>
      <trkpt lat="42.32511" lon="2.18227">
        <ele>1443.48</ele>
        <time>2021-07-31T10:44:39Z</time>
      </trkpt>
      <trkpt lat="42.32528" lon="2.18176">
        <ele>1439.22</ele>
        <time>2021-07-31T10:44:45Z</time>
      </trkpt>
      <trkpt lat="42.32534" lon="2.1817">
        <ele>1438.68</ele>
        <time>2021-07-31T10:44:46Z</time>
      </trkpt>
      <trkpt lat="42.32545" lon="2.18159">
        <ele>1437.74</ele>
        <time>2021-07-31T10:44:48Z</time>
      </trkpt>
      <trkpt lat="42.3261" lon="2.18158">
        <ele>1434.67</ele>
        <time>2021-07-31T10:44:53Z</time>
      </trkpt>
      <trkpt lat="42.3267" lon="2.1816">
        <ele>1430.97</ele>
        <time>2021-07-31T10:44:58Z</time>
      </trkpt>
      <trkpt lat="42.32714" lon="2.18154">
        <ele>1427.67</ele>
        <time>2021-07-31T10:45:02Z</time>
      </trkpt>
      <trkpt lat="42.32756" lon="2.1814">
        <ele>1424.19</ele>
        <time>2021-07-31T10:45:06Z</time>
      </trkpt>
      <trkpt lat="42.32797" lon="2.18124">
        <ele>1420.54</ele>
        <time>2021-07-31T10:45:10Z</time>
      </trkpt>
      <trkpt lat="42.32818" lon="2.18117">
        <ele>1418.68</ele>
        <time>2021-07-31T10:45:12Z</time>
      </trkpt>
      <trkpt lat="42.32853" lon="2.18117">
        <ele>1415.1</ele>
        <time>2021-07-31T10:45:16Z</time>
      </trkpt>
      <trkpt lat="42.3287" lon="2.18084">
        <ele>1411.01</ele>
        <time>2021-07-31T10:45:21Z</time>
      </trkpt>
      <trkpt lat="42.32837" lon="2.18061">
        <ele>1407.73</ele>
        <time>2021-07-31T10:45:25Z</time>
      </trkpt>
      <trkpt lat="42.32792" lon="2.1806">
        <ele>1404.4</ele>
        <time>2021-07-31T10:45:29Z</time>
      </trkpt>
      <trkpt lat="42.32782" lon="2.18064">
        <ele>1403.64</ele>
        <time>2021-07-31T10:45:30Z</time>
      </trkpt>
      <trkpt lat="42.32732" lon="2.18082">
        <ele>1399.29</ele>
        <time>2021-07-31T10:45:35Z</time>
      </trkpt>
      <trkpt lat="42.32694" lon="2.18085">
        <ele>1395.62</ele>
        <time>2021-07-31T10:45:39Z</time>
      </trkpt>
      <trkpt lat="42.3266" lon="2.18088">
        <ele>1392.06</ele>
        <time>2021-07-31T10:45:43Z</time>
      </trkpt>
      <trkpt lat="42.32646" lon="2.18088">
        <ele>1388.53</ele>
        <time>2021-07-31T10:45:47Z</time>
      </trkpt>
      <trkpt lat="42.32645" lon="2.18088">
        <ele>1384.87</ele>
        <time>2021-07-31T10:45:52Z</time>
      </trkpt>
      <trkpt lat="42.32623" lon="2.18084">
        <ele>1381.91</ele>
        <time>2021-07-31T10:46:01Z</time>
      </trkpt>
      <trkpt lat="42.32535" lon="2.18047">
        <ele>1378.16</ele>
        <time>2021-07-31T10:46:11Z</time>
      </trkpt>
      <trkpt lat="42.32488" lon="2.18022">
        <ele>1375.17</ele>
        <time>2021-07-31T10:46:16Z</time>
      </trkpt>
      <trkpt lat="42.32426" lon="2.18015">
        <ele>1370.74</ele>
        <time>2021-07-31T10:46:22Z</time>
      </trkpt>
      <trkpt lat="42.32385" lon="2.1802">
        <ele>1367.41</ele>
        <time>2021-07-31T10:46:26Z</time>
      </trkpt>
      <trkpt lat="42.32347" lon="2.1803">
        <ele>1363.83</ele>
        <time>2021-07-31T10:46:30Z</time>
      </trkpt>
      <trkpt lat="42.32314" lon="2.18042">
        <ele>1360.62</ele>
        <time>2021-07-31T10:46:34Z</time>
      </trkpt>
      <trkpt lat="42.32288" lon="2.18039">
        <ele>1356.64</ele>
        <time>2021-07-31T10:46:39Z</time>
      </trkpt>
      <trkpt lat="42.32295" lon="2.18011">
        <ele>1353.62</ele>
        <time>2021-07-31T10:46:43Z</time>
      </trkpt>
      <trkpt lat="42.32313" lon="2.18007">
        <ele>1352.39</ele>
        <time>2021-07-31T10:46:45Z</time>
      </trkpt>
      <trkpt lat="42.32374" lon="2.17981">
        <ele>1348.53</ele>
        <time>2021-07-31T10:46:51Z</time>
      </trkpt>
      <trkpt lat="42.3242" lon="2.17962">
        <ele>1345.12</ele>
        <time>2021-07-31T10:46:56Z</time>
      </trkpt>
      <trkpt lat="42.3246" lon="2.17949">
        <ele>1341.47</ele>
        <time>2021-07-31T10:47:01Z</time>
      </trkpt>
      <trkpt lat="42.32507" lon="2.17949">
        <ele>1337.75</ele>
        <time>2021-07-31T10:47:06Z</time>
      </trkpt>
      <trkpt lat="42.32555" lon="2.17944">
        <ele>1334.13</ele>
        <time>2021-07-31T10:47:11Z</time>
      </trkpt>
      <trkpt lat="42.32574" lon="2.17941">
        <ele>1332.53</ele>
        <time>2021-07-31T10:47:13Z</time>
      </trkpt>
      <trkpt lat="42.32617" lon="2.17921">
        <ele>1328.53</ele>
        <time>2021-07-31T10:47:18Z</time>
      </trkpt>
      <trkpt lat="42.32648" lon="2.17906">
        <ele>1325.36</ele>
        <time>2021-07-31T10:47:22Z</time>
      </trkpt>
      <trkpt lat="42.32672" lon="2.17897">
        <ele>1322.1</ele>
        <time>2021-07-31T10:47:26Z</time>
      </trkpt>
      <trkpt lat="42.32719" lon="2.17866">
        <ele>1317.46</ele>
        <time>2021-07-31T10:47:32Z</time>
      </trkpt>
      <trkpt lat="42.32763" lon="2.17825">
        <ele>1313.75</ele>
        <time>2021-07-31T10:47:37Z</time>
      </trkpt>
      <trkpt lat="42.328" lon="2.17776">
        <ele>1309.9</ele>
        <time>2021-07-31T10:47:42Z</time>
      </trkpt>
      <trkpt lat="42.32807" lon="2.17767">
        <ele>1309.03</ele>
        <time>2021-07-31T10:47:43Z</time>
      </trkpt>
      <trkpt lat="42.32848" lon="2.17731">
        <ele>1305.13</ele>
        <time>2021-07-31T10:47:48Z</time>
      </trkpt>
      <trkpt lat="42.32889" lon="2.17713">
        <ele>1301.94</ele>
        <time>2021-07-31T10:47:52Z</time>
      </trkpt>
      <trkpt lat="42.32931" lon="2.17698">
        <ele>1298.87</ele>
        <time>2021-07-31T10:47:56Z</time>
      </trkpt>
      <trkpt lat="42.32975" lon="2.17688">
        <ele>1295.51</ele>
        <time>2021-07-31T10:48:00Z</time>
      </trkpt>
      <trkpt lat="42.33018" lon="2.17688">
        <ele>1292.05</ele>
        <time>2021-07-31T10:48:04Z</time>
      </trkpt>
      <trkpt lat="42.33037" lon="2.17692">
        <ele>1290.22</ele>
        <time>2021-07-31T10:48:06Z</time>
      </trkpt>
      <trkpt lat="42.33065" lon="2.17706">
        <ele>1287.2</ele>
        <time>2021-07-31T10:48:09Z</time>
      </trkpt>
      <trkpt lat="42.33109" lon="2.17747">
        <ele>1282.69</ele>
        <time>2021-07-31T10:48:14Z</time>
      </trkpt>
      <trkpt lat="42.33126" lon="2.17764">
        <ele>1280.86</ele>
        <time>2021-07-31T10:48:16Z</time>
      </trkpt>
      <trkpt lat="42.33172" lon="2.17785">
        <ele>1276.14</ele>
        <time>2021-07-31T10:48:21Z</time>
      </trkpt>
      <trkpt lat="42.33208" lon="2.178">
        <ele>1272.4</ele>
        <time>2021-07-31T10:48:25Z</time>
      </trkpt>
      <trkpt lat="42.33241" lon="2.17822">
        <ele>1268.68</ele>
        <time>2021-07-31T10:48:29Z</time>
      </trkpt>
      <trkpt lat="42.33278" lon="2.17839">
        <ele>1265.22</ele>
        <time>2021-07-31T10:48:33Z</time>
      </trkpt>
      <trkpt lat="42.33319" lon="2.17864">
        <ele>1261.54</ele>
        <time>2021-07-31T10:48:37Z</time>
      </trkpt>
      <trkpt lat="42.33342" lon="2.1788">
        <ele>1258.76</ele>
        <time>2021-07-31T10:48:40Z</time>
      </trkpt>
      <trkpt lat="42.33364" lon="2.17928">
        <ele>1254.62</ele>
        <time>2021-07-31T10:48:45Z</time>
      </trkpt>
      <trkpt lat="42.33378" lon="2.17973">
        <ele>1251.71</ele>
        <time>2021-07-31T10:48:49Z</time>
      </trkpt>
      <trkpt lat="42.33395" lon="2.17988">
        <ele>1247.34</ele>
        <time>2021-07-31T10:48:55Z</time>
      </trkpt>
      <trkpt lat="42.334" lon="2.17959">
        <ele>1244.32</ele>
        <time>2021-07-31T10:49:02Z</time>
      </trkpt>
      <trkpt lat="42.33398" lon="2.1795">
        <ele>1243.93</ele>
        <time>2021-07-31T10:49:03Z</time>
      </trkpt>
      <trkpt lat="42.3341" lon="2.1794">
        <ele>1243.2</ele>
        <time>2021-07-31T10:49:05Z</time>
      </trkpt>
      <trkpt lat="42.33423" lon="2.17905">
        <ele>1241.48</ele>
        <time>2021-07-31T10:49:09Z</time>
      </trkpt>
      <trkpt lat="42.33422" lon="2.17861">
        <ele>1239.14</ele>
        <time>2021-07-31T10:49:14Z</time>
      </trkpt>
      <trkpt lat="42.3342" lon="2.17852">
        <ele>1238.7</ele>
        <time>2021-07-31T10:49:15Z</time>
      </trkpt>
      <trkpt lat="42.33371" lon="2.17772">
        <ele>1234.58</ele>
        <time>2021-07-31T10:49:22Z</time>
      </trkpt>
      <trkpt lat="42.33334" lon="2.17713">
        <ele>1230.94</ele>
        <time>2021-07-31T10:49:27Z</time>
      </trkpt>
      <trkpt lat="42.33296" lon="2.17674">
        <ele>1227.52</ele>
        <time>2021-07-31T10:49:31Z</time>
      </trkpt>
      <trkpt lat="42.33275" lon="2.17661">
        <ele>1225.78</ele>
        <time>2021-07-31T10:49:33Z</time>
      </trkpt>
      <trkpt lat="42.33213" lon="2.17665">
        <ele>1221.63</ele>
        <time>2021-07-31T10:49:38Z</time>
      </trkpt>
      <trkpt lat="42.3316" lon="2.17642">
        <ele>1217.79</ele>
        <time>2021-07-31T10:49:44Z</time>
      </trkpt>
      <trkpt lat="42.33105" lon="2.17562">
        <ele>1213.84</ele>
        <time>2021-07-31T10:49:51Z</time>
      </trkpt>
      <trkpt lat="42.33028" lon="2.17521">
        <ele>1209.64</ele>
        <time>2021-07-31T10:49:58Z</time>
      </trkpt>
      <trkpt lat="42.32975" lon="2.17502">
        <ele>1206.57</ele>
        <time>2021-07-31T10:50:02Z</time>
      </trkpt>
      <trkpt lat="42.32924" lon="2.17482">
        <ele>1203.25</ele>
        <time>2021-07-31T10:50:06Z</time>
      </trkpt>
      <trkpt lat="42.32865" lon="2.17477">
        <ele>1199.51</ele>
        <time>2021-07-31T10:50:10Z</time>
      </trkpt>
      <trkpt lat="42.32801" lon="2.17483">
        <ele>1195.73</ele>
        <time>2021-07-31T10:50:14Z</time>
      </trkpt>
      <trkpt lat="42.32753" lon="2.17488">
        <ele>1192.23</ele>
        <time>2021-07-31T10:50:17Z</time>
      </trkpt>
      <trkpt lat="42.32706" lon="2.1749">
        <ele>1188.67</ele>
        <time>2021-07-31T10:50:20Z</time>
      </trkpt>
      <trkpt lat="42.32661" lon="2.17491">
        <ele>1184.54</ele>
        <time>2021-07-31T10:50:23Z</time>
      </trkpt>
      <trkpt lat="42.32647" lon="2.17492">
        <ele>1183.21</ele>
        <time>2021-07-31T10:50:24Z</time>
      </trkpt>
      <trkpt lat="42.32596" lon="2.1751">
        <ele>1177.85</ele>
        <time>2021-07-31T10:50:28Z</time>
      </trkpt>
      <trkpt lat="42.32584" lon="2.17515">
        <ele>1176.6</ele>
        <time>2021-07-31T10:50:29Z</time>
      </trkpt>
      <trkpt lat="42.32538" lon="2.17507">
        <ele>1171.41</ele>
        <time>2021-07-31T10:50:33Z</time>
      </trkpt>
      <trkpt lat="42.32495" lon="2.17491">
        <ele>1167.35</ele>
        <time>2021-07-31T10:50:37Z</time>
      </trkpt>
      <trkpt lat="42.32451" lon="2.17458">
        <ele>1162.48</ele>
        <time>2021-07-31T10:50:42Z</time>
      </trkpt>
      <trkpt lat="42.32434" lon="2.17442">
        <ele>1160.54</ele>
        <time>2021-07-31T10:50:44Z</time>
      </trkpt>
      <trkpt lat="42.32386" lon="2.17429">
        <ele>1157.27</ele>
        <time>2021-07-31T10:50:48Z</time>
      </trkpt>
      <trkpt lat="42.32336" lon="2.17418">
        <ele>1154.2</ele>
        <time>2021-07-31T10:50:52Z</time>
      </trkpt>
      <trkpt lat="42.32286" lon="2.17426">
        <ele>1150.28</ele>
        <time>2021-07-31T10:50:56Z</time>
      </trkpt>
      <trkpt lat="42.32239" lon="2.17445">
        <ele>1146.79</ele>
        <time>2021-07-31T10:51:00Z</time>
      </trkpt>
      <trkpt lat="42.32191" lon="2.17445">
        <ele>1143.13</ele>
        <time>2021-07-31T10:51:04Z</time>
      </trkpt>
      <trkpt lat="42.3213" lon="2.17462">
        <ele>1138.67</ele>
        <time>2021-07-31T10:51:09Z</time>
      </trkpt>
      <trkpt lat="42.32086" lon="2.17483">
        <ele>1135.01</ele>
        <time>2021-07-31T10:51:13Z</time>
      </trkpt>
      <trkpt lat="42.32036" lon="2.17497">
        <ele>1131.22</ele>
        <time>2021-07-31T10:51:17Z</time>
      </trkpt>
      <trkpt lat="42.3198" lon="2.17504">
        <ele>1127.21</ele>
        <time>2021-07-31T10:51:21Z</time>
      </trkpt>
      <trkpt lat="42.31943" lon="2.17507">
        <ele>1124.2</ele>
        <time>2021-07-31T10:51:24Z</time>
      </trkpt>
      <trkpt lat="42.31906" lon="2.1751">
        <ele>1120.83</ele>
        <time>2021-07-31T10:51:27Z</time>
      </trkpt>
      <trkpt lat="42.31866" lon="2.17513">
        <ele>1117.45</ele>
        <time>2021-07-31T10:51:30Z</time>
      </trkpt>
      <trkpt lat="42.31826" lon="2.17522">
        <ele>1114.26</ele>
        <time>2021-07-31T10:51:33Z</time>
      </trkpt>
      <trkpt lat="42.31788" lon="2.1753">
        <ele>1110.96</ele>
        <time>2021-07-31T10:51:36Z</time>
      </trkpt>
      <trkpt lat="42.31756" lon="2.17534">
        <ele>1107.38</ele>
        <time>2021-07-31T10:51:39Z</time>
      </trkpt>
      <trkpt lat="42.31747" lon="2.17536">
        <ele>1106.19</ele>
        <time>2021-07-31T10:51:40Z</time>
      </trkpt>
      <trkpt lat="42.31716" lon="2.17552">
        <ele>1101.76</ele>
        <time>2021-07-31T10:51:44Z</time>
      </trkpt>
      <trkpt lat="42.31703" lon="2.17583">
        <ele>1098.6</ele>
        <time>2021-07-31T10:51:47Z</time>
      </trkpt>
      <trkpt lat="42.31698" lon="2.1761">
        <ele>1096.92</ele>
        <time>2021-07-31T10:51:49Z</time>
      </trkpt>
      <trkpt lat="42.31696" lon="2.17637">
        <ele>1095.58</ele>
        <time>2021-07-31T10:51:51Z</time>
      </trkpt>
      <trkpt lat="42.31703" lon="2.17777">
        <ele>1093.18</ele>
        <time>2021-07-31T10:52:02Z</time>
      </trkpt>
      <trkpt lat="42.31703" lon="2.17788">
        <ele>1093.13</ele>
        <time>2021-07-31T10:52:03Z</time>
      </trkpt>
      <trkpt lat="42.31713" lon="2.17855">
        <ele>1092.75</ele>
        <time>2021-07-31T10:52:09Z</time>
      </trkpt>
      <trkpt lat="42.31761" lon="2.17915">
        <ele>1092.07</ele>
        <time>2021-07-31T10:52:16Z</time>
      </trkpt>
      <trkpt lat="42.31779" lon="2.17933">
        <ele>1092.1</ele>
        <time>2021-07-31T10:52:18Z</time>
      </trkpt>
      <trkpt lat="42.31813" lon="2.18005">
        <ele>1091.8</ele>
        <time>2021-07-31T10:52:25Z</time>
      </trkpt>
      <trkpt lat="42.31824" lon="2.18021">
        <ele>1091.6</ele>
        <time>2021-07-31T10:52:27Z</time>
      </trkpt>
      <trkpt lat="42.3183" lon="2.18065">
        <ele>1090.87</ele>
        <time>2021-07-31T10:52:31Z</time>
      </trkpt>
      <trkpt lat="42.31843" lon="2.1813">
        <ele>1090.52</ele>
        <time>2021-07-31T10:52:38Z</time>
      </trkpt>
      <trkpt lat="42.31858" lon="2.18162">
        <ele>1091.04</ele>
        <time>2021-07-31T10:52:41Z</time>
      </trkpt>
      <trkpt lat="42.31835" lon="2.18216">
        <ele>1092.7</ele>
        <time>2021-07-31T10:52:48Z</time>
      </trkpt>
      <trkpt lat="42.31813" lon="2.18286">
        <ele>1092.82</ele>
        <time>2021-07-31T10:52:54Z</time>
      </trkpt>
      <trkpt lat="42.31805" lon="2.1831">
        <ele>1092.53</ele>
        <time>2021-07-31T10:52:56Z</time>
      </trkpt>
      <trkpt lat="42.31762" lon="2.1831">
        <ele>1090.64</ele>
        <time>2021-07-31T10:53:03Z</time>
      </trkpt>
      <trkpt lat="42.31738" lon="2.18319">
        <ele>1090.03</ele>
        <time>2021-07-31T10:53:07Z</time>
      </trkpt>
      <trkpt lat="42.31718" lon="2.18354">
        <ele>1089.58</ele>
        <time>2021-07-31T10:53:10Z</time>
      </trkpt>
      <trkpt lat="42.31699" lon="2.18463">
        <ele>1085.57</ele>
        <time>2021-07-31T10:53:17Z</time>
      </trkpt>
      <trkpt lat="42.317" lon="2.18524">
        <ele>1081.66</ele>
        <time>2021-07-31T10:53:21Z</time>
      </trkpt>
      <trkpt lat="42.31682" lon="2.18551">
        <ele>1077.26</ele>
        <time>2021-07-31T10:53:25Z</time>
      </trkpt>
      <trkpt lat="42.31638" lon="2.18613">
        <ele>1072.29</ele>
        <time>2021-07-31T10:53:32Z</time>
      </trkpt>
      <trkpt lat="42.3162" lon="2.1865">
        <ele>1070.6</ele>
        <time>2021-07-31T10:53:35Z</time>
      </trkpt>
      <trkpt lat="42.31612" lon="2.18714">
        <ele>1066.57</ele>
        <time>2021-07-31T10:53:40Z</time>
      </trkpt>
      <trkpt lat="42.31611" lon="2.18766">
        <ele>1062.84</ele>
        <time>2021-07-31T10:53:44Z</time>
      </trkpt>
      <trkpt lat="42.31603" lon="2.18774">
        <ele>1061.95</ele>
        <time>2021-07-31T10:53:45Z</time>
      </trkpt>
      <trkpt lat="42.31596" lon="2.18845">
        <ele>1059.17</ele>
        <time>2021-07-31T10:53:53Z</time>
      </trkpt>
      <trkpt lat="42.3161" lon="2.18876">
        <ele>1059.42</ele>
        <time>2021-07-31T10:53:56Z</time>
      </trkpt>
      <trkpt lat="42.31594" lon="2.18912">
        <ele>1061.04</ele>
        <time>2021-07-31T10:54:01Z</time>
      </trkpt>
      <trkpt lat="42.31581" lon="2.18986">
        <ele>1060.91</ele>
        <time>2021-07-31T10:54:09Z</time>
      </trkpt>
      <trkpt lat="42.31587" lon="2.1904">
        <ele>1057.06</ele>
        <time>2021-07-31T10:54:16Z</time>
      </trkpt>
      <trkpt lat="42.31571" lon="2.19067">
        <ele>1055.92</ele>
        <time>2021-07-31T10:54:19Z</time>
      </trkpt>
      <trkpt lat="42.31559" lon="2.19084">
        <ele>1054.9</ele>
        <time>2021-07-31T10:54:21Z</time>
      </trkpt>
      <trkpt lat="42.31537" lon="2.1917">
        <ele>1051.32</ele>
        <time>2021-07-31T10:54:27Z</time>
      </trkpt>
      <trkpt lat="42.31498" lon="2.19216">
        <ele>1047.41</ele>
        <time>2021-07-31T10:54:31Z</time>
      </trkpt>
      <trkpt lat="42.31473" lon="2.19257">
        <ele>1042.68</ele>
        <time>2021-07-31T10:54:35Z</time>
      </trkpt>
      <trkpt lat="42.31479" lon="2.19294">
        <ele>1039.22</ele>
        <time>2021-07-31T10:54:39Z</time>
      </trkpt>
      <trkpt lat="42.31481" lon="2.19298">
        <ele>1038.36</ele>
        <time>2021-07-31T10:54:40Z</time>
      </trkpt>
      <trkpt lat="42.31485" lon="2.19305">
        <ele>1035.85</ele>
        <time>2021-07-31T10:54:44Z</time>
      </trkpt>
      <trkpt lat="42.31472" lon="2.19295">
        <ele>1032.9</ele>
        <time>2021-07-31T10:54:53Z</time>
      </trkpt>
      <trkpt lat="42.31468" lon="2.19234">
        <ele>1032.13</ele>
        <time>2021-07-31T10:54:57Z</time>
      </trkpt>
      <trkpt lat="42.3146" lon="2.19079">
        <ele>1029.61</ele>
        <time>2021-07-31T10:55:04Z</time>
      </trkpt>
      <trkpt lat="42.31497" lon="2.18977">
        <ele>1026.59</ele>
        <time>2021-07-31T10:55:10Z</time>
      </trkpt>
      <trkpt lat="42.31512" lon="2.18917">
        <ele>1023.72</ele>
        <time>2021-07-31T10:55:14Z</time>
      </trkpt>
      <trkpt lat="42.3152" lon="2.1886">
        <ele>1019.74</ele>
        <time>2021-07-31T10:55:18Z</time>
      </trkpt>
      <trkpt lat="42.31518" lon="2.18791">
        <ele>1014.81</ele>
        <time>2021-07-31T10:55:23Z</time>
      </trkpt>
      <trkpt lat="42.31523" lon="2.1873">
        <ele>1011.31</ele>
        <time>2021-07-31T10:55:27Z</time>
      </trkpt>
      <trkpt lat="42.31508" lon="2.18683">
        <ele>1007.65</ele>
        <time>2021-07-31T10:55:31Z</time>
      </trkpt>
      <trkpt lat="42.31501" lon="2.18654">
        <ele>1005.96</ele>
        <time>2021-07-31T10:55:33Z</time>
      </trkpt>
      <trkpt lat="42.31461" lon="2.18604">
        <ele>1001.22</ele>
        <time>2021-07-31T10:55:39Z</time>
      </trkpt>
      <trkpt lat="42.3144" lon="2.18553">
        <ele>997.32</ele>
        <time>2021-07-31T10:55:43Z</time>
      </trkpt>
      <trkpt lat="42.31422" lon="2.18524">
        <ele>995.54</ele>
        <time>2021-07-31T10:55:45Z</time>
      </trkpt>
      <trkpt lat="42.31391" lon="2.18487">
        <ele>993.29</ele>
        <time>2021-07-31T10:55:48Z</time>
      </trkpt>
      <trkpt lat="42.31342" lon="2.18483">
        <ele>988.48</ele>
        <time>2021-07-31T10:55:52Z</time>
      </trkpt>
      <trkpt lat="42.31276" lon="2.18453">
        <ele>983.8</ele>
        <time>2021-07-31T10:55:57Z</time>
      </trkpt>
      <trkpt lat="42.31262" lon="2.18445">
        <ele>983.09</ele>
        <time>2021-07-31T10:55:58Z</time>
      </trkpt>
      <trkpt lat="42.31231" lon="2.18408">
        <ele>980.73</ele>
        <time>2021-07-31T10:56:01Z</time>
      </trkpt>
      <trkpt lat="42.312" lon="2.1837">
        <ele>978.17</ele>
        <time>2021-07-31T10:56:04Z</time>
      </trkpt>
      <trkpt lat="42.31183" lon="2.18313">
        <ele>974.15</ele>
        <time>2021-07-31T10:56:08Z</time>
      </trkpt>
      <trkpt lat="42.31184" lon="2.18257">
        <ele>970.91</ele>
        <time>2021-07-31T10:56:11Z</time>
      </trkpt>
      <trkpt lat="42.31195" lon="2.18186">
        <ele>966.56</ele>
        <time>2021-07-31T10:56:15Z</time>
      </trkpt>
      <trkpt lat="42.312" lon="2.18121">
        <ele>961.8</ele>
        <time>2021-07-31T10:56:19Z</time>
      </trkpt>
      <trkpt lat="42.31219" lon="2.18076">
        <ele>958.15</ele>
        <time>2021-07-31T10:56:22Z</time>
      </trkpt>
      <trkpt lat="42.31228" lon="2.18064">
        <ele>957.09</ele>
        <time>2021-07-31T10:56:23Z</time>
      </trkpt>
      <trkpt lat="42.31268" lon="2.17995">
        <ele>952.99</ele>
        <time>2021-07-31T10:56:28Z</time>
      </trkpt>
      <trkpt lat="42.31292" lon="2.17927">
        <ele>950.03</ele>
        <time>2021-07-31T10:56:32Z</time>
      </trkpt>
      <trkpt lat="42.313" lon="2.1781">
        <ele>946.37</ele>
        <time>2021-07-31T10:56:38Z</time>
      </trkpt>
      <trkpt lat="42.31309" lon="2.17669">
        <ele>942.53</ele>
        <time>2021-07-31T10:56:45Z</time>
      </trkpt>
      <trkpt lat="42.31295" lon="2.17612">
        <ele>937.97</ele>
        <time>2021-07-31T10:56:49Z</time>
      </trkpt>
      <trkpt lat="42.3128" lon="2.17589">
        <ele>935.89</ele>
        <time>2021-07-31T10:56:51Z</time>
      </trkpt>
      <trkpt lat="42.31245" lon="2.17535">
        <ele>931.1</ele>
        <time>2021-07-31T10:56:56Z</time>
      </trkpt>
      <trkpt lat="42.31225" lon="2.17507">
        <ele>927.85</ele>
        <time>2021-07-31T10:57:00Z</time>
      </trkpt>
      <trkpt lat="42.31185" lon="2.17449">
        <ele>923.89</ele>
        <time>2021-07-31T10:57:07Z</time>
      </trkpt>
      <trkpt lat="42.31167" lon="2.17427">
        <ele>922.88</ele>
        <time>2021-07-31T10:57:10Z</time>
      </trkpt>
      <trkpt lat="42.31137" lon="2.1741">
        <ele>921.62</ele>
        <time>2021-07-31T10:57:14Z</time>
      </trkpt>
      <trkpt lat="42.31091" lon="2.17396">
        <ele>918.71</ele>
        <time>2021-07-31T10:57:23Z</time>
      </trkpt>
      <trkpt lat="42.31055" lon="2.17375">
        <ele>916.03</ele>
        <time>2021-07-31T10:57:32Z</time>
      </trkpt>
      <trkpt lat="42.31017" lon="2.1734">
        <ele>915.52</ele>
        <time>2021-07-31T10:57:37Z</time>
      </trkpt>
      <trkpt lat="42.30995" lon="2.17295">
        <ele>914.53</ele>
        <time>2021-07-31T10:57:42Z</time>
      </trkpt>
      <trkpt lat="42.3098" lon="2.17247">
        <ele>913.47</ele>
        <time>2021-07-31T10:57:47Z</time>
      </trkpt>
      <trkpt lat="42.30943" lon="2.17194">
        <ele>910.95</ele>
        <time>2021-07-31T10:57:57Z</time>
      </trkpt>
      <trkpt lat="42.30925" lon="2.17151">
        <ele>908.42</ele>
        <time>2021-07-31T10:58:09Z</time>
      </trkpt>
      <trkpt lat="42.30896" lon="2.17091">
        <ele>907.39</ele>
        <time>2021-07-31T10:58:20Z</time>
      </trkpt>
      <trkpt lat="42.30876" lon="2.17066">
        <ele>906.49</ele>
        <time>2021-07-31T10:58:32Z</time>
      </trkpt>
      <trkpt lat="42.30866" lon="2.17061">
        <ele>906.34</ele>
        <time>2021-07-31T10:58:35Z</time>
      </trkpt>
      <trkpt lat="42.30855" lon="2.1706">
        <ele>906.27</ele>
        <time>2021-07-31T10:58:37Z</time>
      </trkpt>
      <trkpt lat="42.30832" lon="2.17064">
        <ele>905.5</ele>
        <time>2021-07-31T10:58:44Z</time>
      </trkpt>
      <trkpt lat="42.30829" lon="2.1707">
        <ele>905.33</ele>
        <time>2021-07-31T10:58:45Z</time>
      </trkpt>
      <trkpt lat="42.30826" lon="2.17075">
        <ele>905.2</ele>
        <time>2021-07-31T10:58:46Z</time>
      </trkpt>
      <trkpt lat="42.30821" lon="2.17079">
        <ele>905.1</ele>
        <time>2021-07-31T10:58:47Z</time>
      </trkpt>
      <trkpt lat="42.30818" lon="2.17082">
        <ele>904.99</ele>
        <time>2021-07-31T10:58:48Z</time>
      </trkpt>
      <trkpt lat="42.30815" lon="2.17085">
        <ele>904.84</ele>
        <time>2021-07-31T10:58:49Z</time>
      </trkpt>
      <trkpt lat="42.3081" lon="2.17087">
        <ele>904.68</ele>
        <time>2021-07-31T10:58:50Z</time>
      </trkpt>
      <trkpt lat="42.30804" lon="2.17087">
        <ele>904.55</ele>
        <time>2021-07-31T10:58:51Z</time>
      </trkpt>
      <trkpt lat="42.30799" lon="2.17086">
        <ele>904.47</ele>
        <time>2021-07-31T10:58:52Z</time>
      </trkpt>
      <trkpt lat="42.30794" lon="2.17087">
        <ele>904.39</ele>
        <time>2021-07-31T10:58:53Z</time>
      </trkpt>
      <trkpt lat="42.3075" lon="2.17083">
        <ele>903.07</ele>
        <time>2021-07-31T10:59:06Z</time>
      </trkpt>
      <trkpt lat="42.3074" lon="2.17081">
        <ele>902.23</ele>
        <time>2021-07-31T10:59:16Z</time>
      </trkpt>
      <trkpt lat="42.30728" lon="2.17057">
        <ele>904.2</ele>
        <time>2021-07-31T11:40:31Z</time>
      </trkpt>
      <trkpt lat="42.30731" lon="2.17054">
        <ele>904.23</ele>
        <time>2021-07-31T11:40:32Z</time>
      </trkpt>
      <trkpt lat="42.3075" lon="2.17024">
        <ele>904.29</ele>
        <time>2021-07-31T11:40:40Z</time>
      </trkpt>
      <trkpt lat="42.30762" lon="2.17019">
        <ele>904.23</ele>
        <time>2021-07-31T11:40:44Z</time>
      </trkpt>
      <trkpt lat="42.30815" lon="2.17013">
        <ele>904.86</ele>
        <time>2021-07-31T11:40:58Z</time>
      </trkpt>
      <trkpt lat="42.30867" lon="2.17001">
        <ele>905.88</ele>
        <time>2021-07-31T11:41:06Z</time>
      </trkpt>
      <trkpt lat="42.30943" lon="2.16986">
        <ele>909.11</ele>
        <time>2021-07-31T11:41:15Z</time>
      </trkpt>
      <trkpt lat="42.30989" lon="2.16978">
        <ele>911.9</ele>
        <time>2021-07-31T11:41:20Z</time>
      </trkpt>
      <trkpt lat="42.31047" lon="2.16995">
        <ele>916.02</ele>
        <time>2021-07-31T11:41:26Z</time>
      </trkpt>
      <trkpt lat="42.31095" lon="2.16997">
        <ele>918.91</ele>
        <time>2021-07-31T11:41:31Z</time>
      </trkpt>
      <trkpt lat="42.31183" lon="2.16951">
        <ele>922.52</ele>
        <time>2021-07-31T11:41:40Z</time>
      </trkpt>
      <trkpt lat="42.31252" lon="2.16911">
        <ele>925.53</ele>
        <time>2021-07-31T11:41:46Z</time>
      </trkpt>
      <trkpt lat="42.31273" lon="2.16898">
        <ele>926.28</ele>
        <time>2021-07-31T11:41:48Z</time>
      </trkpt>
      <trkpt lat="42.31322" lon="2.16847">
        <ele>928.02</ele>
        <time>2021-07-31T11:41:53Z</time>
      </trkpt>
      <trkpt lat="42.31406" lon="2.16801">
        <ele>931.97</ele>
        <time>2021-07-31T11:42:00Z</time>
      </trkpt>
      <trkpt lat="42.31461" lon="2.16778">
        <ele>933.29</ele>
        <time>2021-07-31T11:42:05Z</time>
      </trkpt>
      <trkpt lat="42.31585" lon="2.16746">
        <ele>935.46</ele>
        <time>2021-07-31T11:42:14Z</time>
      </trkpt>
      <trkpt lat="42.316" lon="2.16742">
        <ele>935.82</ele>
        <time>2021-07-31T11:42:15Z</time>
      </trkpt>
      <trkpt lat="42.31718" lon="2.16756">
        <ele>939.33</ele>
        <time>2021-07-31T11:42:23Z</time>
      </trkpt>
      <trkpt lat="42.31762" lon="2.1676">
        <ele>940.16</ele>
        <time>2021-07-31T11:42:26Z</time>
      </trkpt>
      <trkpt lat="42.31806" lon="2.16755">
        <ele>941.42</ele>
        <time>2021-07-31T11:42:29Z</time>
      </trkpt>
      <trkpt lat="42.31892" lon="2.16789">
        <ele>944.4</ele>
        <time>2021-07-31T11:42:35Z</time>
      </trkpt>
      <trkpt lat="42.31906" lon="2.168">
        <ele>944.91</ele>
        <time>2021-07-31T11:42:36Z</time>
      </trkpt>
      <trkpt lat="42.31953" lon="2.16851">
        <ele>947.67</ele>
        <time>2021-07-31T11:42:40Z</time>
      </trkpt>
      <trkpt lat="42.32013" lon="2.16891">
        <ele>950.91</ele>
        <time>2021-07-31T11:42:45Z</time>
      </trkpt>
      <trkpt lat="42.3204" lon="2.16921">
        <ele>953.2</ele>
        <time>2021-07-31T11:42:48Z</time>
      </trkpt>
      <trkpt lat="42.32094" lon="2.1694">
        <ele>957.38</ele>
        <time>2021-07-31T11:42:54Z</time>
      </trkpt>
      <trkpt lat="42.32128" lon="2.16945">
        <ele>958.78</ele>
        <time>2021-07-31T11:42:57Z</time>
      </trkpt>
      <trkpt lat="42.32174" lon="2.16924">
        <ele>960.55</ele>
        <time>2021-07-31T11:43:01Z</time>
      </trkpt>
      <trkpt lat="42.32278" lon="2.16904">
        <ele>962.93</ele>
        <time>2021-07-31T11:43:08Z</time>
      </trkpt>
      <trkpt lat="42.32296" lon="2.16905">
        <ele>963.4</ele>
        <time>2021-07-31T11:43:09Z</time>
      </trkpt>
      <trkpt lat="42.32376" lon="2.16938">
        <ele>965.67</ele>
        <time>2021-07-31T11:43:14Z</time>
      </trkpt>
      <trkpt lat="42.32447" lon="2.16931">
        <ele>968.51</ele>
        <time>2021-07-31T11:43:19Z</time>
      </trkpt>
      <trkpt lat="42.32489" lon="2.16939">
        <ele>970.97</ele>
        <time>2021-07-31T11:43:23Z</time>
      </trkpt>
      <trkpt lat="42.32558" lon="2.16937">
        <ele>975.71</ele>
        <time>2021-07-31T11:43:29Z</time>
      </trkpt>
      <trkpt lat="42.32615" lon="2.16944">
        <ele>978.96</ele>
        <time>2021-07-31T11:43:33Z</time>
      </trkpt>
      <trkpt lat="42.32628" lon="2.1695">
        <ele>979.8</ele>
        <time>2021-07-31T11:43:34Z</time>
      </trkpt>
      <trkpt lat="42.32652" lon="2.16962">
        <ele>981.5</ele>
        <time>2021-07-31T11:43:36Z</time>
      </trkpt>
      <trkpt lat="42.32701" lon="2.16964">
        <ele>983.94</ele>
        <time>2021-07-31T11:43:40Z</time>
      </trkpt>
      <trkpt lat="42.32769" lon="2.16952">
        <ele>987.66</ele>
        <time>2021-07-31T11:43:45Z</time>
      </trkpt>
      <trkpt lat="42.32815" lon="2.16948">
        <ele>990.35</ele>
        <time>2021-07-31T11:43:48Z</time>
      </trkpt>
      <trkpt lat="42.32895" lon="2.16937">
        <ele>994.5</ele>
        <time>2021-07-31T11:43:53Z</time>
      </trkpt>
      <trkpt lat="42.32981" lon="2.16947">
        <ele>997.57</ele>
        <time>2021-07-31T11:43:58Z</time>
      </trkpt>
      <trkpt lat="42.33011" lon="2.1695">
        <ele>998.34</ele>
        <time>2021-07-31T11:44:00Z</time>
      </trkpt>
      <trkpt lat="42.33052" lon="2.16935">
        <ele>999.08</ele>
        <time>2021-07-31T11:44:03Z</time>
      </trkpt>
      <trkpt lat="42.33134" lon="2.16962">
        <ele>1000.03</ele>
        <time>2021-07-31T11:44:09Z</time>
      </trkpt>
      <trkpt lat="42.33227" lon="2.17066">
        <ele>1003.64</ele>
        <time>2021-07-31T11:44:17Z</time>
      </trkpt>
      <trkpt lat="42.33236" lon="2.1708">
        <ele>1004.26</ele>
        <time>2021-07-31T11:44:18Z</time>
      </trkpt>
      <trkpt lat="42.33277" lon="2.17102">
        <ele>1007.69</ele>
        <time>2021-07-31T11:44:22Z</time>
      </trkpt>
      <trkpt lat="42.33314" lon="2.17093">
        <ele>1009.84</ele>
        <time>2021-07-31T11:44:25Z</time>
      </trkpt>
      <trkpt lat="42.33374" lon="2.17071">
        <ele>1014.23</ele>
        <time>2021-07-31T11:44:30Z</time>
      </trkpt>
      <trkpt lat="42.33405" lon="2.17095">
        <ele>1016.94</ele>
        <time>2021-07-31T11:44:33Z</time>
      </trkpt>
      <trkpt lat="42.33415" lon="2.17106">
        <ele>1017.7</ele>
        <time>2021-07-31T11:44:34Z</time>
      </trkpt>
      <trkpt lat="42.3347" lon="2.17154">
        <ele>1019.65</ele>
        <time>2021-07-31T11:44:39Z</time>
      </trkpt>
      <trkpt lat="42.3348" lon="2.17158">
        <ele>1019.71</ele>
        <time>2021-07-31T11:44:40Z</time>
      </trkpt>
      <trkpt lat="42.3349" lon="2.17158">
        <ele>1019.66</ele>
        <time>2021-07-31T11:44:41Z</time>
      </trkpt>
      <trkpt lat="42.33499" lon="2.17154">
        <ele>1019.52</ele>
        <time>2021-07-31T11:44:42Z</time>
      </trkpt>
      <trkpt lat="42.33513" lon="2.17144">
        <ele>1018.78</ele>
        <time>2021-07-31T11:44:44Z</time>
      </trkpt>
      <trkpt lat="42.33545" lon="2.17137">
        <ele>1014.61</ele>
        <time>2021-07-31T11:44:51Z</time>
      </trkpt>
      <trkpt lat="42.3355" lon="2.17142">
        <ele>1014.18</ele>
        <time>2021-07-31T11:44:52Z</time>
      </trkpt>
      <trkpt lat="42.33564" lon="2.17153">
        <ele>1013.59</ele>
        <time>2021-07-31T11:44:54Z</time>
      </trkpt>
      <trkpt lat="42.33614" lon="2.17148">
        <ele>1013.38</ele>
        <time>2021-07-31T11:44:59Z</time>
      </trkpt>
      <trkpt lat="42.33685" lon="2.17128">
        <ele>1014.24</ele>
        <time>2021-07-31T11:45:04Z</time>
      </trkpt>
      <trkpt lat="42.33805" lon="2.17142">
        <ele>1017.9</ele>
        <time>2021-07-31T11:45:12Z</time>
      </trkpt>
      <trkpt lat="42.3382" lon="2.17143">
        <ele>1018.56</ele>
        <time>2021-07-31T11:45:13Z</time>
      </trkpt>
      <trkpt lat="42.3391" lon="2.17094">
        <ele>1021.94</ele>
        <time>2021-07-31T11:45:20Z</time>
      </trkpt>
      <trkpt lat="42.33972" lon="2.16994">
        <ele>1024.96</ele>
        <time>2021-07-31T11:45:28Z</time>
      </trkpt>
      <trkpt lat="42.33972" lon="2.16914">
        <ele>1025.81</ele>
        <time>2021-07-31T11:45:33Z</time>
      </trkpt>
      <trkpt lat="42.33993" lon="2.16851">
        <ele>1026.96</ele>
        <time>2021-07-31T11:45:37Z</time>
      </trkpt>
      <trkpt lat="42.34071" lon="2.16755">
        <ele>1030.53</ele>
        <time>2021-07-31T11:45:44Z</time>
      </trkpt>
      <trkpt lat="42.34121" lon="2.167">
        <ele>1033.97</ele>
        <time>2021-07-31T11:45:49Z</time>
      </trkpt>
      <trkpt lat="42.34141" lon="2.16683">
        <ele>1035.44</ele>
        <time>2021-07-31T11:45:52Z</time>
      </trkpt>
      <trkpt lat="42.34157" lon="2.16685">
        <ele>1036.36</ele>
        <time>2021-07-31T11:45:56Z</time>
      </trkpt>
      <trkpt lat="42.3416" lon="2.16679">
        <ele>1037.18</ele>
        <time>2021-07-31T11:46:03Z</time>
      </trkpt>
      <trkpt lat="42.34138" lon="2.16679">
        <ele>1037.72</ele>
        <time>2021-07-31T11:46:09Z</time>
      </trkpt>
      <trkpt lat="42.34097" lon="2.16698">
        <ele>1041.23</ele>
        <time>2021-07-31T11:46:20Z</time>
      </trkpt>
      <trkpt lat="42.34095" lon="2.16698">
        <ele>1041.97</ele>
        <time>2021-07-31T11:46:22Z</time>
      </trkpt>
      <trkpt lat="42.34092" lon="2.16697">
        <ele>1042.73</ele>
        <time>2021-07-31T11:46:24Z</time>
      </trkpt>
      <trkpt lat="42.341" lon="2.16674">
        <ele>1045.42</ele>
        <time>2021-07-31T11:46:33Z</time>
      </trkpt>
      <trkpt lat="42.3409" lon="2.16662">
        <ele>1048.29</ele>
        <time>2021-07-31T11:46:39Z</time>
      </trkpt>
      <trkpt lat="42.34086" lon="2.16667">
        <ele>1048.8</ele>
        <time>2021-07-31T11:46:40Z</time>
      </trkpt>
      <trkpt lat="42.34044" lon="2.16704">
        <ele>1053.09</ele>
        <time>2021-07-31T11:46:46Z</time>
      </trkpt>
      <trkpt lat="42.34031" lon="2.16715">
        <ele>1055.09</ele>
        <time>2021-07-31T11:46:48Z</time>
      </trkpt>
      <trkpt lat="42.34021" lon="2.16712">
        <ele>1059.87</ele>
        <time>2021-07-31T11:46:53Z</time>
      </trkpt>
      <trkpt lat="42.34031" lon="2.16694">
        <ele>1063.48</ele>
        <time>2021-07-31T11:46:57Z</time>
      </trkpt>
      <trkpt lat="42.34047" lon="2.16669">
        <ele>1065.81</ele>
        <time>2021-07-31T11:47:00Z</time>
      </trkpt>
      <trkpt lat="42.34059" lon="2.16648">
        <ele>1067.7</ele>
        <time>2021-07-31T11:47:02Z</time>
      </trkpt>
      <trkpt lat="42.3407" lon="2.16601">
        <ele>1071.9</ele>
        <time>2021-07-31T11:47:06Z</time>
      </trkpt>
      <trkpt lat="42.34074" lon="2.16581">
        <ele>1074.04</ele>
        <time>2021-07-31T11:47:08Z</time>
      </trkpt>
      <trkpt lat="42.34077" lon="2.16563">
        <ele>1076.05</ele>
        <time>2021-07-31T11:47:10Z</time>
      </trkpt>
      <trkpt lat="42.34089" lon="2.16553">
        <ele>1079.36</ele>
        <time>2021-07-31T11:47:13Z</time>
      </trkpt>
      <trkpt lat="42.3412" lon="2.16557">
        <ele>1083.87</ele>
        <time>2021-07-31T11:47:17Z</time>
      </trkpt>
      <trkpt lat="42.34147" lon="2.16557">
        <ele>1086.71</ele>
        <time>2021-07-31T11:47:20Z</time>
      </trkpt>
      <trkpt lat="42.34191" lon="2.1657">
        <ele>1091</ele>
        <time>2021-07-31T11:47:25Z</time>
      </trkpt>
      <trkpt lat="42.34198" lon="2.16572">
        <ele>1091.81</ele>
        <time>2021-07-31T11:47:26Z</time>
      </trkpt>
      <trkpt lat="42.34219" lon="2.16568">
        <ele>1095.77</ele>
        <time>2021-07-31T11:47:31Z</time>
      </trkpt>
      <trkpt lat="42.34202" lon="2.16555">
        <ele>1098.91</ele>
        <time>2021-07-31T11:47:35Z</time>
      </trkpt>
      <trkpt lat="42.34159" lon="2.16525">
        <ele>1104.01</ele>
        <time>2021-07-31T11:47:40Z</time>
      </trkpt>
      <trkpt lat="42.3414" lon="2.16516">
        <ele>1105.97</ele>
        <time>2021-07-31T11:47:42Z</time>
      </trkpt>
      <trkpt lat="42.34125" lon="2.16497">
        <ele>1109.97</ele>
        <time>2021-07-31T11:47:47Z</time>
      </trkpt>
      <trkpt lat="42.3414" lon="2.16498">
        <ele>1112.51</ele>
        <time>2021-07-31T11:47:50Z</time>
      </trkpt>
      <trkpt lat="42.34164" lon="2.16503">
        <ele>1114.69</ele>
        <time>2021-07-31T11:47:53Z</time>
      </trkpt>
      <trkpt lat="42.34212" lon="2.16492">
        <ele>1118.6</ele>
        <time>2021-07-31T11:47:58Z</time>
      </trkpt>
      <trkpt lat="42.34233" lon="2.16481">
        <ele>1120.9</ele>
        <time>2021-07-31T11:48:01Z</time>
      </trkpt>
      <trkpt lat="42.34262" lon="2.16448">
        <ele>1124.81</ele>
        <time>2021-07-31T11:48:07Z</time>
      </trkpt>
      <trkpt lat="42.34258" lon="2.16427">
        <ele>1128.88</ele>
        <time>2021-07-31T11:48:13Z</time>
      </trkpt>
      <trkpt lat="42.34253" lon="2.16429">
        <ele>1129.48</ele>
        <time>2021-07-31T11:48:14Z</time>
      </trkpt>
      <trkpt lat="42.34212" lon="2.16428">
        <ele>1133.36</ele>
        <time>2021-07-31T11:48:19Z</time>
      </trkpt>
      <trkpt lat="42.34171" lon="2.16419">
        <ele>1137.77</ele>
        <time>2021-07-31T11:48:23Z</time>
      </trkpt>
      <trkpt lat="42.34142" lon="2.16414">
        <ele>1141.78</ele>
        <time>2021-07-31T11:48:26Z</time>
      </trkpt>
      <trkpt lat="42.34119" lon="2.16412">
        <ele>1145.95</ele>
        <time>2021-07-31T11:48:29Z</time>
      </trkpt>
      <trkpt lat="42.34095" lon="2.16418">
        <ele>1150.1</ele>
        <time>2021-07-31T11:48:32Z</time>
      </trkpt>
      <trkpt lat="42.34065" lon="2.16403">
        <ele>1155.59</ele>
        <time>2021-07-31T11:48:36Z</time>
      </trkpt>
      <trkpt lat="42.34037" lon="2.16384">
        <ele>1160.06</ele>
        <time>2021-07-31T11:48:39Z</time>
      </trkpt>
      <trkpt lat="42.3402" lon="2.16372">
        <ele>1163.43</ele>
        <time>2021-07-31T11:48:41Z</time>
      </trkpt>
      <trkpt lat="42.34002" lon="2.16362">
        <ele>1166.68</ele>
        <time>2021-07-31T11:48:43Z</time>
      </trkpt>
      <trkpt lat="42.33975" lon="2.16356">
        <ele>1171.38</ele>
        <time>2021-07-31T11:48:46Z</time>
      </trkpt>
      <trkpt lat="42.3395" lon="2.16361">
        <ele>1175.49</ele>
        <time>2021-07-31T11:48:49Z</time>
      </trkpt>
      <trkpt lat="42.33914" lon="2.16356">
        <ele>1182.04</ele>
        <time>2021-07-31T11:48:54Z</time>
      </trkpt>
      <trkpt lat="42.33889" lon="2.16373">
        <ele>1186.38</ele>
        <time>2021-07-31T11:48:58Z</time>
      </trkpt>
      <trkpt lat="42.3389" lon="2.16439">
        <ele>1190.23</ele>
        <time>2021-07-31T11:49:02Z</time>
      </trkpt>
      <trkpt lat="42.33877" lon="2.16503">
        <ele>1195.77</ele>
        <time>2021-07-31T11:49:07Z</time>
      </trkpt>
      <trkpt lat="42.33858" lon="2.16531">
        <ele>1199.72</ele>
        <time>2021-07-31T11:49:10Z</time>
      </trkpt>
      <trkpt lat="42.33827" lon="2.16544">
        <ele>1204.21</ele>
        <time>2021-07-31T11:49:13Z</time>
      </trkpt>
      <trkpt lat="42.33815" lon="2.16545">
        <ele>1205.83</ele>
        <time>2021-07-31T11:49:14Z</time>
      </trkpt>
      <trkpt lat="42.33787" lon="2.16557">
        <ele>1210.85</ele>
        <time>2021-07-31T11:49:17Z</time>
      </trkpt>
      <trkpt lat="42.33768" lon="2.16567">
        <ele>1216.31</ele>
        <time>2021-07-31T11:49:19Z</time>
      </trkpt>
      <trkpt lat="42.33755" lon="2.16585">
        <ele>1220.19</ele>
        <time>2021-07-31T11:49:21Z</time>
      </trkpt>
      <trkpt lat="42.33746" lon="2.16589">
        <ele>1222.08</ele>
        <time>2021-07-31T11:49:22Z</time>
      </trkpt>
      <trkpt lat="42.33732" lon="2.16599">
        <ele>1225.53</ele>
        <time>2021-07-31T11:49:24Z</time>
      </trkpt>
      <trkpt lat="42.33704" lon="2.16589">
        <ele>1230.98</ele>
        <time>2021-07-31T11:49:28Z</time>
      </trkpt>
      <trkpt lat="42.33692" lon="2.16581">
        <ele>1233.29</ele>
        <time>2021-07-31T11:49:30Z</time>
      </trkpt>
      <trkpt lat="42.33688" lon="2.16579">
        <ele>1234.21</ele>
        <time>2021-07-31T11:49:31Z</time>
      </trkpt>
      <trkpt lat="42.33684" lon="2.16578">
        <ele>1235.15</ele>
        <time>2021-07-31T11:49:32Z</time>
      </trkpt>
      <trkpt lat="42.33681" lon="2.16575">
        <ele>1235.96</ele>
        <time>2021-07-31T11:49:33Z</time>
      </trkpt>
      <trkpt lat="42.33678" lon="2.1657">
        <ele>1236.62</ele>
        <time>2021-07-31T11:49:34Z</time>
      </trkpt>
      <trkpt lat="42.33678" lon="2.16564">
        <ele>1237.27</ele>
        <time>2021-07-31T11:49:35Z</time>
      </trkpt>
      <trkpt lat="42.33682" lon="2.16559">
        <ele>1237.93</ele>
        <time>2021-07-31T11:49:36Z</time>
      </trkpt>
      <trkpt lat="42.33687" lon="2.16556">
        <ele>1238.51</ele>
        <time>2021-07-31T11:49:37Z</time>
      </trkpt>
      <trkpt lat="42.33698" lon="2.16554">
        <ele>1239.78</ele>
        <time>2021-07-31T11:49:39Z</time>
      </trkpt>
      <trkpt lat="42.33704" lon="2.16553">
        <ele>1240.35</ele>
        <time>2021-07-31T11:49:40Z</time>
      </trkpt>
      <trkpt lat="42.33709" lon="2.1655">
        <ele>1240.83</ele>
        <time>2021-07-31T11:49:41Z</time>
      </trkpt>
      <trkpt lat="42.33726" lon="2.16528">
        <ele>1242.32</ele>
        <time>2021-07-31T11:49:44Z</time>
      </trkpt>
      <trkpt lat="42.33753" lon="2.16475">
        <ele>1246.16</ele>
        <time>2021-07-31T11:49:50Z</time>
      </trkpt>
      <trkpt lat="42.33763" lon="2.16449">
        <ele>1249.99</ele>
        <time>2021-07-31T11:49:54Z</time>
      </trkpt>
      <trkpt lat="42.33771" lon="2.16429">
        <ele>1252.19</ele>
        <time>2021-07-31T11:49:57Z</time>
      </trkpt>
      <trkpt lat="42.33773" lon="2.16394">
        <ele>1254.66</ele>
        <time>2021-07-31T11:50:01Z</time>
      </trkpt>
      <trkpt lat="42.33766" lon="2.16335">
        <ele>1258.64</ele>
        <time>2021-07-31T11:50:07Z</time>
      </trkpt>
      <trkpt lat="42.33741" lon="2.16316">
        <ele>1263.04</ele>
        <time>2021-07-31T11:50:12Z</time>
      </trkpt>
      <trkpt lat="42.33726" lon="2.16317">
        <ele>1264.93</ele>
        <time>2021-07-31T11:50:14Z</time>
      </trkpt>
      <trkpt lat="42.3372" lon="2.16312">
        <ele>1266</ele>
        <time>2021-07-31T11:50:15Z</time>
      </trkpt>
      <trkpt lat="42.33717" lon="2.16303">
        <ele>1267.08</ele>
        <time>2021-07-31T11:50:16Z</time>
      </trkpt>
      <trkpt lat="42.33731" lon="2.16278">
        <ele>1270.11</ele>
        <time>2021-07-31T11:50:19Z</time>
      </trkpt>
      <trkpt lat="42.33739" lon="2.16269">
        <ele>1271.18</ele>
        <time>2021-07-31T11:50:20Z</time>
      </trkpt>
      <trkpt lat="42.33773" lon="2.16224">
        <ele>1275.61</ele>
        <time>2021-07-31T11:50:24Z</time>
      </trkpt>
      <trkpt lat="42.338" lon="2.16188">
        <ele>1279.33</ele>
        <time>2021-07-31T11:50:27Z</time>
      </trkpt>
      <trkpt lat="42.33814" lon="2.16166">
        <ele>1282.13</ele>
        <time>2021-07-31T11:50:29Z</time>
      </trkpt>
      <trkpt lat="42.33818" lon="2.16155">
        <ele>1283.54</ele>
        <time>2021-07-31T11:50:30Z</time>
      </trkpt>
      <trkpt lat="42.3382" lon="2.16144">
        <ele>1284.94</ele>
        <time>2021-07-31T11:50:31Z</time>
      </trkpt>
      <trkpt lat="42.3382" lon="2.16131">
        <ele>1287.64</ele>
        <time>2021-07-31T11:50:33Z</time>
      </trkpt>
      <trkpt lat="42.33811" lon="2.16127">
        <ele>1291.27</ele>
        <time>2021-07-31T11:50:36Z</time>
      </trkpt>
      <trkpt lat="42.33803" lon="2.16131">
        <ele>1292.35</ele>
        <time>2021-07-31T11:50:37Z</time>
      </trkpt>
      <trkpt lat="42.3375" lon="2.16134">
        <ele>1297.66</ele>
        <time>2021-07-31T11:50:42Z</time>
      </trkpt>
      <trkpt lat="42.33712" lon="2.16133">
        <ele>1301.22</ele>
        <time>2021-07-31T11:50:45Z</time>
      </trkpt>
      <trkpt lat="42.33699" lon="2.16133">
        <ele>1302.45</ele>
        <time>2021-07-31T11:50:46Z</time>
      </trkpt>
      <trkpt lat="42.33657" lon="2.16115">
        <ele>1307.76</ele>
        <time>2021-07-31T11:50:50Z</time>
      </trkpt>
      <trkpt lat="42.3364" lon="2.16096">
        <ele>1310.07</ele>
        <time>2021-07-31T11:50:52Z</time>
      </trkpt>
      <trkpt lat="42.33611" lon="2.16078">
        <ele>1313.67</ele>
        <time>2021-07-31T11:50:55Z</time>
      </trkpt>
      <trkpt lat="42.33588" lon="2.16051">
        <ele>1317.85</ele>
        <time>2021-07-31T11:50:59Z</time>
      </trkpt>
      <trkpt lat="42.33615" lon="2.16053">
        <ele>1320.9</ele>
        <time>2021-07-31T11:51:03Z</time>
      </trkpt>
      <trkpt lat="42.33643" lon="2.16041">
        <ele>1323.05</ele>
        <time>2021-07-31T11:51:06Z</time>
      </trkpt>
      <trkpt lat="42.33698" lon="2.16">
        <ele>1327.8</ele>
        <time>2021-07-31T11:51:11Z</time>
      </trkpt>
      <trkpt lat="42.3373" lon="2.15969">
        <ele>1331.44</ele>
        <time>2021-07-31T11:51:14Z</time>
      </trkpt>
      <trkpt lat="42.33757" lon="2.15945">
        <ele>1335.04</ele>
        <time>2021-07-31T11:51:17Z</time>
      </trkpt>
      <trkpt lat="42.33786" lon="2.15917">
        <ele>1339.02</ele>
        <time>2021-07-31T11:51:20Z</time>
      </trkpt>
      <trkpt lat="42.33816" lon="2.1589">
        <ele>1343.2</ele>
        <time>2021-07-31T11:51:23Z</time>
      </trkpt>
      <trkpt lat="42.3384" lon="2.1587">
        <ele>1347.23</ele>
        <time>2021-07-31T11:51:26Z</time>
      </trkpt>
      <trkpt lat="42.33884" lon="2.15861">
        <ele>1352.16</ele>
        <time>2021-07-31T11:51:31Z</time>
      </trkpt>
      <trkpt lat="42.33945" lon="2.1587">
        <ele>1356.32</ele>
        <time>2021-07-31T11:51:37Z</time>
      </trkpt>
      <trkpt lat="42.33966" lon="2.15873">
        <ele>1357.37</ele>
        <time>2021-07-31T11:51:39Z</time>
      </trkpt>
      <trkpt lat="42.34029" lon="2.15851">
        <ele>1361.07</ele>
        <time>2021-07-31T11:51:46Z</time>
      </trkpt>
      <trkpt lat="42.34034" lon="2.1584">
        <ele>1361.73</ele>
        <time>2021-07-31T11:51:47Z</time>
      </trkpt>
      <trkpt lat="42.34051" lon="2.15807">
        <ele>1363.32</ele>
        <time>2021-07-31T11:51:50Z</time>
      </trkpt>
      <trkpt lat="42.34052" lon="2.15721">
        <ele>1367.51</ele>
        <time>2021-07-31T11:51:56Z</time>
      </trkpt>
      <trkpt lat="42.34046" lon="2.15641">
        <ele>1372.21</ele>
        <time>2021-07-31T11:52:01Z</time>
      </trkpt>
      <trkpt lat="42.34051" lon="2.15596">
        <ele>1376.56</ele>
        <time>2021-07-31T11:52:04Z</time>
      </trkpt>
      <trkpt lat="42.34056" lon="2.15549">
        <ele>1381</ele>
        <time>2021-07-31T11:52:07Z</time>
      </trkpt>
      <trkpt lat="42.3406" lon="2.15503">
        <ele>1385.34</ele>
        <time>2021-07-31T11:52:10Z</time>
      </trkpt>
      <trkpt lat="42.34062" lon="2.15469">
        <ele>1389.12</ele>
        <time>2021-07-31T11:52:13Z</time>
      </trkpt>
      <trkpt lat="42.34069" lon="2.15441">
        <ele>1393.99</ele>
        <time>2021-07-31T11:52:18Z</time>
      </trkpt>
      <trkpt lat="42.34068" lon="2.15436">
        <ele>1395.1</ele>
        <time>2021-07-31T11:52:20Z</time>
      </trkpt>
      <trkpt lat="42.34066" lon="2.15434">
        <ele>1396.03</ele>
        <time>2021-07-31T11:52:22Z</time>
      </trkpt>
      <trkpt lat="42.34061" lon="2.15443">
        <ele>1397.29</ele>
        <time>2021-07-31T11:52:26Z</time>
      </trkpt>
      <trkpt lat="42.34034" lon="2.15501">
        <ele>1399.49</ele>
        <time>2021-07-31T11:52:33Z</time>
      </trkpt>
      <trkpt lat="42.33987" lon="2.15546">
        <ele>1401.92</ele>
        <time>2021-07-31T11:52:39Z</time>
      </trkpt>
      <trkpt lat="42.33868" lon="2.15628">
        <ele>1404.7</ele>
        <time>2021-07-31T11:52:52Z</time>
      </trkpt>
      <trkpt lat="42.33769" lon="2.15669">
        <ele>1405.89</ele>
        <time>2021-07-31T11:53:01Z</time>
      </trkpt>
      <trkpt lat="42.33655" lon="2.15736">
        <ele>1408.52</ele>
        <time>2021-07-31T11:53:10Z</time>
      </trkpt>
      <trkpt lat="42.33629" lon="2.15746">
        <ele>1409.24</ele>
        <time>2021-07-31T11:53:12Z</time>
      </trkpt>
      <trkpt lat="42.33562" lon="2.15755">
        <ele>1411.41</ele>
        <time>2021-07-31T11:53:17Z</time>
      </trkpt>
      <trkpt lat="42.33514" lon="2.15745">
        <ele>1412.49</ele>
        <time>2021-07-31T11:53:21Z</time>
      </trkpt>
      <trkpt lat="42.33465" lon="2.15769">
        <ele>1413.79</ele>
        <time>2021-07-31T11:53:26Z</time>
      </trkpt>
      <trkpt lat="42.33361" lon="2.15866">
        <ele>1417.08</ele>
        <time>2021-07-31T11:53:36Z</time>
      </trkpt>
      <trkpt lat="42.33325" lon="2.15882">
        <ele>1418.53</ele>
        <time>2021-07-31T11:53:40Z</time>
      </trkpt>
      <trkpt lat="42.33298" lon="2.15877">
        <ele>1419.92</ele>
        <time>2021-07-31T11:53:45Z</time>
      </trkpt>
      <trkpt lat="42.33222" lon="2.15817">
        <ele>1421.94</ele>
        <time>2021-07-31T11:53:53Z</time>
      </trkpt>
      <trkpt lat="42.33115" lon="2.15725">
        <ele>1425.17</ele>
        <time>2021-07-31T11:54:03Z</time>
      </trkpt>
      <trkpt lat="42.33058" lon="2.15689">
        <ele>1427.06</ele>
        <time>2021-07-31T11:54:08Z</time>
      </trkpt>
      <trkpt lat="42.32993" lon="2.15707">
        <ele>1430.38</ele>
        <time>2021-07-31T11:54:14Z</time>
      </trkpt>
      <trkpt lat="42.32918" lon="2.15699">
        <ele>1434.13</ele>
        <time>2021-07-31T11:54:21Z</time>
      </trkpt>
      <trkpt lat="42.32844" lon="2.15696">
        <ele>1437.44</ele>
        <time>2021-07-31T11:54:27Z</time>
      </trkpt>
      <trkpt lat="42.32822" lon="2.15691">
        <ele>1438.31</ele>
        <time>2021-07-31T11:54:29Z</time>
      </trkpt>
      <trkpt lat="42.32782" lon="2.15633">
        <ele>1440.8</ele>
        <time>2021-07-31T11:54:35Z</time>
      </trkpt>
      <trkpt lat="42.32772" lon="2.15611">
        <ele>1442.31</ele>
        <time>2021-07-31T11:54:38Z</time>
      </trkpt>
      <trkpt lat="42.32772" lon="2.15594">
        <ele>1445.94</ele>
        <time>2021-07-31T11:54:47Z</time>
      </trkpt>
      <trkpt lat="42.32772" lon="2.15593">
        <ele>1447.58</ele>
        <time>2021-07-31T11:55:22Z</time>
      </trkpt>
      <trkpt lat="42.32769" lon="2.15588">
        <ele>1447.63</ele>
        <time>2021-07-31T11:55:24Z</time>
      </trkpt>
      <trkpt lat="42.32755" lon="2.1555">
        <ele>1448.17</ele>
        <time>2021-07-31T11:55:29Z</time>
      </trkpt>
      <trkpt lat="42.32693" lon="2.15479">
        <ele>1452.05</ele>
        <time>2021-07-31T11:55:38Z</time>
      </trkpt>
      <trkpt lat="42.32677" lon="2.15453">
        <ele>1454.19</ele>
        <time>2021-07-31T11:55:41Z</time>
      </trkpt>
      <trkpt lat="42.32678" lon="2.15386">
        <ele>1458.17</ele>
        <time>2021-07-31T11:55:47Z</time>
      </trkpt>
      <trkpt lat="42.3268" lon="2.15299">
        <ele>1462.39</ele>
        <time>2021-07-31T11:55:54Z</time>
      </trkpt>
      <trkpt lat="42.32681" lon="2.15232">
        <ele>1466.6</ele>
        <time>2021-07-31T11:55:59Z</time>
      </trkpt>
      <trkpt lat="42.32682" lon="2.15167">
        <ele>1470.3</ele>
        <time>2021-07-31T11:56:04Z</time>
      </trkpt>
      <trkpt lat="42.32689" lon="2.15103">
        <ele>1473.98</ele>
        <time>2021-07-31T11:56:09Z</time>
      </trkpt>
      <trkpt lat="42.32701" lon="2.15048">
        <ele>1477.24</ele>
        <time>2021-07-31T11:56:13Z</time>
      </trkpt>
      <trkpt lat="42.32712" lon="2.1499">
        <ele>1480.75</ele>
        <time>2021-07-31T11:56:17Z</time>
      </trkpt>
      <trkpt lat="42.32719" lon="2.14933">
        <ele>1484.52</ele>
        <time>2021-07-31T11:56:21Z</time>
      </trkpt>
      <trkpt lat="42.32726" lon="2.14897">
        <ele>1487.18</ele>
        <time>2021-07-31T11:56:24Z</time>
      </trkpt>
      <trkpt lat="42.32703" lon="2.14872">
        <ele>1490.51</ele>
        <time>2021-07-31T11:56:29Z</time>
      </trkpt>
      <trkpt lat="42.32679" lon="2.14876">
        <ele>1491.43</ele>
        <time>2021-07-31T11:56:31Z</time>
      </trkpt>
      <trkpt lat="42.32614" lon="2.14894">
        <ele>1494.14</ele>
        <time>2021-07-31T11:56:36Z</time>
      </trkpt>
      <trkpt lat="42.32576" lon="2.14892">
        <ele>1496.07</ele>
        <time>2021-07-31T11:56:39Z</time>
      </trkpt>
      <trkpt lat="42.32513" lon="2.14872">
        <ele>1499.82</ele>
        <time>2021-07-31T11:56:44Z</time>
      </trkpt>
      <trkpt lat="42.32489" lon="2.14861">
        <ele>1501.38</ele>
        <time>2021-07-31T11:56:46Z</time>
      </trkpt>
      <trkpt lat="42.32444" lon="2.14807">
        <ele>1505.93</ele>
        <time>2021-07-31T11:56:51Z</time>
      </trkpt>
      <trkpt lat="42.3242" lon="2.14768">
        <ele>1509.02</ele>
        <time>2021-07-31T11:56:54Z</time>
      </trkpt>
      <trkpt lat="42.32399" lon="2.14724">
        <ele>1512.03</ele>
        <time>2021-07-31T11:56:57Z</time>
      </trkpt>
      <trkpt lat="42.32368" lon="2.14675">
        <ele>1516.16</ele>
        <time>2021-07-31T11:57:01Z</time>
      </trkpt>
      <trkpt lat="42.32365" lon="2.14608">
        <ele>1520.83</ele>
        <time>2021-07-31T11:57:06Z</time>
      </trkpt>
      <trkpt lat="42.32371" lon="2.14594">
        <ele>1521.76</ele>
        <time>2021-07-31T11:57:07Z</time>
      </trkpt>
      <trkpt lat="42.32392" lon="2.14534">
        <ele>1526.44</ele>
        <time>2021-07-31T11:57:12Z</time>
      </trkpt>
      <trkpt lat="42.32402" lon="2.14516">
        <ele>1528.1</ele>
        <time>2021-07-31T11:57:14Z</time>
      </trkpt>
      <trkpt lat="42.32431" lon="2.14477">
        <ele>1531.54</ele>
        <time>2021-07-31T11:57:18Z</time>
      </trkpt>
      <trkpt lat="42.32459" lon="2.14407">
        <ele>1535.42</ele>
        <time>2021-07-31T11:57:23Z</time>
      </trkpt>
      <trkpt lat="42.32483" lon="2.14354">
        <ele>1539.03</ele>
        <time>2021-07-31T11:57:27Z</time>
      </trkpt>
      <trkpt lat="42.32494" lon="2.14331">
        <ele>1540.94</ele>
        <time>2021-07-31T11:57:29Z</time>
      </trkpt>
      <trkpt lat="42.325" lon="2.1427">
        <ele>1544.74</ele>
        <time>2021-07-31T11:57:33Z</time>
      </trkpt>
      <trkpt lat="42.32498" lon="2.14183">
        <ele>1548.87</ele>
        <time>2021-07-31T11:57:38Z</time>
      </trkpt>
      <trkpt lat="42.32498" lon="2.14132">
        <ele>1552.66</ele>
        <time>2021-07-31T11:57:41Z</time>
      </trkpt>
      <trkpt lat="42.32498" lon="2.14078">
        <ele>1555.79</ele>
        <time>2021-07-31T11:57:44Z</time>
      </trkpt>
      <trkpt lat="42.3249" lon="2.14009">
        <ele>1559.54</ele>
        <time>2021-07-31T11:57:48Z</time>
      </trkpt>
      <trkpt lat="42.32481" lon="2.1396">
        <ele>1562.72</ele>
        <time>2021-07-31T11:57:51Z</time>
      </trkpt>
      <trkpt lat="42.32472" lon="2.13918">
        <ele>1565.52</ele>
        <time>2021-07-31T11:57:54Z</time>
      </trkpt>
      <trkpt lat="42.32471" lon="2.13853">
        <ele>1570.36</ele>
        <time>2021-07-31T11:57:59Z</time>
      </trkpt>
      <trkpt lat="42.32481" lon="2.13797">
        <ele>1573.81</ele>
        <time>2021-07-31T11:58:03Z</time>
      </trkpt>
      <trkpt lat="42.32492" lon="2.13764">
        <ele>1576.84</ele>
        <time>2021-07-31T11:58:06Z</time>
      </trkpt>
      <trkpt lat="42.32517" lon="2.13733">
        <ele>1580.08</ele>
        <time>2021-07-31T11:58:10Z</time>
      </trkpt>
      <trkpt lat="42.32554" lon="2.13704">
        <ele>1584.11</ele>
        <time>2021-07-31T11:58:15Z</time>
      </trkpt>
      <trkpt lat="42.3259" lon="2.13679">
        <ele>1587.09</ele>
        <time>2021-07-31T11:58:19Z</time>
      </trkpt>
      <trkpt lat="42.32598" lon="2.13632">
        <ele>1590.16</ele>
        <time>2021-07-31T11:58:23Z</time>
      </trkpt>
      <trkpt lat="42.32625" lon="2.13581">
        <ele>1593.01</ele>
        <time>2021-07-31T11:58:28Z</time>
      </trkpt>
      <trkpt lat="42.32683" lon="2.1351">
        <ele>1596.71</ele>
        <time>2021-07-31T11:58:36Z</time>
      </trkpt>
      <trkpt lat="42.32741" lon="2.13403">
        <ele>1599.79</ele>
        <time>2021-07-31T11:58:44Z</time>
      </trkpt>
      <trkpt lat="42.32794" lon="2.13285">
        <ele>1603.22</ele>
        <time>2021-07-31T11:58:52Z</time>
      </trkpt>
      <trkpt lat="42.32846" lon="2.13192">
        <ele>1606.39</ele>
        <time>2021-07-31T11:59:00Z</time>
      </trkpt>
      <trkpt lat="42.32904" lon="2.13076">
        <ele>1609.52</ele>
        <time>2021-07-31T11:59:09Z</time>
      </trkpt>
      <trkpt lat="42.3294" lon="2.13007">
        <ele>1612.5</ele>
        <time>2021-07-31T11:59:16Z</time>
      </trkpt>
      <trkpt lat="42.32925" lon="2.12963">
        <ele>1613.95</ele>
        <time>2021-07-31T11:59:21Z</time>
      </trkpt>
      <trkpt lat="42.32893" lon="2.12844">
        <ele>1616.23</ele>
        <time>2021-07-31T11:59:29Z</time>
      </trkpt>
      <trkpt lat="42.32885" lon="2.12776">
        <ele>1618.16</ele>
        <time>2021-07-31T11:59:33Z</time>
      </trkpt>
      <trkpt lat="42.329" lon="2.1265">
        <ele>1621.72</ele>
        <time>2021-07-31T11:59:40Z</time>
      </trkpt>
      <trkpt lat="42.32907" lon="2.12621">
        <ele>1622.59</ele>
        <time>2021-07-31T11:59:42Z</time>
      </trkpt>
      <trkpt lat="42.32931" lon="2.1257">
        <ele>1623.74</ele>
        <time>2021-07-31T11:59:46Z</time>
      </trkpt>
      <trkpt lat="42.32956" lon="2.1253">
        <ele>1625.17</ele>
        <time>2021-07-31T11:59:51Z</time>
      </trkpt>
      <trkpt lat="42.32963" lon="2.12513">
        <ele>1625.77</ele>
        <time>2021-07-31T11:59:55Z</time>
      </trkpt>
      <trkpt lat="42.32981" lon="2.12467">
        <ele>1626.19</ele>
        <time>2021-07-31T12:00:01Z</time>
      </trkpt>
      <trkpt lat="42.33037" lon="2.12338">
        <ele>1622.92</ele>
        <time>2021-07-31T12:00:11Z</time>
      </trkpt>
      <trkpt lat="42.3306" lon="2.12273">
        <ele>1619.46</ele>
        <time>2021-07-31T12:00:15Z</time>
      </trkpt>
      <trkpt lat="42.33079" lon="2.12209">
        <ele>1615.47</ele>
        <time>2021-07-31T12:00:19Z</time>
      </trkpt>
      <trkpt lat="42.33099" lon="2.12162">
        <ele>1612.24</ele>
        <time>2021-07-31T12:00:22Z</time>
      </trkpt>
      <trkpt lat="42.33124" lon="2.12116">
        <ele>1609.14</ele>
        <time>2021-07-31T12:00:25Z</time>
      </trkpt>
      <trkpt lat="42.33144" lon="2.12075">
        <ele>1605.7</ele>
        <time>2021-07-31T12:00:28Z</time>
      </trkpt>
      <trkpt lat="42.33176" lon="2.1204">
        <ele>1600.98</ele>
        <time>2021-07-31T12:00:32Z</time>
      </trkpt>
      <trkpt lat="42.33184" lon="2.12035">
        <ele>1599.91</ele>
        <time>2021-07-31T12:00:33Z</time>
      </trkpt>
      <trkpt lat="42.33205" lon="2.12017">
        <ele>1596.77</ele>
        <time>2021-07-31T12:00:36Z</time>
      </trkpt>
      <trkpt lat="42.33236" lon="2.11943">
        <ele>1592.24</ele>
        <time>2021-07-31T12:00:41Z</time>
      </trkpt>
      <trkpt lat="42.33273" lon="2.11879">
        <ele>1588.91</ele>
        <time>2021-07-31T12:00:45Z</time>
      </trkpt>
      <trkpt lat="42.33308" lon="2.11836">
        <ele>1584.83</ele>
        <time>2021-07-31T12:00:49Z</time>
      </trkpt>
      <trkpt lat="42.33319" lon="2.11821">
        <ele>1582.53</ele>
        <time>2021-07-31T12:00:51Z</time>
      </trkpt>
      <trkpt lat="42.33309" lon="2.11785">
        <ele>1578.2</ele>
        <time>2021-07-31T12:00:55Z</time>
      </trkpt>
      <trkpt lat="42.33253" lon="2.11763">
        <ele>1574.27</ele>
        <time>2021-07-31T12:00:59Z</time>
      </trkpt>
      <trkpt lat="42.33172" lon="2.1172">
        <ele>1567.26</ele>
        <time>2021-07-31T12:01:05Z</time>
      </trkpt>
      <trkpt lat="42.33137" lon="2.11648">
        <ele>1562.41</ele>
        <time>2021-07-31T12:01:10Z</time>
      </trkpt>
      <trkpt lat="42.33128" lon="2.11634">
        <ele>1561.47</ele>
        <time>2021-07-31T12:01:11Z</time>
      </trkpt>
      <trkpt lat="42.33093" lon="2.11596">
        <ele>1557.27</ele>
        <time>2021-07-31T12:01:15Z</time>
      </trkpt>
      <trkpt lat="42.33082" lon="2.11535">
        <ele>1553</ele>
        <time>2021-07-31T12:01:19Z</time>
      </trkpt>
      <trkpt lat="42.33072" lon="2.11444">
        <ele>1548.18</ele>
        <time>2021-07-31T12:01:24Z</time>
      </trkpt>
      <trkpt lat="42.33066" lon="2.11389">
        <ele>1544.84</ele>
        <time>2021-07-31T12:01:27Z</time>
      </trkpt>
      <trkpt lat="42.33066" lon="2.11332">
        <ele>1541.57</ele>
        <time>2021-07-31T12:01:30Z</time>
      </trkpt>
      <trkpt lat="42.33068" lon="2.11279">
        <ele>1538.15</ele>
        <time>2021-07-31T12:01:33Z</time>
      </trkpt>
      <trkpt lat="42.33065" lon="2.11244">
        <ele>1535.86</ele>
        <time>2021-07-31T12:01:35Z</time>
      </trkpt>
      <trkpt lat="42.33047" lon="2.1118">
        <ele>1531.33</ele>
        <time>2021-07-31T12:01:39Z</time>
      </trkpt>
      <trkpt lat="42.33044" lon="2.11165">
        <ele>1530.13</ele>
        <time>2021-07-31T12:01:40Z</time>
      </trkpt>
      <trkpt lat="42.33036" lon="2.11096">
        <ele>1525.83</ele>
        <time>2021-07-31T12:01:44Z</time>
      </trkpt>
      <trkpt lat="42.33037" lon="2.11046">
        <ele>1522.73</ele>
        <time>2021-07-31T12:01:47Z</time>
      </trkpt>
      <trkpt lat="42.3304" lon="2.11029">
        <ele>1521.62</ele>
        <time>2021-07-31T12:01:48Z</time>
      </trkpt>
      <trkpt lat="42.33055" lon="2.10982">
        <ele>1516.95</ele>
        <time>2021-07-31T12:01:52Z</time>
      </trkpt>
      <trkpt lat="42.33035" lon="2.10954">
        <ele>1511.24</ele>
        <time>2021-07-31T12:01:58Z</time>
      </trkpt>
      <trkpt lat="42.33012" lon="2.10939">
        <ele>1509.71</ele>
        <time>2021-07-31T12:02:00Z</time>
      </trkpt>
      <trkpt lat="42.32965" lon="2.10889">
        <ele>1505.82</ele>
        <time>2021-07-31T12:02:05Z</time>
      </trkpt>
      <trkpt lat="42.32932" lon="2.10836">
        <ele>1502.5</ele>
        <time>2021-07-31T12:02:09Z</time>
      </trkpt>
      <trkpt lat="42.32907" lon="2.10774">
        <ele>1498.8</ele>
        <time>2021-07-31T12:02:13Z</time>
      </trkpt>
      <trkpt lat="42.32905" lon="2.10715">
        <ele>1494.82</ele>
        <time>2021-07-31T12:02:17Z</time>
      </trkpt>
      <trkpt lat="42.32908" lon="2.107">
        <ele>1493.77</ele>
        <time>2021-07-31T12:02:18Z</time>
      </trkpt>
      <trkpt lat="42.32925" lon="2.10643">
        <ele>1489.57</ele>
        <time>2021-07-31T12:02:22Z</time>
      </trkpt>
      <trkpt lat="42.32943" lon="2.10588">
        <ele>1485.85</ele>
        <time>2021-07-31T12:02:26Z</time>
      </trkpt>
      <trkpt lat="42.32971" lon="2.10547">
        <ele>1481.42</ele>
        <time>2021-07-31T12:02:30Z</time>
      </trkpt>
      <trkpt lat="42.33008" lon="2.10508">
        <ele>1477.79</ele>
        <time>2021-07-31T12:02:34Z</time>
      </trkpt>
      <trkpt lat="42.33015" lon="2.10499">
        <ele>1476.77</ele>
        <time>2021-07-31T12:02:35Z</time>
      </trkpt>
      <trkpt lat="42.33014" lon="2.10466">
        <ele>1471.1</ele>
        <time>2021-07-31T12:02:40Z</time>
      </trkpt>
      <trkpt lat="42.32992" lon="2.10477">
        <ele>1468.73</ele>
        <time>2021-07-31T12:02:43Z</time>
      </trkpt>
      <trkpt lat="42.32931" lon="2.10513">
        <ele>1464.24</ele>
        <time>2021-07-31T12:02:49Z</time>
      </trkpt>
      <trkpt lat="42.3288" lon="2.10538">
        <ele>1461.15</ele>
        <time>2021-07-31T12:02:53Z</time>
      </trkpt>
      <trkpt lat="42.32869" lon="2.10544">
        <ele>1460.27</ele>
        <time>2021-07-31T12:02:54Z</time>
      </trkpt>
      <trkpt lat="42.32827" lon="2.10585">
        <ele>1456.47</ele>
        <time>2021-07-31T12:02:58Z</time>
      </trkpt>
      <trkpt lat="42.32808" lon="2.10605">
        <ele>1454.37</ele>
        <time>2021-07-31T12:03:00Z</time>
      </trkpt>
      <trkpt lat="42.3278" lon="2.10683">
        <ele>1449.37</ele>
        <time>2021-07-31T12:03:05Z</time>
      </trkpt>
      <trkpt lat="42.32771" lon="2.10734">
        <ele>1446.13</ele>
        <time>2021-07-31T12:03:08Z</time>
      </trkpt>
      <trkpt lat="42.32781" lon="2.10798">
        <ele>1441.75</ele>
        <time>2021-07-31T12:03:12Z</time>
      </trkpt>
      <trkpt lat="42.32808" lon="2.10869">
        <ele>1437.49</ele>
        <time>2021-07-31T12:03:16Z</time>
      </trkpt>
      <trkpt lat="42.32827" lon="2.10918">
        <ele>1434.32</ele>
        <time>2021-07-31T12:03:19Z</time>
      </trkpt>
      <trkpt lat="42.32846" lon="2.10965">
        <ele>1431.09</ele>
        <time>2021-07-31T12:03:22Z</time>
      </trkpt>
      <trkpt lat="42.32851" lon="2.10976">
        <ele>1430</ele>
        <time>2021-07-31T12:03:23Z</time>
      </trkpt>
      <trkpt lat="42.32845" lon="2.11015">
        <ele>1425</ele>
        <time>2021-07-31T12:03:27Z</time>
      </trkpt>
      <trkpt lat="42.32814" lon="2.11066">
        <ele>1420.69</ele>
        <time>2021-07-31T12:03:31Z</time>
      </trkpt>
      <trkpt lat="42.32784" lon="2.11123">
        <ele>1416.92</ele>
        <time>2021-07-31T12:03:35Z</time>
      </trkpt>
      <trkpt lat="42.32774" lon="2.11187">
        <ele>1412.87</ele>
        <time>2021-07-31T12:03:39Z</time>
      </trkpt>
      <trkpt lat="42.32787" lon="2.11246">
        <ele>1408.87</ele>
        <time>2021-07-31T12:03:43Z</time>
      </trkpt>
      <trkpt lat="42.32801" lon="2.11278">
        <ele>1405.69</ele>
        <time>2021-07-31T12:03:46Z</time>
      </trkpt>
      <trkpt lat="42.32792" lon="2.11314">
        <ele>1402.55</ele>
        <time>2021-07-31T12:03:49Z</time>
      </trkpt>
      <trkpt lat="42.32786" lon="2.11323">
        <ele>1401.51</ele>
        <time>2021-07-31T12:03:50Z</time>
      </trkpt>
      <trkpt lat="42.32767" lon="2.11355">
        <ele>1398.56</ele>
        <time>2021-07-31T12:03:53Z</time>
      </trkpt>
      <trkpt lat="42.32769" lon="2.11417">
        <ele>1394.01</ele>
        <time>2021-07-31T12:03:58Z</time>
      </trkpt>
      <trkpt lat="42.32775" lon="2.1143">
        <ele>1393.23</ele>
        <time>2021-07-31T12:03:59Z</time>
      </trkpt>
      <trkpt lat="42.32813" lon="2.11505">
        <ele>1389.2</ele>
        <time>2021-07-31T12:04:04Z</time>
      </trkpt>
      <trkpt lat="42.32818" lon="2.11518">
        <ele>1388.31</ele>
        <time>2021-07-31T12:04:05Z</time>
      </trkpt>
      <trkpt lat="42.32813" lon="2.11564">
        <ele>1384.32</ele>
        <time>2021-07-31T12:04:09Z</time>
      </trkpt>
      <trkpt lat="42.32765" lon="2.11562">
        <ele>1380.49</ele>
        <time>2021-07-31T12:04:13Z</time>
      </trkpt>
      <trkpt lat="42.32705" lon="2.11563">
        <ele>1376.62</ele>
        <time>2021-07-31T12:04:18Z</time>
      </trkpt>
      <trkpt lat="42.32676" lon="2.11605">
        <ele>1371.45</ele>
        <time>2021-07-31T12:04:23Z</time>
      </trkpt>
      <trkpt lat="42.32665" lon="2.11627">
        <ele>1368.33</ele>
        <time>2021-07-31T12:04:26Z</time>
      </trkpt>
      <trkpt lat="42.32648" lon="2.11601">
        <ele>1365.05</ele>
        <time>2021-07-31T12:04:29Z</time>
      </trkpt>
      <trkpt lat="42.32635" lon="2.11576">
        <ele>1363.49</ele>
        <time>2021-07-31T12:04:31Z</time>
      </trkpt>
      <trkpt lat="42.32639" lon="2.11528">
        <ele>1359.41</ele>
        <time>2021-07-31T12:04:35Z</time>
      </trkpt>
      <trkpt lat="42.32664" lon="2.11502">
        <ele>1356.4</ele>
        <time>2021-07-31T12:04:38Z</time>
      </trkpt>
      <trkpt lat="42.32695" lon="2.11492">
        <ele>1352.99</ele>
        <time>2021-07-31T12:04:41Z</time>
      </trkpt>
      <trkpt lat="42.32718" lon="2.11467">
        <ele>1347.12</ele>
        <time>2021-07-31T12:04:46Z</time>
      </trkpt>
      <trkpt lat="42.32705" lon="2.11443">
        <ele>1343.69</ele>
        <time>2021-07-31T12:04:49Z</time>
      </trkpt>
      <trkpt lat="42.32693" lon="2.11434">
        <ele>1342.58</ele>
        <time>2021-07-31T12:04:50Z</time>
      </trkpt>
      <trkpt lat="42.3265" lon="2.11395">
        <ele>1338.34</ele>
        <time>2021-07-31T12:04:54Z</time>
      </trkpt>
      <trkpt lat="42.32639" lon="2.11349">
        <ele>1333.64</ele>
        <time>2021-07-31T12:04:58Z</time>
      </trkpt>
      <trkpt lat="42.32654" lon="2.11315">
        <ele>1330.26</ele>
        <time>2021-07-31T12:05:01Z</time>
      </trkpt>
      <trkpt lat="42.32649" lon="2.1127">
        <ele>1324.47</ele>
        <time>2021-07-31T12:05:07Z</time>
      </trkpt>
      <trkpt lat="42.32612" lon="2.11231">
        <ele>1321.2</ele>
        <time>2021-07-31T12:05:11Z</time>
      </trkpt>
      <trkpt lat="42.3256" lon="2.11208">
        <ele>1317.82</ele>
        <time>2021-07-31T12:05:15Z</time>
      </trkpt>
      <trkpt lat="42.32526" lon="2.1118">
        <ele>1313.81</ele>
        <time>2021-07-31T12:05:19Z</time>
      </trkpt>
      <trkpt lat="42.32534" lon="2.11143">
        <ele>1310.56</ele>
        <time>2021-07-31T12:05:22Z</time>
      </trkpt>
      <trkpt lat="42.32558" lon="2.11109">
        <ele>1307.65</ele>
        <time>2021-07-31T12:05:25Z</time>
      </trkpt>
      <trkpt lat="42.32571" lon="2.11092">
        <ele>1305.94</ele>
        <time>2021-07-31T12:05:27Z</time>
      </trkpt>
      <trkpt lat="42.32569" lon="2.11059">
        <ele>1301.42</ele>
        <time>2021-07-31T12:05:32Z</time>
      </trkpt>
      <trkpt lat="42.32534" lon="2.11022">
        <ele>1298.25</ele>
        <time>2021-07-31T12:05:36Z</time>
      </trkpt>
      <trkpt lat="42.32519" lon="2.10997">
        <ele>1296.69</ele>
        <time>2021-07-31T12:05:38Z</time>
      </trkpt>
      <trkpt lat="42.32504" lon="2.10972">
        <ele>1295</ele>
        <time>2021-07-31T12:05:40Z</time>
      </trkpt>
      <trkpt lat="42.32464" lon="2.10937">
        <ele>1291.5</ele>
        <time>2021-07-31T12:05:44Z</time>
      </trkpt>
      <trkpt lat="42.32419" lon="2.10915">
        <ele>1287.67</ele>
        <time>2021-07-31T12:05:48Z</time>
      </trkpt>
      <trkpt lat="42.32391" lon="2.10859">
        <ele>1282.81</ele>
        <time>2021-07-31T12:05:53Z</time>
      </trkpt>
      <trkpt lat="42.3239" lon="2.10844">
        <ele>1281.92</ele>
        <time>2021-07-31T12:05:54Z</time>
      </trkpt>
      <trkpt lat="42.32389" lon="2.10814">
        <ele>1280.09</ele>
        <time>2021-07-31T12:05:56Z</time>
      </trkpt>
      <trkpt lat="42.32367" lon="2.10758">
        <ele>1275.73</ele>
        <time>2021-07-31T12:06:00Z</time>
      </trkpt>
      <trkpt lat="42.32337" lon="2.10702">
        <ele>1271.84</ele>
        <time>2021-07-31T12:06:04Z</time>
      </trkpt>
      <trkpt lat="42.32332" lon="2.10689">
        <ele>1270.87</ele>
        <time>2021-07-31T12:06:05Z</time>
      </trkpt>
      <trkpt lat="42.32325" lon="2.10635">
        <ele>1267.04</ele>
        <time>2021-07-31T12:06:09Z</time>
      </trkpt>
      <trkpt lat="42.32318" lon="2.1055">
        <ele>1262.42</ele>
        <time>2021-07-31T12:06:14Z</time>
      </trkpt>
      <trkpt lat="42.32316" lon="2.10503">
        <ele>1259.63</ele>
        <time>2021-07-31T12:06:17Z</time>
      </trkpt>
      <trkpt lat="42.32286" lon="2.10447">
        <ele>1254.81</ele>
        <time>2021-07-31T12:06:22Z</time>
      </trkpt>
      <trkpt lat="42.32259" lon="2.10425">
        <ele>1250.79</ele>
        <time>2021-07-31T12:06:26Z</time>
      </trkpt>
      <trkpt lat="42.32232" lon="2.10404">
        <ele>1247.13</ele>
        <time>2021-07-31T12:06:30Z</time>
      </trkpt>
      <trkpt lat="42.32214" lon="2.10388">
        <ele>1244.73</ele>
        <time>2021-07-31T12:06:33Z</time>
      </trkpt>
      <trkpt lat="42.32193" lon="2.1039">
        <ele>1241.02</ele>
        <time>2021-07-31T12:06:38Z</time>
      </trkpt>
      <trkpt lat="42.32207" lon="2.10421">
        <ele>1238.56</ele>
        <time>2021-07-31T12:06:42Z</time>
      </trkpt>
      <trkpt lat="42.32245" lon="2.10476">
        <ele>1236.23</ele>
        <time>2021-07-31T12:06:47Z</time>
      </trkpt>
      <trkpt lat="42.32242" lon="2.10567">
        <ele>1232.88</ele>
        <time>2021-07-31T12:06:53Z</time>
      </trkpt>
      <trkpt lat="42.3221" lon="2.10623">
        <ele>1229.98</ele>
        <time>2021-07-31T12:06:57Z</time>
      </trkpt>
      <trkpt lat="42.32156" lon="2.10681">
        <ele>1225.59</ele>
        <time>2021-07-31T12:07:02Z</time>
      </trkpt>
      <trkpt lat="42.32111" lon="2.10726">
        <ele>1221.83</ele>
        <time>2021-07-31T12:07:06Z</time>
      </trkpt>
      <trkpt lat="42.32077" lon="2.10752">
        <ele>1218.74</ele>
        <time>2021-07-31T12:07:09Z</time>
      </trkpt>
      <trkpt lat="42.32067" lon="2.10758">
        <ele>1217.7</ele>
        <time>2021-07-31T12:07:10Z</time>
      </trkpt>
      <trkpt lat="42.3203" lon="2.10754">
        <ele>1213.17</ele>
        <time>2021-07-31T12:07:14Z</time>
      </trkpt>
      <trkpt lat="42.32021" lon="2.10745">
        <ele>1212.01</ele>
        <time>2021-07-31T12:07:15Z</time>
      </trkpt>
      <trkpt lat="42.31988" lon="2.1071">
        <ele>1207.94</ele>
        <time>2021-07-31T12:07:19Z</time>
      </trkpt>
      <trkpt lat="42.31981" lon="2.10701">
        <ele>1206.9</ele>
        <time>2021-07-31T12:07:20Z</time>
      </trkpt>
      <trkpt lat="42.31981" lon="2.10653">
        <ele>1202.77</ele>
        <time>2021-07-31T12:07:24Z</time>
      </trkpt>
      <trkpt lat="42.32012" lon="2.10617">
        <ele>1198.9</ele>
        <time>2021-07-31T12:07:28Z</time>
      </trkpt>
      <trkpt lat="42.32035" lon="2.10618">
        <ele>1197.08</ele>
        <time>2021-07-31T12:07:30Z</time>
      </trkpt>
      <trkpt lat="42.32078" lon="2.10617">
        <ele>1193.75</ele>
        <time>2021-07-31T12:07:34Z</time>
      </trkpt>
      <trkpt lat="42.32102" lon="2.10603">
        <ele>1189.05</ele>
        <time>2021-07-31T12:07:38Z</time>
      </trkpt>
      <trkpt lat="42.32092" lon="2.10585">
        <ele>1187.21</ele>
        <time>2021-07-31T12:07:40Z</time>
      </trkpt>
      <trkpt lat="42.32053" lon="2.10524">
        <ele>1183.12</ele>
        <time>2021-07-31T12:07:45Z</time>
      </trkpt>
      <trkpt lat="42.32013" lon="2.1048">
        <ele>1179.69</ele>
        <time>2021-07-31T12:07:49Z</time>
      </trkpt>
      <trkpt lat="42.31995" lon="2.10457">
        <ele>1177.58</ele>
        <time>2021-07-31T12:07:51Z</time>
      </trkpt>
      <trkpt lat="42.31975" lon="2.10398">
        <ele>1173.49</ele>
        <time>2021-07-31T12:07:55Z</time>
      </trkpt>
      <trkpt lat="42.31946" lon="2.10377">
        <ele>1170.37</ele>
        <time>2021-07-31T12:07:58Z</time>
      </trkpt>
      <trkpt lat="42.31922" lon="2.10395">
        <ele>1168.52</ele>
        <time>2021-07-31T12:08:00Z</time>
      </trkpt>
      <trkpt lat="42.31864" lon="2.1043">
        <ele>1163.34</ele>
        <time>2021-07-31T12:08:07Z</time>
      </trkpt>
      <trkpt lat="42.31849" lon="2.10443">
        <ele>1160.11</ele>
        <time>2021-07-31T12:08:13Z</time>
      </trkpt>
      <trkpt lat="42.31814" lon="2.10415">
        <ele>1159.06</ele>
        <time>2021-07-31T12:08:18Z</time>
      </trkpt>
      <trkpt lat="42.31811" lon="2.10386">
        <ele>1159.08</ele>
        <time>2021-07-31T12:08:20Z</time>
      </trkpt>
      <trkpt lat="42.31807" lon="2.10337">
        <ele>1159.7</ele>
        <time>2021-07-31T12:08:23Z</time>
      </trkpt>
      <trkpt lat="42.31831" lon="2.10242">
        <ele>1161.9</ele>
        <time>2021-07-31T12:08:29Z</time>
      </trkpt>
      <trkpt lat="42.31849" lon="2.10219">
        <ele>1179</ele>
      </trkpt>
      <trkpt lat="42.31863" lon="2.10212">
        <ele>1163.8</ele>
        <time>2021-07-31T12:08:32Z</time>
      </trkpt>
      <trkpt lat="42.3193" lon="2.1017">
        <ele>1167.28</ele>
        <time>2021-07-31T12:08:37Z</time>
      </trkpt>
      <trkpt lat="42.31988" lon="2.10092">
        <ele>1171.11</ele>
        <time>2021-07-31T12:08:42Z</time>
      </trkpt>
      <trkpt lat="42.32002" lon="2.10055">
        <ele>1172.83</ele>
        <time>2021-07-31T12:08:44Z</time>
      </trkpt>
      <trkpt lat="42.32073" lon="2.09997">
        <ele>1175.78</ele>
        <time>2021-07-31T12:08:50Z</time>
      </trkpt>
      <trkpt lat="42.32104" lon="2.10003">
        <ele>1176.95</ele>
        <time>2021-07-31T12:08:52Z</time>
      </trkpt>
      <trkpt lat="42.32152" lon="2.10012">
        <ele>1178.4</ele>
        <time>2021-07-31T12:08:55Z</time>
      </trkpt>
      <trkpt lat="42.32208" lon="2.09986">
        <ele>1180.79</ele>
        <time>2021-07-31T12:09:00Z</time>
      </trkpt>
      <trkpt lat="42.32196" lon="2.0991">
        <ele>1181.98</ele>
        <time>2021-07-31T12:09:05Z</time>
      </trkpt>
      <trkpt lat="42.32177" lon="2.09907">
        <ele>1207.5</ele>
      </trkpt>
      <trkpt lat="42.32155" lon="2.09894">
        <ele>1206.5</ele>
      </trkpt>
      <trkpt lat="42.32109" lon="2.09846">
        <ele>1209.1</ele>
      </trkpt>
      <trkpt lat="42.32078" lon="2.09824">
        <ele>1208.2</ele>
      </trkpt>
      <trkpt lat="42.32041" lon="2.09815">
        <ele>1204.1</ele>
      </trkpt>
      <trkpt lat="42.32037" lon="2.0981">
        <ele>1204.2</ele>
      </trkpt>
    </trkseg>
  </trk>
</gpx>